[[{"header":{"parameterUnit":"m.s-1","parameterCategory":1,"la1":30.6,"la2":28.766,"lo1":-90.7593,"lo2":-88.6598,"dy":0.0162,"dx":0.0183,"nx":116,"ny":114,"refTime":"2023-10-06T06:00:00:Z","depth":0,"parameterNumber":2,"parameterNumberName":"U-component_of_WINDS"},"data":[0.0,0.0,0.0,0.0,0.0,0.0,0.0,0.0,0.0,0.0,0.0,0.0,0.0,0.0,0.0,0.0,0.0,0.0,0.0,0.0,0.0,0.0,0.0,0.0,0.0,0.0,0.0,0.0,0.0,0.0,0.0,0.0,0.0,0.0,0.0,0.0,0.0,0.0,0.0,0.0,0.0,0.0,0.0,0.0,0.0,0.0,0.0,0.0,0.0,0.0,0.0,0.0,0.0,0.0,0.0,0.0,0.0,0.0,0.0,0.0,0.0,0.0,0.0,0.0,0.0,0.0,0.0,0.0,0.0,0.0,0.0,0.0,0.0,0.0,0.0,0.0,0.0,0.0,0.0,0.0,0.0,0.0,0.0,0.0,0.0,0.0,0.0,0.0,0.0,0.0,0.0,0.0,0.0,0.0,0.0,0.0,0.0,0.0,0.0,0.0,0.0,0.0,0.0,0.0,0.0,0.0,0.0,0.0,0.0,0.0,0.0,0.0,0.0,0.0,0.0,0.0,0.0,0.0,0.0,0.0,0.0,0.0,0.0,0.0,0.0,0.0,0.0,0.0,0.0,0.0,0.0,0.0,0.0,0.0,0.0,0.0,0.0,0.0,0.0,0.0,0.0,0.0,0.0,0.0,0.0,0.0,0.0,0.0,0.0,0.0,0.0,0.0,0.0,0.0,0.0,0.0,0.0,0.0,0.0,0.0,0.0,0.0,0.0,0.0,0.0,0.0,0.0,0.0,0.0,0.0,0.0,0.0,0.0,0.0,0.0,0.0,0.0,0.0,0.0,0.0,0.0,0.0,0.0,0.0,0.0,0.0,0.0,0.0,0.0,0.0,0.0,0.0,0.0,0.0,0.0,0.0,0.0,0.0,0.0,0.0,0.0,0.0,0.0,0.0,0.0,0.0,0.0,0.0,0.0,0.0,0.0,0.0,0.0,0.0,0.0,0.0,0.0,0.0,0.0,0.0,0.0,0.0,0.0,0.0,0.0,0.0,0.0,0.0,0.0,0.0,0.0,0.0,0.0,0.0,0.0,0.0,0.0,0.0,0.0,0.0,0.0,0.0,0.0,0.0,0.0,0.0,0.0,0.0,0.0,0.0,0.0,0.0,0.0,0.0,0.0,0.0,0.0,0.0,0.0,0.0,0.0,0.0,0.0,0.0,0.0,0.0,0.0,0.0,0.0,0.0,0.0,0.0,0.0,0.0,0.0,0.0,0.0,0.0,0.0,0.0,0.0,0.0,0.0,0.0,0.0,0.0,0.0,0.0,0.0,0.0,0.0,0.0,0.0,0.0,0.0,0.0,0.0,0.0,0.0,0.0,0.0,0.0,0.0,0.0,0.0,0.0,0.0,0.0,0.0,0.0,0.0,0.0,0.0,0.0,0.0,0.0,0.0,0.0,0.0,0.0,0.0,0.0,0.0,0.0,0.0,0.0,0.0,0.0,0.0,0.0,0.0,0.0,0.0,0.0,0.0,0.0,0.0,0.0,0.0,0.0,0.0,0.0,0.0,0.0,0.0,0.0,0.0,0.0,0.0,0.0,0.0,0.0,0.0,0.0,0.0,0.0,0.0,0.0,0.0,0.0,0.0,0.0,0.0,0.0,0.0,0.0,0.0,0.0,0.0,0.0,0.0,0.0,0.0,0.0,0.0,0.0,0.0,0.0,0.0,0.0,0.0,0.0,0.0,0.0,0.0,0.0,0.0,0.0,0.0,0.0,0.0,0.0,0.0,0.0,0.0,0.0,0.0,0.0,0.0,0.0,0.0,0.0,0.0,0.0,0.0,0.0,0.0,0.0,0.0,0.0,0.0,0.0,0.0,0.0,0.0,0.0,0.0,0.0,0.0,0.0,0.0,0.0,0.0,0.0,0.0,0.0,0.0,0.0,0.0,0.0,0.0,0.0,0.0,0.0,0.0,0.0,0.0,0.0,0.0,0.0,0.0,0.0,0.0,0.0,0.0,0.0,0.0,0.0,0.0,0.0,0.0,0.0,0.0,0.0,0.0,0.0,0.0,0.0,0.0,0.0,0.0,0.0,0.0,0.0,0.0,0.0,0.0,0.0,0.0,0.0,0.0,0.0,0.0,0.0,0.0,0.0,0.0,0.0,0.0,0.0,0.0,0.0,0.0,0.0,0.0,0.0,0.0,0.0,0.0,0.0,0.0,0.0,0.0,0.0,0.0,0.0,0.0,0.0,0.0,0.0,0.0,0.0,0.0,0.0,0.0,0.0,0.0,0.0,0.0,0.0,0.0,0.0,0.0,0.0,0.0,0.0,0.0,0.0,0.0,0.0,0.0,0.0,0.0,0.0,0.0,0.0,0.0,0.0,0.0,0.0,0.0,0.0,0.0,0.0,0.0,0.0,0.0,0.0,0.0,0.0,0.0,0.0,0.0,0.0,0.0,0.0,0.0,0.0,0.0,0.0,0.0,0.0,0.0,0.0,0.0,0.0,0.0,0.0,0.0,0.0,0.0,0.0,0.0,0.0,0.0,0.0,0.0,0.0,0.0,0.0,0.0,0.0,0.0,0.0,0.0,0.0,0.0,0.0,0.0,0.0,0.0,0.0,0.0,0.0,0.0,0.0,0.0,0.0,0.0,0.0,0.0,0.0,0.0,0.0,0.0,0.0,0.0,0.0,0.0,0.0,0.0,0.0,0.0,0.0,0.0,0.0,0.0,0.0,0.0,0.0,0.0,0.0,0.0,0.0,0.0,0.0,0.0,0.0,0.0,0.0,0.0,0.0,0.0,0.0,0.0,0.0,0.0,0.0,0.0,0.0,0.0,0.0,0.0,0.0,0.0,0.0,0.0,0.0,0.0,0.0,0.0,0.0,0.0,0.0,0.0,0.0,0.0,0.0,0.0,0.0,0.0,0.0,0.0,0.0,0.0,0.0,0.0,0.0,0.0,0.0,0.0,0.0,0.0,0.0,0.0,0.0,0.0,0.0,0.0,0.0,0.0,0.0,0.0,0.0,0.0,0.0,0.0,0.0,0.0,0.0,0.0,0.0,0.0,0.0,0.0,0.0,0.0,0.0,0.0,0.0,0.0,0.0,0.0,0.0,0.0,0.0,0.0,0.0,0.0,0.0,0.0,0.0,0.0,0.0,0.0,0.0,0.0,0.0,0.0,0.0,0.0,0.0,0.0,0.0,0.0,0.0,0.0,0.0,0.0,0.0,0.0,0.0,0.0,0.0,0.0,0.0,0.0,0.0,0.0,0.0,0.0,0.0,0.0,0.0,0.0,0.0,0.0,0.0,0.0,0.0,0.0,0.0,0.0,0.0,0.0,0.0,0.0,0.0,0.0,0.0,0.0,0.0,0.0,0.0,0.0,0.0,0.0,0.0,0.0,0.0,0.0,0.0,0.0,0.0,0.0,0.0,0.0,0.0,0.0,0.0,0.0,0.0,0.0,0.0,0.0,0.0,0.0,0.0,0.0,0.0,0.0,0.0,0.0,0.0,0.0,0.0,0.0,0.0,0.0,0.0,0.0,0.0,0.0,0.0,0.0,0.0,0.0,0.0,0.0,0.0,0.0,0.0,0.0,0.0,0.0,0.0,0.0,0.0,0.0,0.0,0.0,0.0,0.0,0.0,0.0,0.0,0.0,0.0,0.0,0.0,0.0,0.0,0.0,0.0,0.0,0.0,0.0,0.0,0.0,0.0,0.0,0.0,0.0,0.0,0.0,0.0,0.0,0.0,0.0,0.0,0.0,0.0,0.0,0.0,0.0,0.0,0.0,0.0,0.0,0.0,0.0,0.0,0.0,0.0,0.0,0.0,0.0,0.0,0.0,0.0,0.0,0.0,0.0,0.0,0.0,0.0,0.0,0.0,0.0,0.0,0.0,0.0,0.0,0.0,0.0,0.0,0.0,0.0,0.0,0.0,0.0,0.0,0.0,0.0,0.0,0.0,0.0,0.0,0.0,0.0,0.0,0.0,0.0,0.0,0.0,0.0,0.0,0.0,0.0,0.0,0.0,0.0,0.0,0.0,0.0,0.0,0.0,0.0,0.0,0.0,0.0,0.0,0.0,0.0,0.0,0.0,0.0,0.0,0.0,0.0,0.0,0.0,0.0,0.0,0.0,0.0,0.0,0.0,0.0,0.0,0.0,0.0,0.0,0.0,0.0,0.0,0.0,0.0,0.0,0.0,0.0,0.0,0.0,0.0,0.0,0.0,0.0,0.0,0.0,0.0,0.0,0.0,0.0,0.0,0.0,0.0,0.0,0.0,0.0,0.0,0.0,0.0,0.0,0.0,0.0,0.0,0.0,0.0,0.0,0.0,0.0,0.0,0.0,0.0,0.0,0.0,0.0,0.0,0.0,0.0,0.0,0.0,0.0,0.0,0.0,0.0,0.0,0.0,0.0,0.0,0.0,0.0,0.0,0.0,0.0,0.0,0.0,0.0,0.0,0.0,0.0,0.0,0.0,0.0,0.0,0.0,0.0,0.0,0.0,0.0,0.0,0.0,0.0,0.0,0.0,0.0,0.0,0.0,0.0,0.0,0.0,0.0,0.0,0.0,0.0,0.0,0.0,0.0,0.0,0.0,0.0,0.0,0.0,0.0,0.0,0.0,0.0,0.0,0.0,0.0,0.0,0.0,0.0,0.0,0.0,0.0,0.0,0.0,0.0,0.0,0.0,0.0,0.0,0.0,0.0,0.0,0.0,0.0,0.0,0.0,0.0,0.0,0.0,0.0,0.0,0.0,0.0,0.0,0.0,0.0,0.0,0.0,0.0,0.0,0.0,0.0,0.0,0.0,0.0,0.0,0.0,0.0,0.0,0.0,0.0,0.0,0.0,0.0,0.0,0.0,0.0,0.0,0.0,0.0,0.0,0.0,0.0,0.0,0.0,0.0,0.0,0.0,0.0,0.0,0.0,0.0,0.0,0.0,0.0,0.0,0.0,0.0,0.0,0.0,0.0,0.0,0.0,0.0,0.0,0.0,0.0,0.0,0.0,0.0,0.0,0.0,0.0,0.0,0.0,0.0,0.0,0.0,0.0,0.0,0.0,0.0,0.0,0.0,0.0,0.0,0.0,0.0,0.0,0.0,0.0,0.0,0.0,0.0,0.0,0.0,0.0,0.0,0.0,0.0,0.0,0.0,0.0,0.0,0.0,0.0,0.0,0.0,0.0,0.0,0.0,0.0,0.0,0.0,0.0,0.0,0.0,0.0,0.0,0.0,0.0,0.0,0.0,0.0,0.0,0.0,0.0,0.0,0.0,0.0,0.0,0.0,0.0,0.0,0.0,0.0,0.0,0.0,0.0,0.0,0.0,0.0,0.0,0.0,0.0,0.0,0.0,0.0,0.0,0.0,0.0,0.0,0.0,0.0,0.0,0.0,0.0,0.0,0.0,0.0,0.0,0.0,0.0,0.0,0.0,0.0,0.0,0.0,0.0,0.0,0.0,0.0,0.0,0.0,0.0,0.0,0.0,0.0,0.0,0.0,0.0,0.0,0.0,0.0,0.0,0.0,0.0,0.0,0.0,0.0,0.0,0.0,0.0,0.0,0.0,0.0,0.0,0.0,0.0,0.0,0.0,0.0,0.0,0.0,0.0,0.0,0.0,0.0,0.0,0.0,0.0,0.0,0.0,0.0,0.0,0.0,0.0,0.0,0.0,0.0,0.0,0.0,0.0,0.0,0.0,0.0,0.0,0.0,0.0,0.0,0.0,0.0,0.0,0.0,0.0,0.0,0.0,0.0,0.0,0.0,0.0,0.0,0.0,0.0,0.0,0.0,0.0,0.0,0.0,0.0,0.0,0.0,0.0,0.0,0.0,0.0,0.0,0.0,0.0,0.0,0.0,0.0,0.0,0.0,0.0,0.0,0.0,0.0,0.0,0.0,0.0,0.0,0.0,0.0,0.0,0.0,0.0,0.0,0.0,0.0,0.0,0.0,0.0,0.0,0.0,0.0,0.0,0.0,0.0,0.0,0.0,0.0,0.0,0.0,0.0,0.0,0.0,0.0,0.0,0.0,0.0,0.0,0.0,0.0,0.0,0.0,0.0,0.0,0.0,0.0,0.0,0.0,0.0,0.0,0.0,0.0,0.0,0.0,0.0,0.0,0.0,0.0,0.0,0.0,0.0,0.0,-3.8947,0.0,0.0,0.0,0.0,0.0,0.0,0.0,0.0,0.0,0.0,0.0,0.0,0.0,0.0,0.0,0.0,0.0,0.0,0.0,0.0,0.0,0.0,0.0,0.0,0.0,0.0,0.0,0.0,0.0,0.0,0.0,0.0,0.0,0.0,0.0,0.0,0.0,0.0,-4.329,-4.329,-4.329,-4.329,-4.329,-4.329,-4.329,0.0,0.0,0.0,0.0,0.0,0.0,0.0,0.0,0.0,0.0,0.0,0.0,0.0,0.0,0.0,0.0,0.0,0.0,0.0,0.0,0.0,0.0,0.0,0.0,0.0,0.0,0.0,0.0,0.0,0.0,0.0,0.0,0.0,0.0,0.0,0.0,0.0,0.0,0.0,0.0,0.0,0.0,0.0,0.0,0.0,0.0,0.0,0.0,0.0,0.0,0.0,0.0,0.0,0.0,0.0,0.0,0.0,0.0,0.0,0.0,0.0,0.0,0.0,0.0,0.0,0.0,0.0,0.0,0.0,0.0,0.0,-3.8923,0.0,0.0,0.0,0.0,0.0,0.0,0.0,0.0,0.0,0.0,0.0,0.0,0.0,0.0,0.0,0.0,0.0,0.0,0.0,0.0,0.0,0.0,0.0,0.0,-4.329,-4.329,-4.329,-4.329,0.0,0.0,0.0,0.0,0.0,0.0,-4.3469,-4.3469,-4.3469,-4.3469,-4.3349,-4.329,-4.329,-4.329,-4.329,-4.329,-4.329,0.0,0.0,0.0,0.0,0.0,0.0,0.0,0.0,0.0,0.0,0.0,0.0,0.0,0.0,0.0,0.0,0.0,0.0,0.0,0.0,0.0,0.0,0.0,0.0,0.0,0.0,0.0,0.0,0.0,0.0,0.0,0.0,0.0,0.0,0.0,0.0,0.0,0.0,0.0,0.0,0.0,0.0,0.0,0.0,0.0,0.0,0.0,0.0,0.0,0.0,0.0,0.0,0.0,0.0,0.0,0.0,0.0,0.0,0.0,0.0,0.0,0.0,0.0,-4.0389,-4.0415,-4.044,-4.0389,-4.0236,-4.0083,-3.9269,-3.8985,-3.8985,-3.9035,0.0,0.0,0.0,0.0,0.0,0.0,0.0,0.0,0.0,0.0,0.0,0.0,0.0,0.0,0.0,0.0,0.0,0.0,0.0,0.0,0.0,-4.329,-4.329,-4.329,-4.329,-4.329,-4.329,0.0,0.0,0.0,0.0,0.0,-4.4167,-4.4197,-4.4197,-4.4197,-4.3589,-4.329,-4.329,-4.329,-4.329,-4.329,-4.329,-4.329,-4.329,0.0,0.0,0.0,0.0,0.0,0.0,0.0,0.0,0.0,0.0,0.0,0.0,0.0,0.0,0.0,0.0,0.0,0.0,0.0,0.0,0.0,0.0,0.0,0.0,0.0,0.0,0.0,0.0,0.0,0.0,0.0,0.0,0.0,0.0,0.0,0.0,0.0,0.0,0.0,0.0,0.0,-3.7667,-3.8543,0.0,0.0,0.0,0.0,0.0,0.0,0.0,0.0,0.0,0.0,0.0,0.0,0.0,-4.0491,-4.0517,-4.0287,-4.0134,-4.0134,-3.9955,-3.9955,-4.0134,-3.9878,-3.9878,-4.0058,-3.9726,0.0,-3.9574,-3.9804,0.0,0.0,0.0,0.0,0.0,0.0,0.0,0.0,0.0,0.0,0.0,0.0,0.0,0.0,0.0,0.0,0.0,0.0,0.0,0.0,0.0,-4.286,-4.278,-4.325,-4.329,-4.329,-4.329,-4.329,0.0,0.0,0.0,-4.4197,-4.4855,-4.4496,-4.4137,-4.3738,-4.3439,-4.329,-4.329,-4.329,-4.329,-4.329,-4.329,-4.329,-4.329,-4.329,0.0,0.0,0.0,0.0,0.0,0.0,0.0,0.0,0.0,0.0,0.0,0.0,0.0,0.0,0.0,0.0,0.0,0.0,0.0,0.0,0.0,0.0,0.0,0.0,0.0,0.0,0.0,0.0,0.0,0.0,0.0,0.0,0.0,0.0,0.0,0.0,0.0,0.0,0.0,-3.7761,-3.7983,-3.8507,-3.8653,-3.8879,0.0,0.0,0.0,0.0,0.0,0.0,0.0,0.0,0.0,-4.0287,-4.0287,-4.0185,-4.0057,-3.9929,-3.9878,-3.9878,-3.9749,-3.9749,-3.9878,-3.9749,-3.9749,-3.9878,-3.9749,-3.9697,-3.9697,-3.9826,-3.98,-3.9697,0.0,0.0,0.0,0.0,-3.5388,-3.4078,0.0,0.0,0.0,0.0,0.0,0.0,0.0,0.0,0.0,0.0,0.0,0.0,-4.2386,-4.2252,-4.2252,-4.29,-4.317,-4.329,-4.329,-4.3439,-4.3768,-4.4287,-4.4466,-4.4885,-4.5544,-4.5095,-4.4586,-4.4067,-4.3888,-4.3798,-4.3798,-4.3798,-4.3798,-4.3798,-4.3798,-4.3618,-4.329,-4.329,-4.329,-4.329,0.0,0.0,0.0,0.0,0.0,0.0,0.0,0.0,0.0,0.0,0.0,0.0,0.0,0.0,0.0,0.0,0.0,0.0,0.0,0.0,0.0,0.0,0.0,0.0,0.0,0.0,0.0,0.0,0.0,0.0,0.0,0.0,0.0,0.0,0.0,0.0,0.0,-3.8316,-3.839,-3.8691,-3.879,-3.9042,0.0,0.0,0.0,0.0,0.0,0.0,-4.0389,-4.0338,-4.0185,-3.9981,-3.9981,-3.9878,-3.9697,-3.9697,-3.9697,-3.9697,-3.9697,-3.9697,-3.9697,-3.9697,-3.9697,-3.9697,-3.9697,-3.9697,-3.9697,-3.9697,-3.9697,-3.9697,-3.9697,-3.8425,-3.6619,-3.6619,-3.5168,-3.3161,0.0,0.0,0.0,0.0,0.0,0.0,0.0,0.0,0.0,0.0,0.0,-4.0603,-4.0731,-4.1519,-4.2046,-4.2058,-4.282,-4.329,-4.329,-4.3888,-4.4287,-4.4317,-4.4915,-4.5574,-4.6262,-4.619,-4.616,-4.613,-4.5514,-4.5185,-4.5185,-4.5185,-4.5185,-4.5185,-4.5185,-4.4496,-4.329,-4.329,-4.329,-4.3349,-4.4018,0.0,0.0,0.0,0.0,0.0,0.0,0.0,0.0,0.0,0.0,0.0,0.0,0.0,0.0,0.0,0.0,0.0,0.0,0.0,0.0,0.0,0.0,0.0,0.0,0.0,0.0,0.0,0.0,0.0,0.0,0.0,0.0,0.0,0.0,0.0,0.0,0.0,0.0,-3.9546,-3.9853,0.0,0.0,0.0,0.0,-4.0134,-4.0134,-4.0134,-4.0134,-3.9903,-3.9749,-3.9749,-3.9749,-3.9697,-3.9697,-3.9697,-3.9697,-3.9697,-3.9697,-3.9697,-3.9697,-3.9697,-3.9697,-3.9697,-3.9697,-3.9697,-3.9697,-3.9697,-3.9697,-3.9697,-3.9697,-3.8921,-3.7844,-3.7844,-3.6371,-3.4435,0.0,0.0,0.0,0.0,0.0,0.0,0.0,0.0,-3.8549,-3.9121,-3.9015,-3.9309,-4.0475,-4.0389,-4.0689,-4.1893,-4.2293,-4.2699,-4.325,-4.3958,-4.4496,-4.4915,-4.5603,-4.6082,-4.6279,-4.6279,-4.6112,-4.5663,-4.5424,-4.5304,-4.5304,-4.5304,-4.5304,-4.5304,-4.5304,-4.5035,-4.4586,-4.4586,-4.4586,-4.4616,-4.4855,-4.4945,0.0,0.0,0.0,0.0,0.0,0.0,0.0,0.0,0.0,0.0,0.0,0.0,0.0,0.0,0.0,0.0,0.0,0.0,0.0,0.0,0.0,0.0,0.0,0.0,0.0,0.0,0.0,0.0,0.0,0.0,0.0,0.0,0.0,0.0,0.0,0.0,0.0,-3.9672,-3.98,0.0,-3.9697,-3.9852,-3.9955,-3.9826,-3.9826,-3.9826,-3.9826,-3.9749,-3.9697,-3.9697,-3.9697,-3.9697,-3.9697,-3.9697,-3.9697,-3.9697,-3.9697,-3.9697,-3.9697,-3.9697,-3.9697,-3.9697,-3.9697,-3.9898,-4.0224,-4.0224,-4.0023,-3.9697,-3.9697,-3.8973,-3.7897,-3.7897,-3.7122,-3.6138,0.0,0.0,0.0,0.0,0.0,0.0,0.0,0.0,-3.8103,-3.8684,-3.8285,-3.8376,-3.9546,-3.9387,-3.9694,-4.0944,-4.1645,-4.2339,-4.3146,-4.4094,-4.4945,-4.5603,-4.6292,-4.6651,-4.6651,-4.6651,-4.6441,-4.5963,-4.5963,-4.5963,-4.5963,-4.5963,-4.5963,-4.5963,-4.5963,-4.5963,-4.5963,-4.5963,-4.5693,-4.5304,-4.5544,-4.5633,-4.5723,0.0,0.0,0.0,0.0,0.0,0.0,0.0,0.0,0.0,0.0,0.0,0.0,0.0,0.0,0.0,0.0,0.0,0.0,0.0,0.0,0.0,0.0,0.0,0.0,0.0,0.0,0.0,0.0,0.0,0.0,0.0,0.0,0.0,0.0,-3.9697,-3.9697,-3.9697,-3.9697,-3.9697,-3.9697,-3.9697,-3.9697,-3.9697,-3.9697,-3.9697,-3.9697,-3.9697,-3.9772,-3.9973,-3.9973,-4.0074,-4.0249,-4.0249,-4.0249,-4.0249,-4.0249,-4.0249,-4.0249,-4.0249,-4.0249,-4.0249,-4.0249,-4.045,-4.0802,-4.0802,-4.0576,-4.0249,-4.0249,-3.9516,-3.8532,-3.8931,-3.8316,-3.7307,0.0,0.0,0.0,0.0,0.0,0.0,0.0,-3.79,-3.79,-3.79,-3.79,-3.79,-3.79,-3.8639,-3.9166,-3.921,-4.0901,-4.2266,-4.2947,-4.446,-4.5603,-4.6279,-4.695,-4.7309,-4.7309,-4.7309,-4.7309,-4.7309,-4.7309,-4.7309,-4.7309,-4.7309,-4.7309,-4.7309,-4.7309,-4.7309,-4.7309,-4.7309,-4.6561,-4.5424,-4.6082,-4.6309,-4.6369,0.0,0.0,0.0,0.0,0.0,0.0,0.0,0.0,0.0,0.0,0.0,0.0,0.0,0.0,0.0,0.0,0.0,0.0,0.0,0.0,0.0,0.0,0.0,0.0,0.0,0.0,0.0,0.0,0.0,0.0,0.0,0.0,0.0,-3.9697,-3.9697,-3.9697,-3.9697,-3.9697,-3.9697,-3.9697,-3.9697,-3.9697,-3.9697,-3.9722,-3.9722,-3.9722,-3.9747,-3.9998,-4.0526,-4.0551,-4.0802,-4.1275,-4.1275,-4.1275,-4.1275,-4.1275,-4.1275,-4.1275,-4.1275,-4.1275,-4.1275,-4.1275,-4.13,-4.13,-4.13,-4.1326,-4.1326,-4.13,-4.0656,-3.9788,-4.0873,-3.9946,-3.803,0.0,0.0,0.0,0.0,0.0,0.0,0.0,-3.79,-3.79,-3.79,-3.79,-3.79,-3.79,-3.8103,-3.8504,-3.9166,-4.0303,-4.1567,-4.2905,-4.446,-4.5813,-4.698,-4.7219,-4.7309,-4.7309,-4.7309,-4.7309,-4.7309,-4.7309,-4.7309,-4.7309,-4.7309,-4.7309,-4.7309,-4.7309,-4.7309,-4.7309,-4.7309,-4.71,-4.677,-4.695,-4.704,-4.707,0.0,0.0,0.0,0.0,0.0,0.0,0.0,0.0,0.0,0.0,0.0,0.0,0.0,0.0,0.0,0.0,0.0,0.0,0.0,0.0,0.0,0.0,0.0,0.0,0.0,0.0,0.0,0.0,0.0,0.0,0.0,-3.9697,-3.9697,-3.9697,-3.9697,-3.9697,-3.9697,-3.9697,-3.9697,-3.9697,-3.9697,-3.9697,-3.9697,-4.0074,-4.03,-4.03,-4.0676,-4.0953,-4.105,-4.1075,-4.1125,-4.1275,-4.1275,-4.1275,-4.1275,-4.1275,-4.1275,-4.1275,-4.1275,-4.1275,-4.1275,-4.1275,-4.1555,-4.1932,-4.1932,-4.2158,-4.2459,-4.1601,-4.1114,-4.0873,-4.1168,-4.1201,-4.1078,0.0,0.0,0.0,0.0,0.0,0.0,0.0,-3.79,-3.79,-3.79,-3.79,-3.79,-3.79,-3.79,-3.8103,-3.8594,-3.9475,-4.0839,-4.2725,-4.4899,-4.6501,-4.7279,-4.7309,-4.7309,-4.7309,-4.7309,-4.7309,-4.7309,-4.7309,-4.7309,-4.7309,-4.7309,-4.7309,-4.7309,-4.7309,-4.7309,-4.7309,-4.7309,-4.7309,-4.7309,-4.7309,-4.7309,-4.7309,-4.7309,-4.7309,-4.7309,-4.7309,-4.7309,-4.7266,-4.6814,0.0,0.0,0.0,0.0,0.0,0.0,0.0,0.0,0.0,0.0,0.0,0.0,0.0,0.0,0.0,0.0,0.0,0.0,0.0,0.0,0.0,0.0,0.0,0.0,-3.9697,-3.9697,-3.9697,-3.9697,-3.9697,-3.9697,-3.9697,-3.9697,-3.9697,-3.9898,-4.0049,-4.0049,-4.0551,-4.0852,-4.0852,-4.1125,-4.1401,-4.1681,-4.1681,-4.1781,-4.2032,-4.2032,-4.2032,-4.2032,-4.2032,-4.2032,-4.2032,-4.2032,-4.2032,-4.2032,-4.2032,-4.2208,-4.2564,-4.2564,-4.274,0.0,0.0,0.0,0.0,0.0,-4.2233,-4.264,0.0,0.0,0.0,0.0,0.0,0.0,0.0,-3.79,-3.79,-3.79,-3.79,-3.79,-3.79,-3.79,-3.79,-3.79,-3.8729,-4.0216,-4.258,-4.5449,-4.7089,-4.7309,-4.7309,-4.7309,-4.7309,-4.7309,-4.7309,-4.7309,-4.7309,-4.7309,-4.7309,-4.7309,-4.7309,-4.7309,-4.7309,-4.7309,-4.7309,-4.7309,-4.7309,-4.7309,-4.7309,-4.7309,-4.7309,-4.7309,-4.7309,-4.7309,-4.7309,-4.7266,-4.7106,-4.6211,0.0,0.0,0.0,0.0,0.0,0.0,0.0,0.0,0.0,0.0,0.0,0.0,0.0,0.0,0.0,0.0,0.0,0.0,0.0,0.0,0.0,0.0,0.0,0.0,-3.9697,-3.9722,-3.9772,-3.9798,-3.9772,-3.9697,-3.9747,-3.9798,-3.9798,-4.03,-4.0601,-4.0601,-4.1075,-4.1376,-4.1376,0.0,0.0,0.0,0.0,-4.2539,-4.2961,-4.2986,-4.2986,-4.2986,-4.2986,-4.2986,-4.2986,-4.2986,-4.2986,-4.2986,-4.2986,-4.3011,-4.3062,-4.3062,-4.3112,-4.3162,-4.3087,-4.3062,-4.3087,-4.3137,-4.3162,-4.3237,0.0,0.0,0.0,0.0,0.0,0.0,0.0,-3.79,-3.79,-3.79,-3.79,-3.79,-3.79,-3.79,-3.79,-3.79,-3.8729,-4.0454,-4.3445,-4.472,-4.5946,-4.7236,-4.7309,-4.7309,-4.7309,-4.7309,-4.7309,-4.7309,-4.7309,-4.7309,-4.7309,-4.7309,-4.7309,-4.7309,-4.7309,-4.7309,-4.7309,-4.7309,-4.7309,-4.7309,-4.7309,-4.7309,-4.7309,-4.7309,-4.7309,-4.7309,-4.7309,-4.7149,-4.6975,-4.6726,-4.5434,-4.3787,-4.3409,-4.2159,0.0,0.0,0.0,0.0,0.0,0.0,0.0,0.0,0.0,0.0,0.0,0.0,0.0,0.0,0.0,0.0,0.0,0.0,0.0,-3.9697,-3.9697,-3.9848,-4.03,-4.035,-4.0199,-3.9747,-4.0099,-4.035,-4.035,-4.0852,-4.1125,-4.1125,-4.1681,-4.2062,-4.2062,-4.2409,-4.271,-4.2811,-4.2866,-4.2861,-4.2986,-4.2986,-4.2986,-4.2986,0.0,0.0,-4.2986,-4.2986,-4.2986,-4.2986,-4.2986,-4.3237,-4.3639,-4.3639,-4.3915,-4.4267,-4.3815,-4.3639,-4.3689,-4.4141,-4.4292,-4.4317,0.0,0.0,0.0,0.0,0.0,0.0,0.0,-3.79,-3.79,-3.79,-3.79,-3.79,-3.79,-3.79,-3.79,-3.79,-3.8996,-4.0364,-4.1924,-4.3832,-4.5259,-4.6049,-4.6883,-4.7309,-4.7309,-4.7309,-4.7309,-4.7309,-4.7309,-4.7309,-4.7309,-4.7309,-4.7309,-4.7309,-4.7309,-4.7309,-4.7309,-4.7309,-4.7309,-4.7309,-4.7309,-4.7309,-4.7309,-4.7309,-4.7309,-4.7309,-4.7309,-4.7222,-4.6931,-4.5779,-4.4535,-4.3313,-4.2181,-4.1095,-4.0287,0.0,0.0,0.0,0.0,0.0,0.0,0.0,0.0,0.0,0.0,0.0,0.0,0.0,0.0,-3.9697,-3.9697,0.0,-3.9798,-4.0074,-4.0099,-4.03,-4.0799,-4.0874,-4.0774,-4.0551,-4.0752,-4.0874,-4.0874,-4.143,-4.1756,-4.1756,-4.2258,-4.2615,-4.2615,-4.2836,-4.2986,-4.2986,-4.3237,-4.3388,-4.3388,-4.3664,-4.379,-4.379,-4.379,-4.379,-4.379,-4.379,-4.379,-4.379,-4.379,-4.3966,-4.4217,-4.4217,-4.4367,-4.4618,-4.4644,-4.4468,-4.4242,-4.4518,-4.4618,-4.4669,0.0,0.0,0.0,0.0,0.0,0.0,0.0,-3.79,-3.79,-3.79,-3.79,-3.79,-3.79,-3.79,-3.79,-3.79,-3.9047,-3.9888,-4.0178,-4.2705,-4.4307,-4.46,-4.6153,-4.7019,-4.7019,-4.7222,-4.7309,-4.7309,-4.7309,-4.7309,-4.7309,-4.7309,-4.7309,-4.7309,-4.7309,-4.7309,-4.7309,-4.7309,-4.7309,-4.7309,-4.7309,-4.7309,-4.7309,-4.7309,-4.7309,-4.7266,-4.7062,-4.6975,-4.6638,-4.461,-4.3598,-4.2882,-4.0995,-4.0262,-4.0134,-4.0287,-4.0185,0.0,0.0,0.0,0.0,0.0,0.0,0.0,0.0,-3.9697,-3.9697,-3.9697,-3.9697,-3.9722,-3.9848,-3.9848,-4.0023,-4.0601,-4.0676,-4.0877,-4.143,-4.1505,-4.153,-4.1656,-4.1555,-4.1505,-4.1505,-4.1982,-4.2363,-4.2363,-4.2791,-4.2986,-4.2986,-4.3087,-4.3137,-4.3137,-4.3664,-4.3966,-4.3966,-4.4392,-4.4618,-4.4618,-4.4618,-4.4618,-4.4618,-4.4618,-4.4618,-4.4644,-4.4744,-4.4794,-4.4794,-4.4895,-4.4945,-4.4995,-4.5472,-4.5372,-4.4945,-4.4945,-4.4945,-4.502,0.0,0.0,0.0,0.0,0.0,0.0,0.0,0.0,-3.79,-3.79,-3.79,-3.79,-3.79,-3.79,-3.79,-3.79,-3.8044,-3.8713,-4.0106,-4.1032,-4.2113,-4.3511,-4.5117,-4.5958,-4.5958,-4.6844,-4.7309,-4.7309,-4.7309,-4.7309,-4.7309,-4.7309,-4.7309,-4.7309,-4.7309,-4.7309,-4.7309,-4.7309,-4.7309,-4.7309,-4.7309,-4.7309,-4.7309,-4.7309,-4.7309,-4.7149,-4.6299,-4.5824,-4.5463,-4.4284,-4.3129,-4.2061,-4.1617,-4.0844,-4.0083,-3.9852,-3.9749,-3.9749,-3.98,-3.9749,-3.9697,-3.9697,-3.9697,-3.9697,0.0,-3.9697,-3.9697,-3.9697,-3.9697,-3.9848,-4.0325,-4.0425,-4.0601,-4.11,-4.12,-4.143,-4.2037,-4.2112,-4.2313,-4.2735,-4.2414,-4.2112,-4.2112,-4.2615,-4.2886,-4.2886,-4.2936,-4.2986,-4.2986,-4.3438,-4.3714,-4.3714,-4.4242,-4.4543,-4.4543,-4.4593,-4.4618,-4.4618,-4.4618,-4.4618,-4.4618,-4.4618,-4.4618,-4.4644,-4.5171,-4.5397,-4.5422,-4.5924,-4.6125,-4.6125,-4.62,-4.6175,-4.6125,-4.6125,-4.6125,-4.6125,0.0,0.0,0.0,0.0,0.0,0.0,0.0,0.0,0.0,-3.79,-3.79,-3.79,-3.79,-3.79,-3.79,-3.79,-3.79,-3.8162,-3.8812,-3.9914,-4.1032,-4.2021,-4.355,-4.4562,-4.4886,-4.5943,-4.6432,-4.6432,-4.7019,-4.7309,-4.7309,-4.7309,-4.7309,-4.7309,-4.7309,-4.7309,-4.7309,-4.7309,-4.7309,-4.7266,-4.6638,-4.6432,-4.6344,-4.5763,-4.5463,-4.5343,-4.5689,-4.5372,0.0,-4.3245,-4.2425,-4.1815,-4.0794,-4.0211,-3.9878,-3.9929,-3.9826,-3.9697,-3.9697,-3.9697,-3.9697,-3.9697,-3.9697,-3.9697,-3.9697,-3.9697,-3.9798,-4.0099,-4.0174,-4.035,-4.0902,-4.1003,-4.1178,-4.1731,-4.1806,-4.2007,-4.2615,-4.269,-4.2766,-4.2961,-4.2816,-4.269,-4.269,-4.2836,-4.2986,-4.2986,-4.2986,-4.3112,-4.3438,-4.3689,-4.394,-4.4267,-4.4819,-4.5121,-4.5121,-4.5447,-4.5598,-4.5598,-4.5598,-4.5598,-4.5598,-4.5598,-4.5598,-4.5623,-4.5874,-4.5974,-4.5974,-4.6225,-4.6301,-4.6301,-4.6301,-4.6301,-4.6301,-4.6301,-4.6301,-4.6301,0.0,0.0,0.0,0.0,0.0,0.0,0.0,0.0,0.0,0.0,-3.7762,-3.79,-3.79,-3.79,-3.79,-3.79,-3.79,-3.79,-3.79,-3.9062,-3.9957,-4.0387,-4.2067,-4.3213,-4.3612,-4.4783,-4.5372,-4.5372,-4.6417,-4.6887,-4.6887,-4.7149,-4.7309,-4.7309,-4.7309,-4.7309,-4.7266,-4.7019,-4.6887,-4.677,-4.5779,-4.5372,-4.5326,-4.4499,-4.3956,-4.3693,-4.4563,-4.4331,-4.3484,-4.2133,-4.1667,-4.1369,-4.0287,-3.9852,-3.9826,-3.9929,-3.9826,-3.9697,-3.9697,-3.9697,-3.9697,-3.9697,-3.9697,-3.9747,-3.9898,-3.9923,-4.0074,-4.0626,-4.0752,-4.0796,-4.1022,-4.0988,-4.1106,-4.1292,-4.1391,-4.1538,-4.1931,-4.2263,-4.2457,-4.2457,-4.2793,-4.2986,-4.2986,-4.2986,-4.2986,-4.2986,-4.3112,-4.3388,-4.379,-4.4091,-4.4443,-4.4844,-4.5422,-4.5723,-4.5723,-4.6125,-4.6301,-4.6301,-4.6301,-4.6301,-4.6301,-4.6301,-4.6401,-4.6552,-4.6552,-4.6627,-4.6753,-4.6753,-4.6753,-4.6753,-4.6753,-4.6753,-4.6753,-4.6753,-4.6552,-4.6301,0.0,0.0,0.0,0.0,0.0,0.0,0.0,0.0,0.0,0.0,0.0,0.0,0.0,-3.79,-3.79,-3.79,-3.79,-3.79,-3.79,-3.8423,-3.8757,-3.8783,-4.0831,-4.1944,-4.1971,-4.3537,-4.4359,-4.4359,-4.5372,-4.5824,-4.5869,-4.6844,-4.7309,-4.7309,-4.7309,-4.7309,-4.7266,-4.6255,-4.5824,-4.5734,-4.4776,-4.4359,-4.4312,-4.4022,-4.3484,-4.2792,-4.2598,-4.2355,-4.1936,-4.1222,-4.0744,-4.0542,-4.0517,-4.0287,-4.0032,-3.98,-3.9697,-3.9697,-3.9697,-3.9697,-3.9697,-3.9697,-3.9697,-3.9848,-4.0375,-4.0501,-4.0651,-4.115,-4.125,-4.1076,-4.0466,-4.0339,-4.0111,-3.9417,-3.9311,-3.9311,-3.9334,-4.0384,-4.1157,-4.1157,-4.2263,-4.2986,0.0,-4.2986,-4.2986,-4.2986,-4.3463,-4.379,-4.379,-4.4844,-4.5447,-4.5472,-4.5999,-4.6276,-4.6276,-4.6301,-4.6301,-4.6301,-4.6301,-4.6301,-4.6301,-4.6301,-4.6602,-4.7043,-4.7043,-4.738,-4.7857,-4.7857,-4.7857,-4.7857,-4.7857,-4.7857,-4.7857,-4.7857,-4.7205,-4.6301,0.0,0.0,0.0,0.0,0.0,0.0,0.0,0.0,0.0,0.0,0.0,0.0,0.0,0.0,0.0,0.0,-3.79,-3.79,-3.79,-3.8083,-3.8344,-3.8684,-3.9406,-3.9965,-4.0389,-4.1924,-4.2716,-4.2716,-4.4116,-4.4823,-4.4823,-4.5144,-4.5281,-4.5281,-4.5281,-4.5281,-4.5281,-4.4961,-4.4823,-4.473,-4.3701,-4.3321,-4.3225,-4.2479,-4.1792,-4.1272,0.0,-4.1222,-4.1246,-4.0971,-4.0593,-4.0236,-4.0236,-4.0032,-3.9826,-3.9749,-3.9697,-3.9697,-3.9697,-3.9697,-3.9697,-3.9697,-3.9973,-4.03,-4.0475,-4.0802,-4.1229,-4.1781,-4.1882,-4.1703,-4.0967,-4.0836,-4.0483,-3.937,-3.9216,-3.9216,-3.9216,-4.0268,-4.11,-4.11,-4.2206,0.0,0.0,0.0,0.0,-4.3514,-4.4041,-4.4518,-4.4895,-4.5271,-4.5648,-4.6024,-4.6225,-4.6301,-4.6301,-4.6301,-4.6502,-4.6853,-4.7205,-4.738,-4.738,-4.738,-4.7481,-4.7657,-4.7657,-4.7732,-4.7908,-4.7908,-4.7908,-4.7908,-4.7908,-4.7908,-4.7908,-4.7908,-4.7682,-4.738,0.0,0.0,0.0,0.0,0.0,0.0,0.0,0.0,0.0,0.0,0.0,0.0,0.0,0.0,0.0,0.0,0.0,-3.79,-3.79,-3.79,-3.8057,-3.8397,-3.8606,-3.8893,-3.9285,-4.0478,-4.1105,-4.1105,-4.2669,-4.3462,-4.3462,-4.4013,-4.4312,-4.4312,-4.4312,-4.4312,-4.4266,-4.3937,-4.3748,-4.3701,-4.2674,-4.2284,-4.2186,-4.1448,-4.0946,0.0,-4.0542,-4.0542,-4.0618,-4.0618,-4.0338,-3.9981,-4.0083,-3.9929,-3.9697,-3.9697,-3.9697,-3.9697,-3.9697,-3.9697,-3.9747,-3.9948,-4.0249,-4.0626,-4.1003,-4.1379,-4.1672,-4.1756,-4.1799,-4.1394,-4.0024,-3.9721,-3.9334,-3.8029,-3.785,-3.785,-3.785,-3.8921,-3.9791,-3.9977,-4.1538,-4.2839,0.0,-4.3978,0.0,-4.4116,-4.4618,-4.5095,-4.5472,-4.5673,-4.5949,-4.6301,-4.6301,-4.6401,-4.6602,-4.6602,-4.6878,-4.7405,-4.7757,-4.7908,-4.7908,-4.7908,-4.8033,-4.8209,-4.8209,-4.8335,-4.851,-4.851,-4.851,-4.851,-4.851,-4.851,-4.851,-4.851,-4.851,-4.846,0.0,0.0,0.0,0.0,0.0,0.0,0.0,0.0,0.0,0.0,0.0,0.0,0.0,0.0,0.0,0.0,0.0,0.0,-3.7854,-3.7854,-3.7854,-3.79,-3.8397,-3.8658,-3.8658,-3.9259,-3.9573,-3.9573,-4.1031,-4.1775,-4.1822,-4.3369,-4.4116,-4.4116,-4.4144,-4.4172,-4.4078,-4.3129,-4.2744,-4.2647,-4.167,-4.1274,-4.1274,-4.0997,-4.087,-4.0846,-4.0542,-4.0287,-4.0083,-4.0134,-3.9929,-3.9749,-3.9981,-3.9878,-3.9697,-3.9697,-3.9697,-3.9697,-3.9697,-3.9722,-3.9848,-4.0375,-4.0551,-4.0877,-4.1961,-4.2183,-4.1947,-4.1233,-4.1043,-4.0268,-3.7768,-3.7309,-3.6885,-3.5603,-3.5418,-3.5438,-3.5459,-3.6524,-3.7527,-3.8008,-4.0297,-4.2075,-4.2604,-4.4235,-4.5094,-4.4627,0.0,-4.5522,-4.5522,-4.6024,-4.6301,-4.6301,-4.6326,-4.6602,-4.7129,-4.7179,-4.7456,-4.7958,-4.7983,-4.7983,-4.7983,-4.7983,-4.8284,-4.8812,-4.8812,-4.9113,-4.959,-4.959,-4.959,-4.959,-4.959,-4.959,-4.959,-4.959,-4.959,-4.9439,0.0,0.0,0.0,0.0,0.0,0.0,0.0,0.0,0.0,0.0,0.0,0.0,0.0,0.0,0.0,0.0,0.0,0.0,-3.7015,-3.7015,-3.7248,-3.7854,-3.8031,-3.8109,-3.8109,-3.8658,-3.8945,-3.8945,-3.9759,-4.0192,-4.0192,-4.1037,-4.1373,-4.1399,-4.1852,-4.2065,-4.2065,-4.1769,-4.167,-4.1647,-4.1398,-4.1147,-4.0997,-4.0946,-4.0643,-4.0287,-4.0236,-4.0032,-3.9826,-4.0236,-4.0236,-3.9981,-3.9826,-3.9749,-3.9697,-3.9697,-3.9697,-3.9697,-3.9697,-3.9998,-4.035,-4.0475,-4.1128,-4.1861,-4.2137,-4.1768,-4.1331,-4.1133,-4.035,-3.9216,-3.761,-3.7309,-3.6885,-3.5603,-3.5418,-3.5542,-3.5894,-3.7015,-3.8029,-3.8448,-3.9937,-4.1546,-4.3035,-4.2753,-4.3004,-4.4269,-4.5434,-4.61,-4.61,-4.6225,-4.6301,-4.6301,-4.6702,-4.6943,-4.7068,-4.7933,-4.841,-4.856,-4.8962,-4.9163,-4.9163,-4.9163,-4.9238,-4.9389,-4.9389,-4.9464,-4.959,-4.959,-4.959,-4.959,-4.959,-4.959,-4.959,-4.959,-4.959,-4.9565,0.0,0.0,0.0,0.0,0.0,0.0,0.0,0.0,0.0,0.0,0.0,0.0,0.0,0.0,0.0,0.0,0.0,0.0,0.0,-3.6521,-3.6922,-3.7366,-3.7366,-3.7551,-3.79,-3.8187,-3.837,-3.837,-3.8919,-3.9207,-3.9233,-3.9782,-4.02,-4.0435,-4.0775,-4.1063,-4.1324,-4.1324,-4.1324,0.0,0.0,-4.1147,-4.0896,-4.0896,-4.0593,-4.0083,-4.0083,-3.9929,-3.9749,-4.0057,-4.0032,-3.9878,-3.9749,-3.9697,-3.9697,-3.9697,-3.9697,-3.9747,-3.9998,-4.0275,-4.0626,-4.1103,-4.176,-4.2098,-4.1824,-4.142,-4.0813,-3.9663,-3.8839,-3.797,-3.6724,-3.6481,-3.6237,-3.5541,-3.5583,-3.5811,-3.608,-3.6897,-3.7613,-3.8103,-3.933,-4.0638,-4.189,-4.185,-4.2217,-4.3271,-4.4645,-4.5403,-4.5403,-4.5974,-4.6426,-4.6652,-4.6979,-4.7355,-4.7857,-4.8711,-4.9138,-4.9138,-4.9439,-4.959,-4.959,-4.959,-4.9267,-4.8632,-4.9332,-4.9242,-4.8698,-4.9307,-4.959,-4.9525,-4.8918,-4.9047,-4.9525,-4.8853,-4.9047,-4.9525,0.0,0.0,0.0,0.0,0.0,0.0,0.0,0.0,0.0,0.0,0.0,0.0,0.0,0.0,0.0,0.0,0.0,0.0,0.0,0.0,-3.6427,-3.6568,-3.6568,-3.6922,-3.7716,-3.7762,-3.7808,-3.79,-3.837,-3.8606,-3.8632,-3.9207,-3.973,-4.02,-4.0357,-4.0697,-4.1193,-4.1272,-4.1324,-4.1324,-4.1274,-4.1097,-4.0846,0.0,-4.0262,-3.9801,-3.9647,-3.944,-3.9258,-3.9413,-3.9594,-3.9697,-3.9697,-3.9697,-3.9697,-3.9697,-3.9747,-3.9898,-4.0375,-4.052,-4.0739,-4.1688,-4.1853,-4.1639,-4.1004,-4.0755,-3.9978,-3.7768,-3.7231,-3.681,-3.5686,-3.5562,-3.5604,-3.5604,-3.5935,-3.6225,-3.6287,-3.6639,-3.7074,-3.7529,-3.8636,-3.954,-4.0148,-4.1075,-4.1756,-4.1884,-4.3044,-4.3941,-4.4312,-4.566,-4.6702,-4.733,-4.7355,-4.7832,-4.8862,-4.9364,-4.959,-4.959,-4.959,-4.9525,-4.9332,-4.9332,-4.8502,-4.7202,-4.8436,-4.8371,-4.7491,-4.8567,-4.9112,-4.9177,-4.7689,-4.8019,-4.9112,-4.7887,-4.824,-4.9112,0.0,0.0,0.0,0.0,0.0,0.0,0.0,0.0,0.0,0.0,-3.3469,-3.3793,0.0,0.0,0.0,0.0,0.0,0.0,0.0,0.0,0.0,-3.5763,-3.581,-3.6143,-3.6922,-3.6922,-3.7201,-3.79,-3.8004,-3.8057,-3.8057,-3.8606,-3.8919,-3.905,-3.9991,-4.0461,-4.0592,-4.1115,-4.1324,-4.1274,-4.1047,-4.0795,-4.044,-3.9235,0.0,0.0,-3.721,-3.6834,-3.6942,-3.7897,-3.8868,-3.9697,-3.9697,-3.9697,-3.9697,-3.9697,-4.0023,-4.04,-4.0501,-4.0454,-4.0369,-4.0595,-4.0164,-3.9686,-3.9545,-3.8721,-3.7828,-3.7369,-3.6801,-3.6227,-3.5997,-3.6308,-3.6556,-3.6556,-3.6639,-3.6825,-3.7198,-3.7322,-3.755,-3.8005,-3.8246,-3.8906,-4.0062,-3.9386,-3.9386,-4.0452,-4.0775,-4.1906,-4.4189,-4.597,-4.7456,-4.846,-4.8485,-4.8786,-4.9439,-4.954,-4.959,-4.959,-4.959,-4.8983,-4.7755,-4.7755,-4.7003,-4.5571,-4.5864,0.0,-4.7335,-4.6335,-4.667,-4.7623,-4.6201,-4.6469,-4.7755,-4.7491,-4.7557,-4.7755,0.0,0.0,0.0,0.0,0.0,0.0,0.0,-3.3292,-3.3292,-3.3292,-3.3292,-3.3419,-3.3793,-3.3843,-3.3843,0.0,0.0,0.0,0.0,0.0,0.0,0.0,-3.4969,-3.5331,-3.6096,-3.6143,-3.6332,-3.6687,0.0,-3.6687,-3.6687,-3.6988,-3.7457,-3.817,-3.8994,-3.9535,-3.9844,-4.0863,-4.0618,-3.9545,-3.9879,-3.939,-3.84,0.0,0.0,0.0,-3.6402,-3.6185,-3.6294,-3.6834,-3.7394,-3.8003,-3.8607,-3.9206,-3.9594,-3.8921,-3.9132,-3.9545,-3.9839,-3.965,-3.939,-3.9672,-3.9442,-3.9039,-3.8387,-3.773,-3.7127,-3.642,-3.6206,-3.6121,-3.6121,-3.6494,-3.6804,-3.6804,-3.7011,-3.7239,-3.7467,-3.7695,-3.7943,-3.815,-3.8191,-3.8437,-3.9078,-3.857,-3.8437,-3.9144,-4.0061,-4.1477,-4.3592,-4.6423,-4.8234,-4.8761,-4.8308,-4.8166,-4.8436,-4.8436,-4.8436,-4.8436,-4.8436,-4.8084,-4.7359,-4.6603,-4.5458,-4.4183,-4.4914,-4.5187,-4.5187,-4.5187,-4.5661,-4.6133,-4.4641,-4.4983,-4.6201,-4.5458,-4.5661,-4.6133,0.0,0.0,0.0,0.0,0.0,0.0,0.0,-3.3292,-3.3292,-3.3292,-3.3292,-3.3292,-3.3292,-3.3292,-3.3292,0.0,0.0,0.0,0.0,0.0,0.0,0.0,0.0,0.0,-3.5331,0.0,0.0,-3.5619,-3.5619,0.0,0.0,0.0,0.0,0.0,-3.7859,-3.8364,-3.8868,-4.0057,-3.9545,0.0,0.0,-3.7849,0.0,0.0,0.0,0.0,0.0,-3.5443,-3.5498,-3.5749,-3.5827,-3.5968,-3.6911,-3.8003,-3.8788,-3.791,-3.8024,-3.8547,-3.907,-3.8687,-3.8245,-3.8712,-3.8566,-3.8089,-3.7127,-3.6885,-3.6624,-3.5728,-3.5935,-3.6287,-3.639,-3.6784,-3.7094,-3.7094,-3.7405,-3.7653,-3.7653,-3.7964,-3.8191,-3.8191,-3.8191,-3.8191,-3.8191,-3.8191,-3.8191,-3.8191,-3.9987,-4.1772,-4.3303,-4.6239,-4.7893,-4.8016,-4.734,-4.6936,-4.6936,-4.6936,-4.6936,-4.6936,-4.6936,-4.6736,-4.6469,-4.5255,-4.3954,-4.2678,-4.3816,-4.3816,-4.3167,-4.3954,-4.4436,-4.4641,-4.3145,-4.3492,-4.4641,-4.3492,-4.3769,-4.4573,0.0,0.0,0.0,0.0,0.0,0.0,0.0,-3.3292,-3.3292,-3.3292,-3.3292,-3.3292,-3.3292,-3.3292,-3.3292,0.0,0.0,0.0,0.0,0.0,0.0,0.0,0.0,0.0,0.0,0.0,0.0,-3.5619,-3.5619,0.0,0.0,0.0,0.0,0.0,0.0,-3.7369,-3.7417,-3.7962,0.0,0.0,0.0,0.0,0.0,0.0,0.0,0.0,0.0,-3.2991,-3.3161,-3.4323,-3.4636,-3.4692,-3.4803,-3.5608,-3.6549,-3.6925,-3.7353,-3.7917,-3.8367,-3.7938,-3.7424,-3.7467,-3.6603,-3.5726,-3.5603,-3.5603,-3.5666,-3.5956,-3.6411,-3.6867,-3.7281,-3.7736,-3.8067,-3.8067,-3.8088,-3.8129,-3.8129,-3.815,-3.8191,-3.8191,-3.8191,-3.8191,-3.8191,-3.8191,-3.8191,-3.8191,-4.0354,-4.2415,-4.4203,-4.4628,-4.5039,-4.5501,-4.5412,-4.5368,-4.5368,-4.5368,-4.5368,-4.5368,-4.5368,-4.4709,-4.3514,-4.3375,-4.2468,-4.1096,-4.1218,-4.1975,0.0,-4.1785,-4.2046,-4.3167,-4.1714,-4.1975,-4.3306,-4.3167,-4.3167,-4.3306,0.0,0.0,0.0,0.0,0.0,0.0,-3.3292,-3.3292,-3.3292,-3.3292,-3.3292,-3.3292,-3.3292,-3.3292,-3.3292,-3.3292,0.0,0.0,0.0,0.0,0.0,0.0,0.0,0.0,0.0,0.0,-3.3892,-3.4237,-3.4237,0.0,0.0,0.0,0.0,0.0,0.0,-3.6464,-3.6485,-3.7469,0.0,0.0,0.0,0.0,0.0,0.0,0.0,0.0,0.0,0.0,-3.2784,-3.3275,-3.3445,-3.3445,-3.3445,-3.3955,-3.4701,-3.5555,-3.6204,-3.6693,-3.7125,-3.672,-3.6197,-3.6197,-3.5767,-3.5418,-3.5418,-3.5418,-3.5562,-3.6018,-3.6473,-3.6949,-3.7405,-3.7881,-3.8191,-3.8191,-3.8191,-3.8191,-3.8191,-3.8191,-3.8191,-3.8191,-3.8191,-3.8191,-3.8191,-3.8191,-3.8419,-3.8957,-3.9857,-4.0912,-4.2193,-4.3938,-4.4958,-4.5164,-4.4367,-4.3976,-4.3976,-4.3976,-4.3976,-4.3976,-4.3976,-4.3631,-4.3097,-4.2208,-4.1431,-4.0882,-4.0882,-4.1218,0.0,-4.1147,-4.1218,-4.1714,-4.1147,-4.1218,-4.1785,-4.1785,-4.1785,-4.1785,0.0,0.0,0.0,0.0,0.0,-3.3292,-3.3292,-3.3292,-3.3292,-3.3292,-3.3292,-3.3292,-3.3292,-3.3292,-3.3292,-3.3292,-3.3292,0.0,0.0,0.0,0.0,0.0,0.0,0.0,0.0,0.0,-3.3292,-3.3292,-3.3292,-3.3292,0.0,0.0,-3.3568,-3.4113,0.0,0.0,0.0,0.0,0.0,0.0,0.0,0.0,0.0,0.0,0.0,0.0,0.0,0.0,0.0,0.0,0.0,-3.2669,-3.2669,-3.3037,-3.3564,-3.456,-3.5156,-3.5591,-3.6063,-3.5781,-3.5418,-3.5418,-3.5418,-3.5418,-3.5418,-3.5521,-3.5749,-3.6225,-3.668,-3.7156,-3.7612,-3.7964,-3.8191,-3.8191,-3.8191,-3.8191,-3.8191,-3.8191,-3.8191,-3.8191,-3.8191,-3.8191,-3.8191,-3.8316,-3.8709,-3.9406,-3.9592,-4.0075,-4.0841,-4.2866,-4.3954,-4.3954,-4.2936,-4.2468,-4.2468,-4.2468,-4.2468,-4.2468,-4.2468,-4.2468,-4.2398,-4.136,-4.0882,-4.0882,-4.0882,-4.0882,0.0,-4.0882,-4.0882,-4.0882,-4.0882,-4.0882,-4.0882,-4.0882,-4.0882,-4.0882,0.0,0.0,0.0,0.0,0.0,0.0,-3.3292,-3.3292,-3.3292,-3.3292,-3.3292,-3.3292,-3.3292,-3.3292,-3.3292,-3.3292,-3.3292,0.0,0.0,0.0,0.0,0.0,0.0,0.0,0.0,0.0,-3.3292,-3.3292,-3.3292,-3.3292,-3.3292,-3.3292,-3.3292,-3.3388,0.0,0.0,0.0,0.0,0.0,0.0,0.0,0.0,0.0,0.0,0.0,0.0,0.0,0.0,0.0,0.0,0.0,0.0,0.0,-3.3037,-3.3472,-3.3986,-3.4443,-3.492,-3.5293,-3.5418,-3.5418,-3.5418,-3.5418,-3.5418,-3.5418,-3.5769,-3.6246,-3.6701,-3.7177,-3.7632,-3.8088,-3.8171,-3.8191,-3.8191,-3.8191,-3.8191,-3.8191,-3.8191,-3.8191,-3.8191,-3.8191,-3.8191,-3.8191,-3.8585,-3.8972,-3.9426,-3.9902,0.0,-4.0841,-4.0954,-4.0954,-4.0954,-4.0954,-4.0954,-4.0954,-4.0954,-4.0954,-4.0954,-4.0954,-4.0954,-4.0954,-4.0882,-4.0882,-4.0882,-4.0882,-4.0882,0.0,-4.0882,-4.0882,-4.0882,-4.0882,-4.0882,-4.0882,-4.0882,-4.0882,-4.0882,0.0,0.0,0.0,0.0,0.0,0.0,0.0,-3.3499,-3.3292,-3.3292,-3.3292,-3.3292,-3.3292,-3.3292,-3.3292,-3.3292,-3.3292,0.0,0.0,0.0,0.0,0.0,0.0,0.0,0.0,0.0,-3.3292,-3.3292,-3.2896,-3.2672,-3.2672,-3.2672,-3.2672,-3.274,-3.3756,-3.4102,0.0,0.0,0.0,0.0,0.0,0.0,0.0,0.0,0.0,0.0,0.0,0.0,0.0,0.0,0.0,0.0,0.0,0.0,0.0,-3.4463,-3.4712,-3.492,-3.5293,-3.5418,-3.5418,-3.5418,-3.5418,-3.5418,-3.5418,-3.5769,-3.6246,-3.6701,-3.7177,-3.7632,-3.8088,-3.8191,-3.8191,-3.8191,-3.8191,-3.8191,-3.8191,-3.8191,-3.8191,-3.8191,-3.8191,-3.8191,-3.8191,-3.8585,-3.8972,-3.9426,-3.9902,-4.0406,-4.0841,-4.0882,-4.0882,-4.0882,-4.0882,-4.0882,-4.0882,-4.0882,-4.0882,-4.0882,-4.0882,-4.0882,-4.0882,-4.0882,-4.0882,-4.0882,-4.0882,-4.0882,-4.0882,-4.0882,-4.0882,-4.0882,-4.0882,-4.0882,-4.0882,-4.0882,-4.0882,-4.0882,0.0,0.0,0.0,0.0,0.0,0.0,0.0,-3.3866,-3.3545,-3.3545,-3.3407,-3.3292,-3.3292,-3.2919,-3.2645,-3.2645,-3.2167,0.0,0.0,0.0,0.0,0.0,0.0,0.0,-3.2015,-3.2015,-3.1964,-3.1863,-3.1483,-3.1513,-3.1891,-3.1891,-3.2205,-3.2683,-3.3511,-3.3768,0.0,0.0,0.0,0.0,0.0,0.0,-3.2669,0.0,0.0,0.0,0.0,0.0,0.0,0.0,0.0,0.0,0.0,0.0,0.0,0.0,-3.4879,-3.5066,-3.5355,-3.5418,-3.5418,-3.5418,-3.5418,-3.5418,-3.5418,-3.5914,-3.6453,-3.6742,-3.7301,-3.7839,-3.8129,-3.8191,-3.8191,-3.8191,-3.8191,-3.8191,-3.8191,-3.8191,-3.8191,-3.8191,-3.8191,-3.8191,-3.8191,-3.875,-3.9158,-3.9447,-4.0116,-4.0593,-4.0862,-4.0882,-4.0882,-4.0882,-4.0882,-4.0882,-4.0882,-4.0882,-4.0882,-4.0882,-4.0882,-4.0882,-4.0882,-4.0882,-4.0882,-4.0882,-4.0882,-4.0882,0.0,-4.0882,-4.0882,-4.0882,-4.0882,-4.0882,-4.0882,-4.0882,-4.0882,-4.0882,0.0,0.0,0.0,0.0,0.0,0.0,0.0,-3.4395,-3.405,-3.405,-3.3586,-3.3238,-3.3238,-3.219,-3.1483,-3.1483,0.0,0.0,0.0,0.0,0.0,0.0,0.0,0.0,-2.9859,-2.9859,-2.9702,-2.9472,-2.942,-2.9911,-3.0897,-3.0918,-3.1611,-3.2819,-3.3351,-3.3323,-3.2775,0.0,0.0,0.0,-3.2669,-3.2669,0.0,0.0,0.0,0.0,0.0,0.0,0.0,0.0,0.0,0.0,0.0,0.0,0.0,0.0,0.0,0.0,0.0,-3.5418,-3.5418,-3.5418,-3.5418,-3.5438,-3.5459,-3.6163,0.0,-3.6846,-3.757,-3.8191,-3.8191,-3.8191,-3.8191,-3.8191,-3.8191,-3.8191,-3.8191,-3.8191,-3.8191,-3.8233,-3.8212,-3.8212,-3.8274,-3.904,-3.9488,-3.9578,-4.0386,-4.0882,-4.0882,-4.0882,-4.0882,-4.0882,-4.0882,-4.0882,-4.0882,-4.0882,-4.0882,-4.0882,-4.0882,-4.0882,-4.0882,-4.0882,-4.0882,0.0,-4.0882,-4.0882,-4.0882,-4.0882,-4.0882,-4.0882,-4.0882,-4.0882,-4.0882,-4.0882,-4.0811,-4.074,0.0,0.0,0.0,0.0,0.0,0.0,0.0,0.0,0.0,0.0,-3.342,-3.2517,-3.2517,-3.1184,-3.0276,0.0,0.0,0.0,0.0,0.0,0.0,0.0,0.0,0.0,-2.9597,-2.9347,-2.9189,-2.9137,-2.8681,-2.8648,-2.8913,-2.918,-2.9507,-2.9863,-3.0596,-3.122,-3.1721,-3.2379,0.0,0.0,-3.2669,-3.2669,0.0,0.0,0.0,0.0,-3.2669,-3.2669,0.0,0.0,0.0,0.0,0.0,0.0,0.0,0.0,-3.5335,-3.5418,-3.5418,0.0,-3.5418,-3.5418,-3.5418,-3.5521,0.0,-3.639,-3.6908,-3.726,-3.7798,-3.8191,-3.8191,-3.8191,-3.8191,-3.8191,-3.8191,-3.8191,-3.8191,-3.8191,-3.8316,-3.8647,-3.8398,-3.846,-3.9144,-3.9344,-3.9682,-4.0034,-4.0572,-4.0882,-4.0882,-4.0882,-4.0882,-4.0882,-4.0882,-4.0882,-4.0882,-4.0882,-4.0882,-4.0882,-4.0882,-4.0882,-4.0882,-4.0882,-4.0882,-4.0882,-4.0882,-4.0882,-4.0882,-4.0882,-4.0882,-4.0882,-4.0882,-4.074,-4.0453,-4.0453,-4.0238,-4.0002,0.0,0.0,0.0,0.0,0.0,0.0,0.0,0.0,0.0,0.0,0.0,0.0,0.0,0.0,0.0,0.0,0.0,0.0,0.0,0.0,0.0,0.0,0.0,-2.7902,-2.7741,-2.758,-2.74,-2.7292,-2.6987,-2.7189,-2.7867,-2.8077,-2.8622,-2.9361,-2.9756,-3.0238,-3.0704,-3.1189,-3.1652,-3.1998,-3.1594,0.0,0.0,0.0,0.0,0.0,-3.2669,-3.2669,0.0,-3.2954,-3.3182,-3.3492,0.0,0.0,0.0,0.0,-3.5418,-3.5418,-3.5418,-3.5418,-3.5418,-3.5418,-3.5418,-3.5542,-3.5997,-3.6473,-3.6929,-3.7405,-3.786,-3.8191,-3.8191,-3.8191,-3.8191,-3.8191,-3.8191,-3.8191,-3.8191,-3.8357,-3.8502,-3.8543,-3.8709,-3.8916,-3.9117,-3.953,-3.9951,-4.022,-4.0634,-4.0882,-4.0882,-4.0882,-4.0882,-4.0882,-4.0882,-4.0882,-4.0882,-4.0882,-4.0882,-4.0882,-4.0882,-4.0882,-4.0882,-4.0882,-4.0882,-4.0882,-4.0882,-4.0882,-4.0882,-4.0882,-4.0882,-4.0882,-4.0882,-4.0668,-4.031,-4.031,-4.0022,-3.9714,0.0,0.0,0.0,0.0,0.0,0.0,0.0,0.0,0.0,0.0,0.0,0.0,0.0,0.0,0.0,0.0,0.0,0.0,0.0,0.0,0.0,0.0,-2.5789,-2.5844,-2.5624,-2.5569,-2.5404,-2.5128,-2.518,-2.5909,-2.7197,-2.727,-2.8126,-2.9584,-2.9655,-2.9707,-2.9707,-2.9825,-3.0353,-3.0995,-3.0236,0.0,0.0,0.0,0.0,0.0,0.0,0.0,0.0,-3.2991,-3.3314,-3.3637,-3.4305,0.0,0.0,0.0,0.0,0.0,-3.5418,-3.5418,-3.5418,-3.5418,-3.548,-3.5645,-3.6121,-3.6577,-3.7032,-3.7508,-3.7922,-3.8191,-3.8191,-3.8191,-3.8191,-3.8191,-3.8191,-3.8191,-3.8191,-3.8502,-3.8647,-3.8419,-3.9019,-3.9302,-3.9117,-3.9806,-4.0261,-4.0323,-4.0675,-4.0882,-4.0882,-4.0882,-4.0882,-4.0882,-4.0882,-4.0882,-4.0882,-4.0882,-4.0882,-4.0882,-4.0882,-4.0882,-4.0882,-4.0882,-4.0882,-4.0882,-4.0882,0.0,-4.0882,-4.0882,-4.0882,-4.0882,-4.0882,-4.0596,-4.0238,-4.0238,-3.995,-3.9498,0.0,0.0,0.0,0.0,0.0,0.0,0.0,0.0,0.0,0.0,0.0,0.0,0.0,0.0,0.0,0.0,0.0,0.0,0.0,0.0,0.0,-2.4979,-2.5183,-2.5331,-2.5276,-2.5034,-2.4923,-2.4868,-2.5177,-2.5479,-2.5757,-2.636,-2.6957,-2.7572,-2.8343,-2.8719,-2.8778,-2.9589,-3.0001,-3.0119,-2.9943,0.0,0.0,0.0,0.0,0.0,0.0,0.0,0.0,-3.1997,-3.2989,-3.3932,-3.3537,0.0,0.0,0.0,0.0,0.0,-3.5418,-3.5418,-3.5418,-3.5418,-3.5707,-3.6121,-3.6597,-3.7053,-3.7529,-3.7984,-3.8129,-3.8191,-3.8191,-3.8191,-3.8191,-3.8191,-3.8191,-3.8191,-3.8191,-3.8253,-3.8543,-3.9247,-3.9034,-3.9371,-4.0468,-4.0365,-4.0386,-4.0737,-4.0841,-4.0882,-4.0882,-4.0882,-4.0882,-4.0882,-4.0882,-4.0882,-4.0882,-4.0882,-4.0882,-4.0882,-4.0882,-4.0882,-4.0882,-4.0882,-4.0882,-4.0882,0.0,-4.0882,-4.0882,-4.0882,-4.0882,-4.0882,-4.0882,-4.0433,-3.9786,-3.9786,-3.9353,-3.8793,0.0,0.0,0.0,0.0,0.0,0.0,0.0,0.0,0.0,0.0,0.0,0.0,0.0,0.0,0.0,0.0,0.0,0.0,0.0,0.0,-2.5696,-2.5429,-2.5525,-2.5375,-2.4979,-2.5057,-2.5121,-2.5121,-2.5497,-2.5771,-2.5994,-2.6542,-2.6902,-2.7133,-2.7539,-2.802,-2.848,-2.8421,-2.8938,-2.9825,0.0,0.0,0.0,0.0,0.0,0.0,0.0,0.0,0.0,0.0,-3.2412,-3.3518,-3.2969,0.0,0.0,0.0,0.0,0.0,-3.5418,-3.5418,-3.5418,-3.5418,-3.5769,-3.6225,-3.6701,-3.7156,-3.7632,-3.8088,-3.8191,-3.8191,-3.8191,-3.8191,-3.8191,-3.8191,-3.8191,-3.8191,-3.8191,-3.8398,-3.8709,-3.9055,-3.9344,-3.9847,-4.0468,-4.0551,-4.0655,-4.0862,-4.0882,-4.0882,-4.0882,-4.0882,-4.0882,-4.0882,-4.0882,-4.0882,-4.0882,-4.0882,-4.0882,-4.0882,-4.0882,-4.0882,-4.0882,-4.0882,-4.0882,-4.0882,0.0,-4.0882,-4.0882,-4.0882,-4.074,-4.0596,-4.0596,-4.0094,-3.9373,-3.9228,-3.8865,-3.8574,0.0,0.0,0.0,0.0,0.0,0.0,0.0,0.0,0.0,0.0,0.0,0.0,0.0,0.0,0.0,0.0,0.0,0.0,0.0,-2.6232,-2.5885,-2.5885,-2.5885,-2.5611,-2.5086,-2.536,-2.5497,-2.5497,-2.5874,-2.6251,-2.6628,-2.6936,-2.7073,-2.7073,-2.7073,-2.7478,-2.8122,-2.7435,-2.796,-2.9116,0.0,0.0,0.0,0.0,0.0,0.0,0.0,0.0,0.0,0.0,0.0,0.0,0.0,0.0,0.0,-3.4047,-3.4423,-3.5108,-3.5356,-3.5418,-3.5438,-3.5562,-3.5935,-3.637,-3.6722,-3.7239,-3.7757,-3.8109,-3.8191,-3.8191,-3.8191,-3.8191,-3.8191,-3.8191,-3.8191,-3.8191,-3.8191,-3.8564,-3.8827,-3.8931,-3.9744,-4.0261,-4.0365,-4.0675,-4.0882,-4.0882,-4.0882,-4.0882,-4.0882,-4.0882,-4.0882,-4.0882,-4.0882,-4.0882,-4.0882,-4.0882,-4.0882,-4.0882,-4.0882,-4.0882,-4.0882,-4.0882,-4.0882,-4.0882,-4.0882,-4.0882,-4.074,-4.074,-4.0596,-4.031,-4.0166,-3.9734,-3.9176,-3.872,-3.8574,-3.8574,0.0,0.0,0.0,0.0,0.0,0.0,0.0,0.0,0.0,0.0,0.0,0.0,0.0,0.0,0.0,0.0,0.0,0.0,0.0,-2.6099,-2.5885,-2.5885,-2.5885,-2.585,-2.5799,-2.5833,-2.5833,-2.5833,-2.6268,-2.6645,-2.7039,-2.7056,-2.7073,-2.7073,-2.7073,-2.7133,-2.7194,-2.7133,-2.7194,-2.7315,-2.7133,0.0,0.0,0.0,0.0,0.0,0.0,0.0,0.0,0.0,0.0,0.0,0.0,0.0,-3.2765,-3.367,-3.3922,-3.4235,-3.517,-3.5418,-3.5521,-3.5956,-3.6411,-3.6763,-3.6804,-3.7488,-3.815,-3.8171,-3.8191,-3.8191,-3.8191,-3.8191,-3.8191,-3.8191,-3.8191,-3.8191,-3.8191,-3.8564,-3.8931,-3.9364,-3.986,-4.0386,-4.08,-4.0862,-4.0882,-4.0882,-4.0882,-4.0882,-4.0882,-4.0882,-4.0882,-4.0882,-4.0882,-4.0882,-4.0882,-4.0882,-4.0882,-4.0882,-4.0882,-4.0882,-4.0882,-4.0882,-4.0882,-4.0882,-4.0882,-4.0668,-4.031,-4.031,-4.031,-4.0238,-3.9858,-3.9518,-3.9176,-3.872,-3.8574,-3.8574,0.0,0.0,0.0,0.0,0.0,0.0,0.0,0.0,0.0,0.0,0.0,0.0,0.0,0.0,0.0,0.0,0.0,0.0,0.0,-2.6806,-2.6645,-2.6645,-2.6645,-2.6645,-2.6645,-2.6405,-2.6285,-2.6285,-2.6662,-2.6936,-2.7073,-2.7073,-2.7073,-2.7073,-2.7073,-2.7418,-2.796,-2.7375,-2.7435,-2.79,-2.7315,-2.7073,0.0,0.0,0.0,0.0,0.0,0.0,0.0,0.0,-3.0127,-3.0966,-3.016,-3.1037,-3.2447,-3.2829,-3.3398,-3.411,-3.5108,-3.5418,-3.5542,-3.5997,-3.6453,-3.6887,-3.7177,-3.7736,-3.8191,-3.8191,-3.8191,-3.8191,-3.8191,-3.8191,-3.8191,-3.8191,-3.8191,-3.8191,-3.8191,-3.8564,-3.8951,-3.9406,-3.9881,-4.0406,-4.082,-4.0882,-4.0882,-4.0882,-4.0882,-4.0882,-4.0882,-4.0882,-4.0882,-4.0882,-4.0882,-4.0882,-4.0882,-4.0882,-4.0882,-4.0882,-4.0882,-4.0882,-4.0882,-4.0882,-4.074,-4.0525,-4.0811,-4.0668,-4.031,-4.031,-4.031,-4.0238,-3.959,-3.9156,-3.8812,-3.8647,-3.8574,-3.8574,0.0,0.0,0.0,0.0,0.0,0.0,0.0,0.0,0.0,0.0,0.0,0.0,0.0,0.0,0.0,0.0,0.0,0.0,-2.7401,-2.7177,-2.7073,-2.7073,-2.7073,-2.7073,-2.7073,-2.6816,-2.6679,-2.6679,-2.6936,-2.7073,-2.7073,-2.7073,-2.7073,-2.7073,-2.7073,-2.7496,-2.802,-2.7375,-2.7478,-2.802,-2.7375,-2.7073,0.0,0.0,0.0,0.0,0.0,0.0,0.0,0.0,-2.9565,-3.0213,-2.9495,-3.026,-3.1552,-3.2192,-3.2638,-3.3209,-3.4548,-3.5024,-3.5248,-3.5761,-3.6424,-3.7136,-3.7612,-3.7964,-3.8191,-3.8191,-3.8191,-3.8191,-3.8191,-3.8191,-3.8191,-3.8191,-3.8191,-3.8233,-3.8378,-3.8771,-3.9179,-3.9702,-4.0158,-4.0551,-4.0841,-4.0882,-4.0882,-4.0882,-4.0882,-4.0882,-4.0882,-4.0882,-4.0882,-4.0882,-4.0882,-4.0882,-4.0882,-4.0882,-4.0882,-4.0882,-4.0882,-4.0882,-4.0882,-4.074,-4.0596,-4.0525,-4.0525,-4.0382,-4.0094,-4.0022,-3.9878,-3.9734,-3.9321,-3.8958,-3.8574,-3.8574,-3.8574,-3.8574,0.0,0.0,0.0,0.0,0.0,0.0,0.0,0.0,0.0,0.0,0.0,0.0,0.0,0.0,0.0,0.0,0.0,0.0,-2.7133,-2.7073,-2.7073,-2.7073,-2.7073,-2.7073,-2.7073,-2.7073,-2.7073,-2.7073,-2.7073,-2.7073,-2.7073,-2.7073,-2.7073,-2.7073,-2.7073,-2.7073,-2.7073,-2.7073,-2.7073,-2.7073,-2.7073,-2.7073,-2.7124,0.0,0.0,0.0,0.0,0.0,0.0,0.0,-2.9316,-2.9316,-2.9316,-2.9316,-2.9691,-3.1809,-3.168,-3.1295,-3.3355,-3.4239,-3.4739,-3.5221,-3.642,-3.7612,-3.8088,-3.8191,-3.8191,-3.8191,-3.8191,-3.8191,-3.8191,-3.8191,-3.8191,-3.8191,-3.8191,-3.8336,-3.8724,-3.9179,-3.9633,-4.0179,-4.0613,-4.0882,-4.0882,-4.0882,-4.0882,-4.0882,-4.0882,-4.0882,-4.0882,-4.0882,-4.0882,-4.0882,-4.0882,-4.0882,-4.0882,-4.0882,-4.0882,-4.0882,-4.0882,-4.0882,-4.0882,-4.0453,-4.0525,-4.0811,-4.0074,-3.9714,-3.9642,-3.9321,-3.8958,-3.8647,-3.903,-3.8958,-3.8574,-3.8574,-3.8574,-3.8574,0.0,0.0,0.0,0.0,0.0,0.0,0.0,0.0,0.0,0.0,0.0,0.0,0.0,0.0,0.0,0.0,0.0,0.0,-2.7133,-2.7073,-2.7073,-2.7073,-2.7073,-2.7073,-2.7073,-2.7073,-2.7073,-2.7073,-2.7073,-2.7073,-2.7073,-2.7073,-2.7073,-2.7073,-2.7073,-2.7073,-2.7073,-2.7073,-2.7073,-2.7073,-2.7073,-2.7227,-2.7467,0.0,0.0,0.0,0.0,0.0,0.0,0.0,0.0,0.0,-2.9316,-2.9757,-3.0473,-3.1102,-3.2065,-3.3082,-3.3733,-3.4745,-3.5781,-3.6231,-3.6941,-3.7612,-3.8088,-3.8191,-3.8191,-3.8191,-3.8191,-3.8191,-3.8191,-3.8191,-3.8191,-3.8191,-3.8191,-3.8336,-3.8724,-3.9179,-3.9633,-4.0179,-4.0613,-4.0882,-4.0882,-4.0882,-4.0882,-4.0882,-4.0882,-4.0882,-4.0882,-4.0882,-4.0882,-4.0882,-4.0882,-4.0882,-4.0882,-4.0882,-4.0882,-4.0882,-4.0882,-4.074,-4.0453,-4.0668,-4.0382,-3.9734,-4.0022,-3.9806,-3.9373,-3.9518,-3.9156,-3.8647,-3.903,-3.8958,-3.8574,-3.8574,-3.8574,-3.8574,0.0,0.0,0.0,0.0,0.0,0.0,0.0,0.0,0.0,0.0,-2.939,-2.8874,0.0,0.0,0.0,0.0,0.0,0.0,0.0,-2.7659,-2.7478,-2.7133,-2.7073,-2.7073,-2.7073,-2.7073,-2.7073,-2.7073,-2.7073,-2.7073,-2.7073,-2.7073,-2.7073,-2.7073,-2.7073,-2.7073,-2.7073,-2.7073,-2.7158,-2.7278,-2.7278,-2.7501,-2.786,0.0,0.0,0.0,0.0,0.0,0.0,0.0,0.0,0.0,-2.9316,-2.9691,-3.0343,-3.1166,-3.2001,-3.2867,-3.3887,-3.4943,-3.5898,-3.6347,-3.7164,-3.7839,-3.8129,-3.8191,-3.8191,-3.8191,-3.8191,-3.8191,-3.8191,-3.8191,-3.8191,-3.8191,-3.8336,-3.8605,-3.8993,-3.9447,-3.9972,-4.0427,-4.0717,-4.0882,-4.0882,-4.0882,-4.0882,-4.0882,-4.0882,-4.0882,-4.0882,-4.0882,-4.0882,-4.0882,-4.0882,-4.0882,-4.0882,-4.0882,-4.0882,-4.0882,-4.0882,-4.0668,-4.031,-4.0382,-4.0022,-3.9445,-3.9734,-3.9518,-3.8958,-3.9156,-3.8991,-3.8647,-3.8885,-3.8793,-3.8574,-3.8574,-3.8574,-3.8574,0.0,0.0,0.0,0.0,0.0,0.0,0.0,0.0,0.0,0.0,-2.945,-2.939,0.0,0.0,0.0,0.0,0.0,0.0,0.0,0.0,-2.802,-2.7133,-2.7073,-2.7073,-2.7073,-2.7073,-2.7073,-2.7073,-2.7073,-2.7073,-2.7073,-2.7073,-2.7073,-2.7073,-2.7073,-2.7073,-2.7073,-2.7107,-2.7313,-2.7604,-2.7638,-2.7895,-2.8289,-2.8648,0.0,0.0,0.0,0.0,0.0,0.0,0.0,0.0,-2.9316,-2.9382,-2.9822,-3.1616,-3.157,-3.1506,-3.3817,-3.4913,-3.548,-3.603,-3.7156,-3.8191,-3.8191,-3.8191,-3.8191,-3.8191,-3.8191,-3.8191,-3.8191,-3.8191,-3.8191,-3.8191,-3.8564,-3.8951,-3.9406,-3.993,-4.0386,-4.082,-4.0882,-4.0882,-4.0882,-4.0882,-4.0882,-4.0882,-4.0882,-4.0882,-4.0882,-4.0882,-4.0882,-4.0882,-4.0882,-4.0882,-4.0882,-4.0882,-4.0882,-4.0882,-4.0882,-4.0668,-4.031,-3.993,-3.9786,-3.9714,-3.9301,-3.8958,-3.8574,-3.8574,-3.8574,-3.8574,-3.8574,-3.8574,-3.8574,-3.8574,-3.8574,-3.8574,0.0,0.0,0.0,0.0,0.0,0.0,0.0,0.0,0.0,0.0,0.0,0.0,0.0,0.0,0.0,0.0,0.0,0.0,0.0,0.0,-2.7315,-2.7133,-2.7073,-2.7073,-2.7073,-2.7073,-2.7073,-2.7073,-2.7073,-2.7073,-2.7073,-2.7073,-2.7073,-2.7073,-2.7073,-2.7073,-2.709,-2.7381,-2.7535,-2.7638,-2.7946,-2.8306,-2.8665,-2.8751,-2.8956,0.0,0.0,0.0,0.0,0.0,0.0,0.0,-2.9316,-2.9822,-3.0408,-3.0083,-3.1125,-3.2571,-3.3249,-3.4544,-3.5944,-3.6922,-3.7707,-3.8191,-3.8191,-3.8191,-3.8191,-3.8191,-3.8191,-3.8191,-3.8191,-3.8191,-3.8191,-3.8191,-3.8564,-3.8951,-3.9406,-3.993,-4.0386,-4.082,-4.0882,-4.0882,-4.0882,-4.0882,-4.0882,-4.0882,-4.0882,-4.0882,-4.0882,-4.0882,-4.0882,-4.0882,-4.0882,-4.0882,-4.0882,-4.0882,-4.0882,-4.0882,-4.0882,-4.0668,-4.031,-4.0525,-4.0289,-3.9642,-3.9011,-3.8647,-3.8574,-3.8574,-3.8574,-3.8574,-3.8574,-3.8574,-3.8574,-3.8574,-3.8574,-3.8574,0.0,0.0,0.0,0.0,0.0,0.0,0.0,0.0,0.0,0.0,0.0,0.0,0.0,0.0,0.0,0.0,0.0,0.0,0.0,0.0,-2.8241,-2.7779,-2.7375,-2.7073,-2.7073,-2.7073,-2.7073,-2.7073,-2.7073,-2.7073,-2.7073,-2.7073,-2.7073,-2.709,-2.7261,-2.733,-2.7347,-2.7723,-2.7997,-2.8186,-2.8391,-2.87,-2.9107,-2.9543,-2.986,-3.0083,-3.0584,0.0,0.0,0.0,0.0,0.0,0.0,0.0,-3.0083,-3.0018,-3.1247,-3.2865,-3.3914,-3.521,-3.6521,-3.7583,-3.8005,-3.8191,-3.8191,-3.8191,-3.8191,-3.8191,-3.8191,-3.8191,-3.8191,-3.8191,-3.8191,-3.8191,-3.875,-3.9199,-3.9447,-4.0116,-4.0634,-4.0841,-4.0882,-4.0882,-4.0882,-4.0882,-4.0882,-4.0882,-4.0882,-4.0882,-4.0882,-4.0882,-4.0882,-4.0882,-4.0882,-4.0882,-4.0882,-4.0882,-4.0882,-4.0882,-4.0882,-4.0811,-4.0596,-4.0453,-4.0022,-3.9445,-3.9011,-3.8793,-3.8574,-3.8574,-3.8574,-3.8574,-3.8574,-3.8574,-3.8574,-3.8574,-3.8574,-3.8574,0.0,0.0,0.0,0.0,0.0,0.0,0.0,0.0,0.0,0.0,0.0,0.0,0.0,0.0,0.0,0.0,0.0,0.0,0.0,0.0,0.0,-2.8778,-2.7719,-2.7194,-2.7375,-2.7194,-2.7073,-2.7073,-2.7073,-2.7073,-2.7073,-2.7073,-2.7107,-2.7176,-2.7467,-2.7638,-2.7723,-2.8134,-2.8604,-2.9025,-2.9094,-2.9431,-2.9952,-3.0779,-3.0972,-3.0908,-3.1809,-3.1552,-3.0797,-3.0797,0.0,0.0,0.0,0.0,-2.9495,-3.0473,-3.1534,-3.2808,-3.4733,-3.6176,-3.7218,-3.8005,-3.8191,-3.8191,-3.8191,-3.8191,-3.8191,-3.8191,-3.8191,-3.8191,-3.8191,-3.8191,-3.8212,-3.8295,-3.8999,-3.9488,-3.9571,-4.0365,-4.0882,-4.0882,-4.0882,-4.0882,-4.0882,-4.0882,-4.0882,-4.0882,-4.0882,-4.0882,-4.0882,-4.0882,-4.0882,-4.0882,-4.0882,-4.0882,-4.0882,-4.0719,-4.0576,-4.0576,-4.0361,-4.0289,-4.0289,-3.9478,-3.9136,-3.9248,-3.9176,-3.8885,-3.8574,-3.8574,-3.8574,-3.8574,-3.8574,-3.8574,-3.8574,-3.8574,-3.8574,-3.8574,0.0,0.0,0.0,0.0,0.0,0.0,0.0,0.0,0.0,0.0,-3.1285,-3.1594,0.0,0.0,0.0,0.0,0.0,0.0,-2.9707,0.0,0.0,-2.9707,-2.802,-2.7478,-2.8301,-2.7539,-2.7073,-2.7073,-2.7073,-2.7073,-2.7073,-2.7073,-2.7244,-2.7535,-2.7586,-2.7792,-2.8134,-2.8528,-2.9229,-3.0112,-3.0452,-3.113,-3.2001,-3.2128,-3.1616,-3.0797,-3.0972,-3.0908,-3.0797,-3.0797,-3.0732,0.0,0.0,0.0,-2.9495,-3.0473,-3.148,-3.2622,-3.4714,-3.6643,-3.8026,-3.815,-3.8191,-3.8191,-3.8191,-3.8191,-3.8191,-3.8191,-3.8191,-3.8191,-3.8191,-3.8191,-3.8316,-3.8621,-3.9137,-3.9612,-4.0075,-4.0572,-4.0882,-4.0882,-4.0882,-4.0882,-4.0882,-4.0882,-4.0882,-4.0882,-4.0882,-4.0882,-4.0882,-4.0882,-4.0882,-4.0882,-4.0882,-4.0882,-4.0882,-3.9838,-3.9333,-3.9333,-3.8316,-3.7878,-3.7805,-3.694,-3.7693,-3.957,-3.8938,-3.8647,-3.8574,-3.8574,-3.8574,-3.8574,-3.8574,-3.8574,-3.8574,-3.8574,-3.8574,-3.8574,0.0,0.0,0.0,0.0,0.0,0.0,0.0,0.0,0.0,0.0,0.0,-3.0645,0.0,0.0,0.0,-3.0587,-3.0645,-3.0704,-3.0704,-2.9825,-2.9471,-2.9884,-2.86,-2.808,-2.848,-2.7599,-2.7375,-2.79,-2.7375,-2.7176,-2.7381,-2.7381,-2.745,-2.7621,-2.8674,-2.8909,-2.8609,-3.0191,-3.0719,-3.0673,-3.1414,-3.1616,-3.1616,-3.2829,-3.2575,-3.1873,-3.2936,-3.3019,-3.2447,-3.1873,-3.1295,-3.0797,-3.0797,0.0,0.0,0.0,-3.1979,-3.334,-3.5112,-3.6376,-3.7415,-3.8037,-3.7703,-3.7415,-3.8037,-3.8191,-3.8191,-3.8191,-3.8191,-3.8191,-3.8191,-3.8191,-3.8336,-3.8703,-3.9158,-3.9682,-4.0137,-4.0593,-4.0882,-4.0882,-4.0882,-4.0882,-4.0882,-4.0882,-4.0882,-4.0882,-4.0882,-4.0882,-4.0882,-4.0882,-4.0882,-4.0882,-4.0218,-3.991,-3.991,-3.8753,-3.817,-3.817,-3.7658,-3.7364,-3.7364,-3.6294,-3.6442,-3.7345,-3.6516,-3.6071,-3.5849,-3.5849,-3.5849,-3.5849,-3.5849,-3.5849,-3.5849,-3.5849,-3.5849,-3.5849,0.0,0.0,0.0,0.0,0.0,0.0,0.0,0.0,0.0,0.0,0.0,0.0,0.0,0.0,0.0,0.0,-3.0878,-3.1401,-3.1652,-3.0529,-3.0119,-3.0587,-2.9253,-2.86,-2.8838,-2.8182,-2.7935,-2.8264,-2.8101,-2.7931,-2.7758,-2.8402,-2.8393,-2.7991,-2.932,-2.9829,-2.9824,-3.1359,-3.1809,-3.168,-3.2447,-3.2447,-3.2128,-3.3713,-3.3729,-3.3174,-3.4647,-3.479,-3.4112,-3.3411,-3.2622,-3.1866,-3.1606,-3.1563,0.0,0.0,0.0,-3.4194,-3.5638,-3.606,-3.6364,-3.7482,-3.728,-3.6924,-3.7636,-3.7971,-3.8104,-3.7837,-3.7971,-3.8191,-3.8191,-3.8191,-3.8378,-3.8869,-3.9241,-3.9723,-4.0282,-4.0655,-4.0882,-4.074,-4.074,-4.074,-4.074,-4.0668,-4.0668,-4.074,-4.0668,-4.0668,-4.074,-4.0433,-4.0361,-4.0433,-3.9261,-3.8681,-3.8681,-3.7345,-3.6479,-3.6182,-3.6182,-3.6256,-3.6405,-3.5121,-3.4521,-3.4521,-3.4261,-3.3943,-3.3658,-3.3658,-3.3658,-3.3658,-3.3658,-3.3658,-3.3658,-3.3658,-3.3658,-3.3658,0.0,0.0,0.0,0.0,0.0,0.0,0.0,0.0,0.0,0.0,0.0,0.0,-3.2555,-3.1825,-3.1285,-3.1227,-3.1285,-3.171,-3.2555,-3.0898,-3.0704,-3.2498,-2.9962,0.0,-2.9825,-2.9766,-2.9062,-2.7631,-2.9507,-2.9666,-2.8232,-3.0516,-3.0591,-2.8717,-2.8832,-3.0099,-3.2155,-3.1295,-3.2001,-3.3733,-3.3796,-3.436,-3.517,-3.5294,-3.4999,-3.4492,-3.462,-3.4858,-3.5196,-3.5196,-3.5131,-3.4871,-3.3841,-3.2848,-3.2266,0.0,0.0,0.0,-3.6138,-3.5714,-3.5169,-3.6296,-3.7059,-3.7415,-3.6722,-3.7415,-3.7904,-3.6789,-3.7415,-3.8191,-3.8191,-3.8191,-3.8481,-3.9351,-3.9447,-3.9847,-4.0717,-4.0862,-4.074,-4.0382,-4.031,-4.031,-4.031,-4.0002,-3.993,-4.031,-4.0022,-3.993,-4.031,-3.9281,-3.8826,-3.9188,-3.8097,-3.7511,-3.7511,-3.5569,-3.3995,-3.2816,-3.2816,-3.3289,-3.3912,-3.2375,-3.1609,-3.1686,-3.3163,-3.3734,-3.3658,-3.3658,-3.3658,-3.3658,-3.3658,-3.3658,-3.3658,-3.3658,-3.3658,-3.3658,0.0,0.0,0.0,0.0,0.0,0.0,0.0,0.0,0.0,0.0,0.0,0.0,0.0,-3.1111,-3.1285,-3.1285,-3.1825,-3.2486,-3.312,-3.254,-3.2311,-3.2671,-3.172,-3.1361,-3.172,-3.0438,-2.9782,-2.9867,-2.9331,-2.8922,-2.858,-2.9467,-3.0347,-3.1157,-3.1795,-3.1806,-3.1506,-3.3373,-3.4274,-3.4441,-3.5359,-3.5588,-3.5396,-3.6033,-3.5753,-3.5102,-3.5767,-3.6146,-3.6139,-3.5536,-3.5145,-3.4884,-3.4753,-3.4467,-3.4155,-3.3774,-3.2965,-3.2331,-3.2751,-3.336,-3.3776,-3.3983,-3.4758,-3.5344,-3.4827,-3.5393,-3.6112,-3.618,-3.6519,-3.6809,-3.6809,-3.7793,-3.8812,-3.9364,-3.9716,-4.0199,-4.08,-4.0668,-4.0453,-4.031,-4.0094,-3.993,-3.993,-3.9786,-3.9786,-3.9858,-3.9786,-3.9333,-3.8423,-3.8462,-3.8078,-3.7234,-3.6071,-3.4822,-3.3558,-3.3331,-3.274,-3.184,-3.184,-3.1993,-3.2239,-3.1071,-3.0608,-3.0608,-3.0577,-3.0639,-3.0639,-3.0639,-3.0639,-3.0639,-3.0639,-3.0639,-3.0639,-3.0639,-3.0639,-3.0639,0.0,0.0,0.0,0.0,0.0,0.0,0.0,0.0,0.0,-3.0353,0.0,0.0,0.0,0.0,-3.2087,-3.2248,-3.2813,-3.3306,-3.3596,-3.3361,-3.315,-3.3195,-3.2855,-3.2734,-3.2734,-3.1359,-3.0883,-3.1342,-3.0369,-2.977,-2.9473,-3.0419,-3.1304,-3.2142,-3.376,-3.374,-3.2739,-3.4756,-3.5506,-3.5413,-3.6424,-3.6398,-3.586,-3.6547,-3.65,-3.6168,-3.6773,-3.7136,-3.7195,-3.6521,-3.6128,-3.5732,-3.5031,-3.4691,-3.4505,-3.3771,-3.2455,-3.1333,-3.1614,-3.1755,-3.1895,-3.2018,-3.2804,-3.3378,-3.2874,-3.343,-3.4158,-3.4277,-3.4552,-3.4883,-3.5016,-3.6158,-3.7451,-3.8555,-3.9491,-4.0083,-4.0443,-4.031,-4.0094,-3.995,-3.9662,-3.9518,-3.9518,-3.9425,-3.9136,-3.8753,-3.8608,-3.784,-3.6405,-3.6442,-3.5923,-3.4561,-3.3751,-3.2647,-3.0994,-3.1517,-3.1517,-3.0994,-3.0994,-3.1148,-3.1395,-3.0531,-3.0129,-3.0052,-2.9275,-2.8886,-2.8886,-2.8886,-2.8886,-2.8886,-2.8886,-2.8886,-2.8886,-2.8886,-2.8886,-2.8886,0.0,0.0,0.0,0.0,0.0,0.0,0.0,0.0,-3.1383,-3.1383,0.0,0.0,0.0,0.0,0.0,-3.409,-3.4132,-3.4132,-3.4152,-3.3295,-3.3175,-3.4113,-3.3256,-3.2774,-3.2774,-3.2573,-3.2302,-3.1859,-3.2731,-3.2363,-3.0926,-3.3544,-3.3652,-3.1738,-3.4384,-3.5763,-3.6016,-3.5063,-3.5517,-3.6825,-3.6846,-3.6782,-3.6782,-3.6846,-3.705,-3.7443,-3.7508,-3.7798,-3.8191,-3.8191,-3.8191,-3.7683,-3.4758,-3.3499,-3.324,-3.324,-3.2613,-3.2123,0.0,0.0,0.0,-3.0484,-3.1333,-3.1772,-3.098,-3.1667,-3.2228,-3.1121,-3.1738,-3.2614,-3.295,-3.3392,-3.4468,-3.6752,-3.8416,-3.9516,-3.9582,-3.957,-3.9425,-3.9103,-3.903,-3.903,-3.903,-3.8647,-3.797,-3.6664,-3.6312,-3.5551,-3.4301,-3.3146,-3.219,-3.1395,-3.1395,-3.0994,-3.0052,-3.0052,-3.0052,-3.0052,-3.0052,-3.0531,-3.1318,-3.0454,-3.0052,-3.0052,-2.9275,-2.8886,-2.8886,-2.8886,-2.8886,-2.8886,-2.8886,-2.8886,-2.8886,-2.8886,-2.8886,-2.8886,0.0,0.0,0.0,0.0,0.0,-3.2054,-3.2054,-3.2747,-3.3325,0.0,0.0,0.0,-3.3865,-3.3945,-3.3986,-3.4111,-3.4132,-3.4217,-3.4608,-3.4388,-3.4471,-3.5024,-3.48,-3.4677,-3.4677,-3.3689,-3.3187,-3.3305,-3.234,-3.191,-3.206,-3.2561,-3.3065,-3.3482,-3.427,-3.523,-3.6314,-3.6314,-3.6506,-3.6844,-3.6973,-3.685,-3.663,-3.7182,-3.713,-3.6877,-3.7719,-3.8088,-3.8191,-3.8191,-3.7971,-3.7549,-3.6519,-3.512,-3.402,-3.402,-3.2053,-3.002,-3.0233,0.0,0.0,0.0,0.0,0.0,-2.9178,-2.9536,-3.025,-3.0463,-3.0801,-3.1132,-3.1431,-3.2492,-3.3328,-3.344,-3.5026,-3.6202,-3.6239,-3.5961,-3.5738,-3.5664,-3.5384,-3.5253,-3.5253,-3.5103,-3.4879,0.0,-3.4429,-3.3751,-3.2233,-3.1255,-3.067,-3.0454,-3.1071,-3.0686,-2.9275,-2.9819,-2.9819,-2.9197,-2.9197,-2.9353,-2.9586,-2.9353,-2.9197,-2.9197,-2.8964,-2.8886,-2.8886,-2.8886,-2.8886,-2.8886,-2.8886,-2.8886,-2.8886,-2.8886,-2.8886,-2.8886,0.0,0.0,0.0,0.0,0.0,-3.1838,-3.1838,-3.2794,-3.3515,0.0,0.0,0.0,-3.4401,-3.4527,-3.4631,-3.4631,-3.4631,-3.4755,-3.5024,-3.5045,-3.5148,-3.5418,-3.5294,-3.5335,-3.5707,-3.4263,-3.398,-3.4923,-3.3302,-3.2786,-3.3208,-3.3274,-3.3764,-3.4517,-3.4763,-3.5481,-3.6476,-3.6676,-3.6809,-3.6983,-3.6756,-3.6789,-3.6991,-3.7079,-3.7146,-3.728,-3.7971,-3.8191,-3.8191,-3.8191,-3.7415,-3.6431,-3.6228,-3.5207,-3.3969,-3.3327,-3.1719,-3.002,-2.9377,-2.8748,-2.8042,-2.7202,0.0,0.0,-2.7855,-2.8,-2.8465,-2.9095,-2.9199,-2.9356,-2.977,-3.0585,-3.1124,-3.0754,-3.163,-3.2885,-3.4244,-3.4169,-3.4018,-3.4018,-3.3809,-3.3658,-3.3658,-3.3658,-3.3449,-3.2766,-3.269,-3.2004,-3.0346,-2.9819,-2.9586,-2.9586,-3.0067,-2.9897,-2.8886,-2.9353,-2.9353,-2.8886,-2.8886,-2.8886,-2.8886,-2.8886,-2.8886,-2.8886,-2.8886,-2.8886,-2.8886,-2.8886,-2.8886,-2.8886,-2.8886,-2.8886,-2.8886,-2.8886,-2.8886,-2.8886,0.0,0.0,-2.8501,-2.8375,-2.9315,-3.008,-3.008,-3.1719,-3.2934,0.0,-3.3738,-3.4403,-3.492,-3.5252,-3.5521,-3.5562,-3.5583,-3.5583,-3.5583,-3.5583,-3.5583,-3.5583,-3.5189,-3.5394,-3.612,-3.4591,-3.4595,-3.6204,-3.4903,-3.4266,-3.439,-3.4962,-3.5132,-3.5027,-3.563,-3.6095,-3.6451,-3.6451,-3.6519,-3.6674,-3.618,-3.6519,-3.728,-3.6789,-3.7146,-3.7971,-3.8125,-3.8191,-3.8191,-3.8191,-3.6836,-3.5081,-3.5081,-3.464,-3.3762,-3.2211,-3.1649,-3.1155,-2.9592,-2.8114,-2.6983,-2.6983,-2.6983,0.0,-2.6983,-2.6983,-2.7071,-2.7364,-2.7452,-2.7656,-2.8271,-2.8341,-2.8534,-2.8842,-2.8886,-2.9881,-3.275,-3.3146,-3.3146,-3.3146,-3.3146,-3.3146,-3.3146,-3.3146,-3.2538,-3.1101,-3.1024,-3.0423,-2.8964,-2.8886,-2.8886,-2.8886,-2.8886,-2.8886,-2.8886,-2.8886,-2.8886,-2.8886,-2.8886,-2.8886,-2.8886,-2.8886,-2.8886,-2.8886,-2.8886,-2.8886,-2.8886,-2.8886,-2.8886,-2.8886,-2.8886,-2.8886,-2.8886,-2.8886,-2.8886,-2.8886,0.0,-2.903,-3.0272,-2.9484,-3.1108,-3.2513,-3.2513,-3.3612,-3.4595,-3.4841,-3.5026,-3.5335,-3.579,-3.5935,-3.6121,-3.6494,-3.6535,-3.6535,-3.6535,-3.6535,-3.6535,-3.6535,-3.6216,-3.6129,-3.6275,-3.5371,-3.5196,-3.5816,-3.5015,-3.4949,-3.5586,-3.5453,-3.5488,-3.5831,-3.5879,-3.6005,-3.6084,-3.6084,-3.5451,-3.4521,-3.5587,-3.5928,-3.5889,-3.6654,-3.6742,-3.6586,-3.777,-3.8191,-3.8191,-3.8191,-3.7683,-3.6991,-3.6722,-3.6316,-3.5617,-3.39,-3.2491,-3.1155,-2.9592,-2.8114,-2.6983,-2.6983,-2.6983,0.0,-2.6983,-2.6983,-2.7013,-2.7071,-2.7291,-2.7598,-2.7978,-2.818,-2.8534,-2.8842,-2.8886,-2.9119,-2.9726,-2.9881,-2.9881,-2.9881,-2.9881,-2.9881,-2.9881,-2.9881,-2.9726,-2.9431,-2.9353,-2.9197,-2.8886,-2.8886,-2.8886,-2.8886,-2.8886,-2.8886,-2.8886,-2.8886,-2.8886,-2.8886,-2.8886,-2.8886,-2.8886,-2.8886,-2.8886,-2.8886,-2.8886,-2.8886,-2.8886,-2.8886,-2.8886,-2.8886,-2.8886,-2.8886,-2.8886,-2.8886,-2.8886,-2.8886,-2.8233,-2.9867,-3.1069,-3.0583,-3.1948,-3.3086,-3.3273,-3.422,-3.5128,-3.5666,-3.5976,-3.6204,-3.6432,-3.6453,-3.6556,-3.6784,-3.6804,-3.6804,-3.6804,-3.6676,-3.6547,-3.6547,-3.601,-3.5916,-3.6334,-3.5633,-3.5534,-3.613,-3.5618,-3.5536,-3.5973,-3.6005,-3.6133,-3.6348,-3.6562,-3.666,-3.666,-3.666,-3.6224,-3.554,-3.5486,-3.5245,-3.4933,-3.5889,-3.6384,-3.6654,-3.7569,-3.8037,-3.8191,-3.8191,-3.7837,-3.7348,-3.7146,-3.6742,-3.5928,-3.4245,-3.27,-3.1155,-2.9592,-2.8114,-2.6983,-2.6983,-2.6983,0.0,0.0,-2.6983,-2.7042,-2.7203,-2.7495,-2.7803,-2.8063,-2.8447,-2.871,-2.8871,-2.8886,-2.8886,-2.8886,-2.8886,-2.8886,-2.8886,-2.8886,-2.8886,-2.8886,-2.8886,-2.8886,-2.8886,-2.8886,-2.8886,-2.8886,-2.8886,-2.8886,-2.8886,-2.8886,-2.8886,-2.8886,-2.8886,-2.8886,-2.8886,-2.8886,-2.8886,-2.8886,-2.8886,-2.8886,-2.8886,-2.8886,-2.8886,-2.8886,-2.8886,-2.8886,-2.8886,-2.8886,-2.8886,-2.8886,-2.8886,-2.8886,-2.8886,-2.9034,-3.052,-3.1653,-3.1617,-3.2452,-3.3256,-3.3589,-3.4495,-3.5247,-3.5867,-3.6385,-3.6697,-3.68,-3.68,-3.6905,-3.7053,-3.7074,-3.7074,-3.6944,-3.6664,-3.6534,-3.6469,-3.5796,-3.5818,-3.6523,-3.5961,-3.5975,-3.664,-3.6387,-3.6269,-3.6269,-3.6621,-3.6797,-3.6816,-3.7148,-3.7305,-3.7305,-3.7305,-3.7144,-3.6804,-3.5762,-3.513,-3.4972,-3.5593,-3.6436,-3.7272,-3.7746,-3.8083,-3.844,-3.8373,-3.7969,-3.7476,-3.7272,-3.6796,-3.5956,-3.4047,-3.2614,-3.1169,-2.9266,-2.7913,-2.6983,-2.6983,-2.6983,-2.6983,0.0,0.0,0.0,-2.7335,-2.7686,-2.7961,-2.8224,-2.8637,-2.8886,-2.8886,0.0,0.0,0.0,-2.8886,0.0,-2.8886,-2.8886,-2.8886,-2.8886,-2.8886,-2.8886,-2.8886,-2.8886,-2.8886,-2.8886,-2.8886,-2.8886,-2.8886,-2.8886,-2.8886,-2.8886,-2.8886,-2.8886,-2.8886,-2.8886,-2.8886,-2.8886,-2.8886,-2.8886,-2.8886,-2.8886,-2.8886,-2.8886,-2.8886,-2.8886,-2.8886,-2.8886,-2.8886,-2.8886,-2.8886,-2.8886,-2.8886,-2.8263,-3.0696,-3.2644,-3.2487,-3.3276,-3.4121,-3.4492,-3.5221,-3.563,-3.5326,-3.5925,-3.6497,-3.682,-3.6861,-3.7221,-3.7984,-3.8026,-3.7893,-3.754,-3.7473,-3.7339,-3.7005,-3.6582,-3.6578,-3.7123,-3.673,-3.6808,-3.7219,-3.7148,-3.7148,-3.7148,-3.7207,-3.7226,-3.7226,-3.7266,-3.7305,-3.7305,-3.7305,-3.6488,-3.5383,-3.6534,-3.7008,-3.7008,-3.7359,-3.7639,-3.7848,-3.8543,-3.9027,-3.9323,-3.9048,-3.882,-3.8682,-3.7918,-3.7639,-3.6911,-3.3305,-3.213,-3.1347,-2.8133,-2.7129,-2.6983,-2.6983,-2.6983,-2.6983,-2.6983,0.0,-2.6998,-2.7042,0.0,-2.7888,-2.7917,0.0,0.0,0.0,0.0,0.0,-2.8886,-2.8886,-2.8886,-2.8886,-2.8886,-2.8886,-2.8886,-2.8886,-2.8886,-2.8886,-2.8886,-2.8886,-2.8886,-2.8886,-2.8886,-2.8886,-2.8886,-2.8886,-2.8886,-2.8886,-2.8886,-2.8886,-2.8886,-2.8886,-2.8886,-2.8886,-2.8886,-2.8886,-2.8886,-2.8886,-2.8886,-2.8886,-2.8886,-2.8886,-2.8886,-2.8886,-2.8886,-2.8886,-2.8886,-2.8886,-2.9614,-3.118,-3.2899,-3.3677,-3.4173,-3.4557,-3.493,-3.5645,-3.6133,-3.6199,-3.6486,-3.6927,-3.7243,-3.733,-3.7478,-3.7816,-3.8037,-3.8161,-3.8004,-3.78,-3.765,-3.7499,-3.7154,-3.7044,-3.7241,-3.7101,-3.7129,-3.7305,-3.7305,-3.7305,-3.7305,-3.7539,-3.7656,-3.7604,-3.6956,-3.7143,-3.7975,-3.707,-3.6853,-3.7143,-3.7812,-3.8047,-3.7988,-3.7622,-3.7637,-3.7847,-3.8217,-3.8566,-3.8844,-3.8705,-3.8496,-3.8197,-3.7937,-3.7656,-3.7176,-3.5623,-3.4483,0.0,0.0,0.0,0.0,0.0,0.0,0.0,-2.7762,0.0,-2.7539,0.0,0.0,0.0,0.0,0.0,0.0,0.0,-2.8739,0.0,0.0,0.0,-2.8476,-2.8842,0.0,0.0,-2.8886,-2.8886,-2.8886,-2.8886,-2.8886,-2.8886,-2.8886,-2.8886,-2.8886,-2.8886,-2.8886,-2.8886,-2.8886,-2.8886,-2.8886,-2.8886,-2.8886,-2.8886,-2.8886,-2.8886,-2.8886,-2.8886,-2.8886,-2.8886,-2.8886,-2.8886,-2.8886,-2.8886,-2.8886,-2.8886,-2.8886,-2.8886,-2.8886,-2.8886,-3.1421,-3.2295,-3.352,-3.4778,-3.5014,-3.5185,-3.5567,-3.6163,-3.6643,-3.6844,-3.7227,-3.7509,-3.7644,-3.7848,-3.7983,-3.7983,-3.8341,-3.8553,-3.8473,-3.813,-3.7926,-3.7987,-3.7586,-3.7414,-3.7622,-3.7532,-3.7519,-3.7656,-3.7656,-3.7656,-3.7656,-3.7969,-3.8105,-3.8053,-3.7232,-3.753,-3.8501,-3.7364,-3.7511,-3.8574,-3.8574,-3.8574,-3.8496,-3.7891,-3.7869,-3.8153,-3.8153,-3.8436,-3.8718,-3.8648,-3.8436,-3.8153,-3.8062,-3.7869,-3.7546,0.0,0.0,0.0,-3.3093,0.0,0.0,0.0,0.0,0.0,0.0,0.0,0.0,0.0,0.0,0.0,0.0,0.0,0.0,0.0,0.0,-2.8432,0.0,-2.8078,0.0,0.0,0.0,0.0,0.0,-2.8886,-2.8886,-2.8886,-2.8886,-2.8886,-2.8886,-2.8886,-2.8886,-2.8886,-2.8886,-2.8886,-2.8886,-2.8886,-2.8886,-2.8886,-2.8886,-2.8886,-2.8886,-2.8886,-2.8886,-2.8886,-2.8886,-2.8886,-2.8886,-2.8886,-2.8886,-2.8886,-2.8886,-2.8886,-2.8886,-2.8886,-2.8886,-2.8886,-3.3375,-3.4183,-3.489,-3.5719,-3.5865,-3.6003,-3.6507,-3.6896,-3.7035,-3.6759,-3.7669,-3.8227,-3.7808,-3.8505,-3.8942,-3.8942,-3.9288,-3.9288,-3.9032,-3.8595,-3.8386,-3.8496,-3.7727,-3.7642,-3.841,-3.8053,-3.8105,-3.8535,-3.8535,-3.8535,-3.8535,-3.8555,-3.8555,-3.8555,-3.8574,-3.8574,-3.8574,-3.8574,-3.8574,-3.8574,-3.8574,-3.8574,-3.8574,-3.8555,-3.8826,-3.9136,-3.9136,-3.9333,-3.9602,-3.9261,-3.9136,-3.9063,-3.8681,-3.8608,0.0,0.0,0.0,0.0,0.0,0.0,0.0,-3.2694,0.0,0.0,0.0,0.0,-2.7874,0.0,0.0,0.0,0.0,0.0,0.0,0.0,0.0,0.0,0.0,0.0,0.0,0.0,0.0,0.0,0.0,-2.8886,-2.8886,0.0,-2.8886,-2.8886,-2.8886,-2.8886,-2.8886,-2.8886,-2.8886,-2.8886,-2.8886,-2.8886,-2.8886,-2.8886,-2.8886,-2.8886,-2.8886,-2.8886,-2.8886,-2.8886,-2.8886,-2.8886,-2.8886,-2.8886,-2.8886,-2.8886,-2.8886,-2.8886,-2.8886,-2.8886,-2.8886,-2.8886,-3.5578,-3.6081,-3.6289,-3.5995,-3.6239,-3.6573,-3.7005,-3.7202,-3.744,-3.7768,-3.7748,-3.7917,-3.8566,-3.8615,-3.8685,-3.8983,-3.933,-3.9453,-3.9391,-3.906,-3.897,-3.9251,-3.8576,-3.8439,-3.8957,-3.8577,-3.8418,-3.8574,-3.8574,-3.8574,-3.8574,-3.8574,-3.8574,-3.8574,-3.753,-3.7604,-3.8501,-3.7438,-3.7604,-3.8574,-3.8574,-3.8574,-3.8574,-3.8574,-3.8647,-3.8793,-3.8793,-3.8865,-3.8938,-3.8865,-3.8793,-3.8793,-3.8647,-3.8574,-3.8462,-3.7797,-3.7613,-3.7283,0.0,0.0,-3.5815,-3.2626,0.0,0.0,0.0,0.0,0.0,0.0,0.0,0.0,0.0,0.0,0.0,0.0,0.0,0.0,0.0,0.0,0.0,0.0,0.0,0.0,0.0,0.0,0.0,0.0,-2.8886,-2.8886,-2.8886,-2.8886,-2.8886,-2.8886,-2.8886,-2.8886,-2.8886,-2.8886,-2.8886,-2.8886,-2.8886,-2.8886,-2.8886,-2.8886,-2.8886,-2.8886,-2.8886,-2.8886,-2.8886,-2.8886,-2.8886,-2.8886,-2.8886,-2.8886,-2.8886,-2.8886,-2.8886,-2.8886,-3.6894,-3.7109,-3.7129,-3.6562,-3.6699,-3.6992,-3.7266,-3.7422,-3.7661,-3.8136,-3.8204,-3.8394,-3.896,-3.9221,-3.9362,-3.9453,-3.9803,-3.9927,-3.9861,-3.9668,-3.9576,-3.9694,-3.9156,-3.8958,-3.9176,-3.8812,-3.8574,-3.8574,-3.8574,-3.8574,-3.8574,-3.8574,-3.8574,-3.8574,-3.7511,-3.7604,-3.8501,-3.7511,-3.7658,-3.8574,-3.8574,-3.8574,-3.8574,-3.8574,-3.8574,-3.8574,-3.8574,-3.8574,-3.8574,-3.8574,-3.8574,-3.8574,-3.8574,-3.8574,-3.8574,-3.8574,-3.8574,-3.8355,-3.7364,-3.7824,0.0,-3.4654,-3.3827,0.0,-3.1085,0.0,-2.8886,0.0,0.0,0.0,0.0,0.0,0.0,0.0,0.0,0.0,0.0,-2.732,0.0,0.0,0.0,0.0,0.0,0.0,-2.8886,-2.8886,-2.8886,-2.8886,0.0,-2.8886,-2.8886,-2.8886,-2.8886,-2.8886,-2.8886,-2.8886,-2.8886,-2.8886,-2.8886,-2.8886,-2.8886,-2.8886,-2.8886,-2.8886,-2.8886,-2.8886,-2.8886,-2.8886,-2.8886,-2.8886,-2.8886,-2.8886,-2.8886,-2.8886,-2.8886,-2.8886,-3.7324,-3.7344,-3.7363,-3.7363,-3.7344,-3.7344,-3.7363,-3.7695,-3.7949,-3.7949,-3.895,-3.9498,-3.9248,-4.0166,-4.0668,-4.031,-4.0668,-4.074,-4.0382,-4.031,-4.0094,-3.9714,-3.9373,-3.9176,-3.9176,-3.8812,-3.8574,-3.8574,-3.8574,-3.8574,-3.8574,-3.8574,-3.8574,-3.8574,-3.8574,-3.8574,-3.8574,-3.8574,-3.8574,-3.8574,-3.8574,-3.8574,-3.8574,-3.8574,-3.8574,-3.8574,-3.8574,-3.8574,-3.8574,-3.8574,-3.8574,-3.8574,-3.8574,-3.8574,-3.8574,-3.8574,-3.8574,-3.8574,-3.8574,-3.8574,-3.8574,-3.8501,-3.6146,0.0,0.0,0.0,-2.9042,0.0,0.0,0.0,0.0,0.0,0.0,0.0,0.0,0.0,0.0,0.0,-2.7247,0.0,0.0,0.0,0.0,0.0,-2.8886,-2.8886,-2.8886,-2.8886,0.0,-2.8886,-2.8886,-2.8886,-2.8886,-2.8886,-2.8886,-2.8886,-2.8886,-2.8886,-2.8886,-2.8886,-2.8886,-2.8886,-2.8886,-2.8886,-2.8886,-2.8886,-2.8886,-2.8886,-2.8886,-2.8886,-2.8886,-2.8886,-2.8886,-2.8886,-2.8886,-2.8886,-3.7773,-3.8027,-3.8242,-3.8242,-3.7988,-3.7871,-3.8203,-3.834,-3.8563,-3.8853,-3.8879,-3.9083,-3.9498,-3.959,-3.9806,-4.0238,-4.0382,-4.0525,-4.074,-4.0146,-3.993,-4.0166,-3.9228,-3.8865,-3.9176,-3.8812,-3.8574,-3.8574,-3.8574,-3.8574,-3.8574,-3.8574,-3.8574,-3.8574,-3.8574,-3.8574,-3.8574,-3.8574,-3.8574,-3.8574,-3.8574,-3.8574,-3.8574,-3.8574,-3.8574,-3.8574,-3.8574,-3.8574,-3.8574,-3.8574,-3.8574,-3.8574,-3.8574,-3.8574,-3.8574,-3.8574,-3.8574,-3.8574,-3.8574,-3.8574,-3.8336,-3.7144,-3.6164,-3.5253,0.0,0.0,0.0,0.0,0.0,0.0,0.0,0.0,0.0,0.0,0.0,0.0,0.0,0.0,0.0,-2.7583,0.0,0.0,-2.8725,-2.8842,-2.8886,-2.8886,-2.8886,-2.8886,-2.8886,0.0,-2.8886,-2.8886,-2.8886,-2.8886,-2.8886,-2.8886,-2.8886,-2.8886,-2.8886,-2.8886,-2.8886,-2.8886,-2.8886,-2.8886,-2.8886,-2.8886,-2.8886,-2.8886,-2.8886,-2.8886,-2.8886,-2.8886,-2.8886,-2.8886,-2.8886,-2.8886,-3.8203,-3.8418,-3.8574,-3.8574,-3.8379,-3.8301,-3.8535,-3.8574,-3.8647,-3.8885,-3.8865,-3.9011,-3.9445,-3.9445,-3.959,-4.0022,-4.0022,-4.0094,-4.0166,-3.9858,-3.9642,-3.959,-3.9083,-3.8885,-3.8958,-3.872,0.0,-3.8574,-3.8574,-3.8574,-3.8574,-3.8574,-3.8574,-3.8574,-3.8574,-3.8574,-3.8574,-3.8574,-3.8574,-3.8574,-3.8574,-3.8574,0.0,-3.8574,-3.8574,-3.8574,-3.8574,-3.8574,-3.8574,-3.8574,-3.8574,-3.8574,-3.8574,-3.8574,-3.8574,-3.8574,-3.8574,-3.8574,-3.8574,-3.8574,-3.8355,-3.7438,-3.6701,-3.5941,-3.5028,-3.3524,-3.2173,0.0,-3.0577,-2.9726,0.0,0.0,0.0,0.0,0.0,0.0,0.0,0.0,0.0,0.0,-2.8052,0.0,-2.8842,-2.8886,-2.8886,-2.8886,-2.8886,-2.8886,0.0,0.0,-2.8886,-2.8886,-2.8886,-2.8886,-2.8886,-2.8886,-2.8886,-2.8886,-2.8886,-2.8886,-2.8886,-2.8886,-2.8886,-2.8886,-2.8886,-2.8886,-2.8886,-2.8886,-2.8886,-2.8886,-2.8886,-2.8886,-2.8886,-2.8886,-2.8886,-2.8886,-3.8574,-3.8574,-3.8574,-3.8574,-3.8574,-3.8574,-3.8574,-3.8574,-3.8574,-3.8574,-3.8885,-3.9103,-3.9103,-3.9373,-3.957,-3.9642,-3.9642,-3.9518,-3.9321,-3.9518,-3.9353,-3.872,-3.8958,-3.8958,-3.8574,-3.8574,-3.8574,-3.8574,-3.8574,-3.8574,-3.8574,-3.8574,-3.8574,-3.8574,-3.8574,-3.8574,-3.8574,-3.8574,-3.8574,-3.8574,-3.8574,-3.8574,-3.8574,-3.8574,-3.8574,-3.8574,-3.8574,-3.8574,-3.8574,-3.8574,-3.8574,-3.8574,-3.8574,-3.8574,-3.8574,-3.8574,-3.8574,-3.8574,-3.8574,-3.8574,-3.8574,-3.8574,-3.753,-3.6534,-3.6534,-3.5253,-3.36,-3.1944,-3.1408,-3.0809,-2.9197,0.0,0.0,0.0,0.0,0.0,0.0,0.0,0.0,0.0,0.0,0.0,0.0,-2.8886,-2.8886,-2.8886,-2.8886,-2.8886,0.0,0.0,-2.8886,-2.8886,-2.8886,-2.8886,-2.8886,-2.8886,-2.8886,-2.8886,-2.8886,-2.8886,-2.8886,-2.8886,-2.8886,-2.8886,-2.8886,-2.8886,-2.8886,-2.8886,-2.8886,-2.8886,-2.8886,-2.8886,-2.8886,-2.8886,-2.8886,-2.8886,-3.8574,-3.8574,-3.8574,-3.8574,-3.8574,-3.8574,-3.8574,-3.8574,-3.8574,-3.8574,-3.8647,-3.872,-3.872,-3.8793,-3.8938,-3.9248,-3.9321,-3.9373,-3.957,-3.9373,-3.9248,-3.9103,-3.8865,-3.8647,-3.8574,-3.8574,-3.8574,0.0,-3.8574,-3.8574,-3.8574,-3.8574,-3.8574,-3.8574,-3.8574,-3.8574,-3.8574,-3.8574,-3.8574,-3.8574,-3.8574,-3.8574,-3.8574,-3.8574,-3.8574,-3.8574,-3.8574,-3.8574,-3.8574,-3.8574,-3.8574,-3.8574,-3.8574,-3.8574,-3.8574,-3.8574,-3.8574,-3.8574,-3.8574,-3.8574,-3.8574,-3.8574,-3.8428,-3.819,-3.819,-3.6922,-3.5253,-3.3583,-3.2233,-3.0809,-2.9197,0.0,0.0,0.0,0.0,0.0,0.0,0.0,0.0,0.0,0.0,-2.8549,0.0,0.0,-2.8886,-2.8886,-2.8886,0.0,0.0,0.0,-2.8886,0.0,-2.8886,-2.8886,0.0,0.0,-2.8886,-2.8886,-2.8886,-2.8886,-2.8886,-2.8886,-2.8886,-2.8886,-2.8886,-2.8886,-2.8886,-2.8886,-2.8886,-2.8886,-2.8886,-2.8886,-2.8886,-2.8886,-2.8886,-2.8886,-3.8574,-3.8574,-3.8574,-3.8574,-3.8574,-3.8574,-3.8574,-3.8574,-3.8574,-3.8574,-3.8574,-3.8574,-3.8574,-3.8574,-3.8647,-3.8865,-3.8885,-3.8938,-3.9136,-3.9011,-3.8885,-3.8885,-3.872,-3.8574,-3.8574,-3.8574,-3.8574,-3.8574,0.0,-3.8574,-3.8574,-3.8574,-3.8574,-3.8574,-3.8574,-3.8574,-3.8574,-3.8574,-3.8574,-3.8574,-3.8574,-3.8574,-3.8574,-3.8574,-3.8574,-3.8574,-3.8574,-3.8574,-3.8574,-3.8574,-3.8574,-3.8574,-3.8574,-3.8574,-3.8574,-3.8574,-3.8574,-3.8574,-3.8574,-3.8574,-3.8574,-3.8574,-3.8574,-3.8574,-3.8574,-3.797,-3.6756,-3.4203,-3.307,-3.1775,-2.9353,-2.8886,0.0,0.0,0.0,0.0,0.0,0.0,-2.8666,0.0,0.0,0.0,0.0,0.0,0.0,0.0,0.0,0.0,0.0,0.0,-2.8886,0.0,0.0,0.0,-2.8886,0.0,-2.8886,-2.8886,-2.8886,-2.8886,-2.8886,-2.8886,-2.8886,-2.8886,-2.8886,-2.8886,-2.8886,-2.8886,-2.8886,-2.8886,-2.8886,-2.8886,-2.8886,-2.8886,-2.8988,-2.9134,-3.8574,-3.8574,-3.8574,-3.8574,-3.8574,-3.8574,-3.8574,-3.8574,-3.8574,-3.8574,-3.8574,-3.8574,-3.8574,-3.8574,-3.8574,-3.8574,-3.8574,-3.8574,-3.8574,-3.8574,-3.8574,-3.8574,-3.8574,-3.8574,-3.8574,-3.8574,-3.8574,0.0,0.0,-3.8574,-3.8574,-3.8574,-3.8574,-3.8574,-3.8574,-3.8574,-3.8574,-3.8574,-3.8574,-3.8574,-3.8574,-3.8574,-3.8574,-3.8574,-3.8574,-3.8574,-3.8574,-3.8574,-3.8574,-3.8574,-3.8574,-3.8574,-3.8574,-3.8574,-3.8574,-3.8574,-3.8574,-3.8574,-3.8574,-3.8574,-3.8574,-3.8574,-3.8574,-3.8574,-3.8574,-3.8574,-3.7751,-3.4879,-3.3676,-3.231,-2.9416,-2.8886,0.0,0.0,0.0,0.0,0.0,0.0,0.0,0.0,0.0,0.0,-2.8886,0.0,0.0,0.0,0.0,0.0,-2.8886,0.0,0.0,0.0,0.0,-2.8886,-2.8886,0.0,-2.8886,-2.8886,-2.8886,-2.8886,-2.8886,-2.8886,-2.8886,-2.8886,-2.8886,-2.8886,-2.8886,-2.8886,-2.8886,-2.8886,-2.8886,-2.8886,-2.8886,-2.8886,-2.909,-2.9383,-3.8574,-3.8574,-3.8574,-3.8574,-3.8574,-3.8574,-3.8574,-3.8574,-3.8574,-3.8574,-3.8574,-3.8574,-3.8574,-3.8574,-3.8574,-3.8574,-3.8574,-3.8574,-3.8574,-3.8574,-3.8574,-3.8574,-3.8574,-3.8574,-3.8574,-3.8574,-3.8574,0.0,0.0,-3.8574,-3.8574,-3.8574,-3.8574,-3.8574,-3.8574,-3.8574,0.0,-3.8574,-3.8574,-3.8574,-3.8574,-3.8574,-3.8574,-3.8574,-3.8574,-3.8574,-3.8574,-3.8574,-3.8574,-3.8574,-3.8574,-3.8574,-3.8574,-3.8574,-3.8574,-3.8574,-3.8574,-3.8574,-3.8574,-3.8574,-3.8574,-3.8574,-3.8574,-3.8574,-3.8574,-3.8574,-3.8117,-3.6312,-3.36,-3.0947,-2.9197,-2.8886,-2.8886,0.0,0.0,0.0,0.0,0.0,-2.8886,-2.8886,0.0,0.0,-2.8886,-2.8886,0.0,0.0,-2.8886,0.0,0.0,0.0,0.0,-2.8886,-2.8886,-2.8886,-2.8886,-2.8886,-2.8886,-2.8886,-2.8886,-2.8886,-2.8886,-2.8886,-2.8886,-2.8886,-2.8886,-2.8886,-2.8886,-2.8886,-2.8886,-2.8886,-2.8886,-2.8886,-2.8886,-2.8886,-2.909,-2.9412,-3.8574,-3.8574,-3.8574,-3.8574,-3.8574,-3.8574,-3.8574,-3.8574,-3.8574,-3.8574,-3.8574,-3.8574,-3.8574,-3.8574,-3.8574,-3.8574,-3.8574,-3.8574,-3.8574,-3.8574,-3.8574,-3.8574,-3.8574,-3.8574,-3.8574,-3.8574,-3.8574,0.0,0.0,0.0,0.0,-3.8574,-3.8574,-3.8574,0.0,-3.8574,-3.8574,-3.8574,-3.8574,-3.8574,-3.8574,-3.8574,-3.8574,-3.8574,-3.8574,-3.8574,-3.8574,-3.8574,-3.8574,-3.8574,-3.8574,-3.8574,-3.8574,-3.8574,-3.8574,-3.8574,-3.8574,-3.8574,-3.8574,-3.8574,-3.8574,-3.8574,-3.8574,-3.8574,-3.8574,-3.8574,-3.8117,-3.6534,-3.36,-3.0809,-2.9197,-2.8886,-2.8886,-2.8886,0.0,0.0,0.0,0.0,0.0,-2.8886,0.0,-2.8886,0.0,-2.8886,0.0,0.0,0.0,0.0,0.0,0.0,0.0,-2.8886,0.0,-2.8886,-2.8886,-2.8886,-2.8886,-2.8886,-2.8886,-2.8886,-2.8886,-2.8886,-2.8886,-2.8886,-2.8886,-2.8886,-2.8886,-2.8886,-2.8886,-2.8886,-2.8886,-2.8886,-2.8915,-2.9105,-2.9383,-2.972,-3.8574,-3.8574,-3.8574,-3.8574,-3.8574,-3.8574,-3.8574,-3.8574,-3.8574,-3.8574,-3.8574,-3.8574,-3.8574,-3.8574,-3.8574,-3.8574,-3.8574,-3.8574,-3.8574,-3.8574,-3.8574,-3.8574,-3.8574,0.0,-3.8574,-3.8574,-3.8574,-3.8574,-3.8574,0.0,0.0,0.0,0.0,0.0,-3.8574,-3.8574,-3.8574,-3.8574,-3.8574,-3.8574,-3.8574,-3.8574,-3.8574,-3.8574,-3.8574,-3.8574,-3.8574,-3.8574,-3.8574,-3.8574,-3.8574,-3.8574,-3.8574,-3.8574,-3.8574,-3.8574,-3.8574,-3.8574,-3.8574,-3.8574,-3.8574,-3.8574,-3.8574,-3.8574,-3.8574,-3.8574,-3.8117,-3.6534,-3.3977,-3.1485,-2.9881,-2.9197,-2.8886,-2.8886,0.0,0.0,0.0,-2.8886,0.0,-2.8886,-2.8886,-2.8886,-2.8886,-2.8886,0.0,0.0,0.0,0.0,0.0,0.0,0.0,0.0,0.0,0.0,-2.8886,-2.8886,-2.8886,-2.8886,-2.8886,-2.8886,-2.8886,-2.8886,-2.8886,-2.8886,-2.8886,-2.8886,-2.8886,-2.8886,-2.8886,-2.8886,-2.8886,-2.8944,-2.9061,-2.9295,-2.9647,-3.0123,-3.8574,-3.8574,-3.8574,-3.8574,-3.8574,-3.8574,-3.8574,-3.8574,-3.8574,-3.8574,-3.8574,-3.8574,-3.8574,-3.8574,-3.8574,-3.8574,-3.8574,-3.8574,-3.8574,-3.8574,-3.8574,0.0,0.0,-3.8574,-3.8574,-3.8574,-3.8574,-3.8574,0.0,0.0,-3.8574,0.0,-3.8574,-3.8574,-3.8574,-3.8574,-3.8574,-3.8574,-3.8574,-3.8574,-3.8574,-3.8574,-3.8574,-3.8574,-3.8574,-3.8574,-3.8574,-3.8574,-3.8574,-3.8574,-3.8574,-3.8574,-3.8574,-3.8574,-3.8574,-3.8574,-3.8574,-3.8574,-3.8574,-3.8574,-3.8574,-3.8574,-3.8574,-3.8574,-3.8574,-3.8574,-3.8117,-3.6534,-3.4879,-3.3222,-3.1561,-2.9959,-2.8886,-2.8886,0.0,0.0,0.0,-2.8886,0.0,-2.8886,-2.8886,-2.8886,-2.8886,-2.8886,0.0,-2.8886,-2.8886,0.0,0.0,0.0,0.0,-2.8886,-2.8886,0.0,-2.8886,-2.8886,-2.8886,-2.8886,-2.8886,-2.8886,-2.8886,-2.8886,-2.8886,-2.8886,-2.8886,-2.8886,-2.8886,-2.8886,-2.8886,-2.8886,-2.8886,-2.909,-2.9369,-2.9383,-2.9793,-3.0431,-3.8574,-3.8574,-3.8574,-3.8574,-3.8574,-3.8574,-3.8574,-3.8574,-3.8574,-3.8574,-3.8574,-3.8574,-3.8574,-3.8574,-3.8574,-3.8574,-3.8574,-3.8574,0.0,-3.8574,-3.8574,-3.8574,-3.8574,-3.8574,-3.8574,-3.8574,-3.8574,-3.8574,0.0,0.0,0.0,-3.8574,-3.8574,-3.8574,-3.8574,-3.8574,-3.8574,-3.8574,-3.8574,-3.8574,-3.8574,-3.8574,-3.8574,-3.8574,-3.8574,-3.8574,-3.8574,-3.8574,-3.8574,-3.8574,-3.8574,-3.8574,-3.8574,-3.8574,-3.8574,-3.8574,-3.8574,-3.8574,-3.8574,-3.8574,-3.8574,-3.8574,-3.8574,-3.8574,-3.8574,-3.8574,-3.8117,-3.6534,-3.4879,-3.3222,-3.1638,-2.9959,-2.8886,-2.8886,-2.8886,0.0,-2.8886,0.0,-2.8886,-2.8886,-2.8886,-2.8886,-2.8886,-2.8886,0.0,0.0,0.0,0.0,0.0,0.0,0.0,0.0,-2.8886,0.0,-2.8886,-2.8886,-2.8886,-2.8886,-2.8886,-2.8886,-2.8886,-2.8886,-2.8886,-2.8886,-2.8886,-2.8886,-2.8886,-2.8886,-2.8886,-2.8886,-2.8886,-2.909,-2.9398,-2.9632,-2.9983,-3.046,-3.8574,-3.8574,-3.8574,-3.8574,-3.8574,-3.8574,-3.8574,-3.8574,-3.8574,-3.8574,-3.8574,-3.8574,-3.8574,-3.8574,-3.8574,-3.8574,-3.8574,-3.8574,-3.8574,-3.8574,-3.8574,-3.8574,-3.8574,-3.8574,-3.8574,-3.8574,0.0,-3.8574,-3.8574,-3.8574,-3.8574,-3.8574,-3.8574,-3.8574,-3.8574,-3.8574,-3.8574,-3.8574,-3.8574,-3.8574,-3.8574,-3.8574,-3.8574,-3.8574,-3.8574,-3.8574,-3.8574,-3.8574,-3.8574,-3.8574,-3.8574,-3.8574,-3.8574,-3.8574,-3.8574,-3.8574,-3.8574,-3.8574,-3.8574,-3.8574,-3.8574,-3.8574,-3.8574,-3.8574,-3.8574,-3.8574,-3.8336,-3.7291,-3.5774,-3.4128,-3.2462,-3.087,-2.9571,-2.8964,-2.8886,-2.8886,-2.8886,0.0,-2.8886,0.0,0.0,-2.8886,-2.8886,-2.8886,-2.8808,0.0,0.0,0.0,0.0,0.0,-2.8744,-2.8886,-2.8886,-2.8886,-2.8886,-2.8886,-2.8886,-2.8886,-2.8886,-2.8886,-2.8886,-2.8886,-2.8886,-2.8886,-2.8886,-2.8886,-2.8886,-2.8886,-2.8886,-2.89,-2.9017,-2.9266,-2.9603,-2.9925,-3.0246,-3.0554,-3.8574,-3.8574,-3.8574,-3.8574,-3.8574,-3.8574,-3.8574,-3.8574,-3.8574,-3.8574,-3.8574,-3.8574,-3.8574,-3.8574,-3.8574,-3.8574,0.0,0.0,-3.8574,-3.8574,-3.8574,-3.8574,-3.8574,-3.8574,-3.8574,-3.8574,-3.8574,-3.8574,-3.8574,-3.8574,-3.8574,-3.8574,-3.8574,-3.8574,-3.8574,-3.8574,-3.8574,-3.8574,-3.8574,-3.8574,-3.8574,-3.8574,-3.8574,-3.8574,-3.8574,-3.8574,-3.8574,-3.8574,-3.8574,-3.8574,-3.8574,-3.8574,-3.8574,-3.8574,-3.8574,-3.8574,-3.8574,-3.8574,-3.8574,-3.8574,-3.8574,-3.8574,-3.8574,-3.8574,-3.8574,-3.8574,-3.8574,-3.8574,-3.7291,-3.5718,-3.4035,-3.2386,-3.0793,-2.9197,-2.8886,-2.8886,-2.8886,-2.8886,-2.8886,0.0,0.0,-2.8886,-2.8886,-2.8886,-2.8886,0.0,0.0,0.0,0.0,0.0,-2.851,-2.8886,-2.8886,-2.8886,-2.8886,-2.8886,-2.8886,-2.8886,-2.8886,-2.8886,-2.8886,-2.8886,-2.8886,-2.8886,-2.8886,-2.8886,-2.8886,-2.8886,-2.8886,-2.8915,-2.9251,-2.9573,-2.991,-3.0313,-3.0554,-3.0817,-3.8574,-3.8574,-3.8574,-3.8574,-3.8574,-3.8574,-3.8574,-3.8574,-3.8574,-3.8574,-3.8574,-3.8574,-3.8574,-3.8574,-3.8574,-3.8574,-3.8574,-3.8574,-3.8574,-3.8574,-3.8574,-3.8574,-3.8574,-3.8574,-3.8574,-3.8574,-3.8574,-3.8574,-3.8574,-3.8574,-3.8574,-3.8574,-3.8574,-3.8574,-3.8574,-3.8574,-3.8574,-3.8574,-3.8574,-3.8574,-3.8574,-3.8574,-3.8574,-3.8574,-3.8574,-3.8574,-3.8574,-3.8574,-3.8574,-3.8574,-3.8574,-3.8574,-3.8574,-3.8574,-3.8574,-3.8574,-3.8574,-3.8574,-3.8574,-3.8574,-3.8574,-3.8574,-3.8574,-3.8574,-3.8574,-3.8574,-3.8574,-3.8574,-3.7291,-3.5718,-3.4035,-3.2386,-3.0793,-2.9197,-2.8886,-2.8886,-2.8886,-2.8886,-2.8886,0.0,-2.8886,-2.8886,-2.8886,-2.8886,-2.873,0.0,0.0,-2.8431,-2.8431,-2.8353,-2.851,-2.8886,-2.8886,-2.8886,-2.8886,-2.8886,-2.8886,-2.8886,-2.8886,-2.8886,-2.8886,-2.8886,-2.8886,-2.8886,-2.8886,-2.8886,-2.8886,-2.8886,-2.8886,-2.8915,-2.9251,-2.9573,-2.991,-3.0313,-3.0554,-3.0817,-3.8574,-3.8574,-3.8574,-3.8574,-3.8574,-3.8574,-3.8574,-3.8574,-3.8574,-3.8574,-3.8574,-3.8574,-3.8574,-3.8574,-3.8574,-3.8574,-3.8574,-3.8574,-3.8574,-3.8574,-3.8574,-3.8574,-3.8574,-3.8574,-3.8574,-3.8574,-3.8574,-3.8574,-3.8574,-3.8574,-3.8574,-3.8574,-3.8574,-3.8574,-3.8574,-3.8574,-3.8574,-3.8574,-3.8574,-3.8574,-3.8574,-3.8574,-3.8574,-3.8574,-3.8574,-3.8574,-3.8574,-3.8574,-3.8574,-3.8574,-3.8574,-3.8574,-3.8574,-3.8574,-3.8574,-3.8574,-3.8574,-3.8574,-3.8574,-3.8574,-3.8574,-3.8574,-3.8574,-3.8574,-3.8574,-3.8574,-3.8574,-3.8574,-3.7897,-3.6756,-3.5178,-3.3524,-3.1852,-3.0268,-2.9353,-2.8886,-2.8886,-2.8886,-2.8886,-2.8886,-2.8886,-2.8886,-2.8886,-2.8744,-2.851,-2.8289,-2.8118,0.0,-2.7961,-2.8197,-2.851,-2.8886,-2.8886,-2.8886,-2.8886,-2.8886,-2.8886,-2.8886,-2.8886,-2.8886,-2.8886,-2.8886,-2.8886,-2.8886,-2.8886,-2.8886,-2.8886,-2.8886,-2.8886,-2.8944,-2.9412,-2.9705,-2.9925,-3.0393,-3.0671,-3.0734,-3.8574,-3.8574,-3.8574,-3.8574,-3.8574,-3.8574,-3.8574,-3.8574,-3.8574,-3.8574,-3.8574,-3.8574,-3.8574,-3.8574,-3.8574,-3.8574,-3.8574,-3.8574,-3.8574,-3.8574,-3.8574,-3.8574,-3.8574,-3.8574,-3.8574,-3.8574,-3.8574,-3.8574,-3.8574,-3.8574,-3.8574,-3.8574,-3.8574,-3.8574,-3.8574,-3.8574,-3.8574,-3.8574,-3.8574,-3.8574,-3.8574,-3.8574,-3.8574,-3.8574,-3.8574,-3.8574,-3.8574,-3.8574,-3.8574,-3.8574,-3.8574,-3.8574,-3.8574,-3.8574,-3.8574,-3.8574,-3.8574,-3.8574,-3.8574,-3.8574,-3.8574,-3.8574,-3.8574,-3.8574,-3.8574,-3.8574,-3.8574,-3.8574,-3.8574,-3.8117,-3.646,-3.4804,-3.3146,-3.1561,-2.9959,-2.8886,-2.8886,0.0,-2.8886,-2.8886,-2.8886,-2.8886,-2.8808,-2.851,-2.8289,-2.8197,-2.7805,-2.7633,-2.7633,-2.804,-2.8431,-2.8808,-2.8886,-2.8886,-2.8886,-2.8886,-2.8886,-2.8886,-2.8886,-2.8886,-2.8886,-2.8886,-2.8886,-2.8886,-2.8886,-2.8886,-2.8886,-2.8886,-2.8886,-2.8959,-2.9603,-2.9866,-2.9939,-3.05,-3.0749,-3.0665,-3.8574,-3.8574,-3.8574,-3.8574,-3.8574,-3.8574,-3.8574,-3.8574,-3.8574,-3.8574,-3.8574,-3.8574,-3.8574,-3.8574,-3.8574,-3.8574,-3.8574,-3.8574,-3.8574,-3.8574,-3.8574,-3.8574,-3.8574,-3.8574,-3.8574,-3.8574,-3.8574,-3.8574,-3.8574,-3.8574,-3.8574,-3.8574,-3.8574,-3.8574,-3.8574,-3.8574,-3.8574,-3.8574,-3.8574,-3.8574,-3.8574,-3.8574,-3.8574,-3.8574,-3.8574,-3.8574,-3.8574,-3.8574,-3.8574,-3.8574,-3.8574,-3.8574,-3.8574,-3.8574,-3.8574,-3.8574,-3.8574,-3.8574,-3.8574,-3.8574,-3.8574,-3.8574,-3.8574,-3.8574,-3.8574,-3.8574,-3.8574,-3.8574,-3.8574,-3.8117,-3.646,-3.4804,-3.3146,-3.1561,-2.9959,-2.8886,-2.8886,0.0,-2.8886,-2.8886,-2.8886,-2.8744,-2.8431,-2.8368,-2.8118,-2.7712,-2.7633,-2.7633,-2.7633,-2.804,-2.8368,-2.8353,-2.8744,-2.8886,-2.8886,-2.8886,-2.8886,-2.8886,-2.8886,-2.8886,-2.8886,-2.8886,-2.8886,-2.8886,-2.8886,-2.8886,-2.8886,-2.8886,-2.8886,-2.8959,-2.9603,-2.9866,-2.9939,-3.0184,-3.0263,-3.0248,-3.8574,-3.8574,-3.8574,-3.8574,-3.8574,-3.8574,-3.8574,-3.8574,-3.8574,-3.8574,-3.8574,-3.8574,-3.8574,-3.8574,-3.8574,-3.8574,-3.8574,-3.8574,-3.8574,-3.8574,-3.8574,-3.8574,-3.8574,-3.8574,-3.8574,-3.8574,-3.8574,-3.8574,-3.8574,-3.8574,-3.8574,-3.8574,-3.8574,-3.8574,-3.8574,-3.8574,-3.8574,-3.8574,-3.8574,-3.8574,-3.8574,-3.8574,-3.8574,-3.8574,-3.8574,-3.8574,-3.8574,-3.8574,-3.8574,-3.8574,-3.8574,-3.8574,-3.8574,-3.8574,-3.8574,-3.8574,-3.8574,-3.8574,-3.8574,-3.8574,-3.8574,-3.8574,-3.8574,-3.8574,-3.8574,-3.8574,-3.8574,-3.8574,-3.8574,-3.8355,-3.7604,-3.5402,-3.3449,-3.269,-3.0485,-2.8886,-2.8886,-2.8886,-2.8886,-2.8886,-2.8744,-2.851,-2.8289,-2.7897,-2.749,-2.7254,-2.7097,-2.6939,-2.6939,-2.7333,-2.7583,-2.7583,-2.8431,-2.8886,-2.8886,-2.8886,-2.8886,-2.8886,-2.8886,-2.8886,-2.8886,-2.8886,-2.8886,-2.8886,-2.8886,-2.8886,-2.8886,-2.8886,-2.873,-2.8646,-2.9297,-2.9382,-2.921,-2.9687,-2.983,-2.9747,-3.8574,-3.8574,-3.8574,-3.8574,-3.8574,-3.8574,-3.8574,-3.8574,-3.8574,-3.8574,-3.8574,-3.8574,-3.8574,-3.8574,-3.8574,-3.8574,-3.8574,-3.8574,-3.8574,-3.8574,-3.8574,-3.8574,-3.8574,-3.8574,-3.8574,-3.8574,-3.8613,-3.873,-3.873,-3.8769,-3.8887,-3.8887,-3.8887,-3.8887,-3.8887,-3.8887,-3.8887,-3.8887,-3.8887,-3.8867,-3.8769,-3.873,-3.8711,-3.8613,-3.8574,-3.8574,-3.8574,-3.8574,-3.8574,-3.8574,-3.8574,-3.8574,-3.8574,-3.8574,-3.8574,-3.8574,-3.8574,-3.8574,-3.8574,-3.8574,-3.8574,-3.8574,-3.8574,-3.8574,-3.8574,-3.8574,-3.8574,-3.8574,-3.8574,-3.8574,-3.8574,-3.5923,-3.3658,-3.3658,0.0,-2.8886,-2.8886,-2.8886,-2.8886,-2.873,-2.851,-2.8211,-2.8054,-2.7425,-2.6953,-2.6874,-2.6544,-2.6386,-2.6386,-2.6781,-2.7032,-2.7097,-2.8197,-2.8822,-2.8886,-2.8886,-2.8886,-2.8886,-2.8886,-2.8808,-2.8744,-2.8886,-2.8808,-2.8573,-2.873,-2.873,-2.8573,-2.8573,-2.8475,-2.8289,-2.8844,-2.8938,-2.8739,-2.9202,-2.9314,-2.923,-3.8574,-3.8574,-3.8574,-3.8574,-3.8574,-3.8574,-3.8574,-3.8574,-3.8574,-3.8574,-3.8574,-3.8574,-3.8574,-3.8574,-3.8574,-3.8574,-3.8574,-3.8574,-3.8574,-3.8574,-3.8574,-3.8574,-3.8574,-3.8574,-3.8574,-3.8574,-3.8769,-3.916,-3.916,-3.9375,-3.9805,-3.9805,-3.9805,-3.9805,-3.9805,-3.9805,-3.9805,-3.9805,-3.9805,-3.9766,-3.9336,-3.916,-3.9121,-3.873,-3.8574,-3.8574,-3.8574,-3.8574,-3.8574,-3.8574,-3.8574,-3.8574,-3.8574,-3.8574,-3.8574,-3.8574,-3.8574,-3.8574,-3.8574,-3.8574,-3.8574,-3.8574,-3.8574,-3.8574,-3.8574,-3.8574,-3.8574,-3.8574,-3.8574,-3.8574,-3.8574,-3.5923,-3.3658,-3.3658,0.0,0.0,-2.8886,-2.8886,-2.8744,-2.8368,-2.8289,-2.7976,-2.7189,-2.7032,-2.6874,-2.6465,-2.6386,-2.6386,-2.6386,-2.6781,-2.7175,-2.7555,-2.804,-2.851,-2.8886,-2.8886,-2.8886,-2.8886,-2.8886,-2.8666,-2.8368,-2.8744,-2.8495,-2.7712,-2.8197,-2.8118,-2.7712,-2.7712,-2.788,-2.8175,-2.8512,-2.8821,-2.8937,-2.8868,-2.8824,-2.8824,-3.8574,-3.8574,-3.8574,-3.8574,-3.8574,-3.8574,-3.8574,-3.8574,-3.8574,-3.8574,-3.8574,-3.8574,-3.8574,-3.8574,-3.8574,-3.8574,-3.8574,-3.8574,-3.8574,-3.8574,-3.8574,-3.8574,-3.8574,-3.8574,-3.8574,-3.8574,-3.8789,-3.9199,-3.9199,-3.9434,-3.9902,-3.9902,-3.9902,-3.9902,-3.9902,-3.9902,-3.9902,-3.9902,-3.9726,-3.9453,-3.9277,-3.9043,-3.8789,-3.8633,-3.8574,-3.8574,-3.8574,-3.8574,-3.8574,-3.8574,-3.8574,-3.8574,-3.8574,-3.8574,-3.8574,-3.8574,-3.8574,-3.8574,-3.8574,-3.8574,-3.8574,-3.8574,-3.8574,-3.8574,-3.8574,-3.8574,-3.8574,-3.8574,-3.8574,-3.8574,-3.8574,-3.5923,-3.3658,-3.3658,0.0,-2.851,-2.851,-2.8275,-2.8026,-2.7869,-2.7647,-2.7347,-2.7032,-2.6795,-2.6544,-2.6386,-2.6386,-2.6386,-2.6386,-2.6544,-2.6781,-2.7254,-2.7425,-2.7726,-2.8104,-2.8104,-2.8104,-2.8104,-2.8104,-2.8026,-2.7883,-2.8026,-2.7947,-2.7633,-2.7805,-2.779,-2.7633,-2.7633,-2.7671,-2.7751,-2.8041,-2.8181,-2.8234,-2.8365,-2.8403,-2.8403,-3.8574,-3.8574,-3.8574,-3.8574,-3.8574,-3.8574,-3.8574,-3.8574,-3.8574,-3.8574,-3.8574,-3.8574,-3.8574,-3.8574,-3.8574,-3.8574,-3.8574,-3.8574,-3.8574,-3.8574,-3.8574,-3.8574,-3.8574,-3.8574,-3.8574,-3.8574,-3.8789,-3.9199,-3.9199,-3.9434,-3.9902,-3.9902,-3.9961,-4.0098,-3.9961,-3.9961,-4.0078,-3.9961,-3.9707,-3.9414,-3.9258,-3.9023,-3.875,-3.8633,-3.8574,-3.8574,-3.8574,-3.8574,-3.8574,-3.8574,-3.8574,-3.8574,-3.8574,-3.8574,-3.8574,-3.8574,-3.8501,-3.8448,-3.8448,-3.8282,-3.8282,-3.8501,-3.8574,-3.8574,-3.8574,-3.8574,-3.8574,-3.8574,-3.8574,-3.8428,-3.797,-3.5551,-3.3507,-3.307,-3.033,-2.8289,-2.8289,-2.7883,-2.7555,-2.7412,-2.7175,-2.6953,-2.6795,-2.6544,-2.6386,-2.6386,-2.6386,-2.6386,-2.6386,-2.6386,-2.6544,-2.6795,-2.6781,-2.6939,-2.724,-2.7476,-2.7633,-2.7633,-2.7633,-2.7555,-2.7398,-2.7555,-2.7476,-2.724,-2.7319,-2.7319,-2.724,-2.7254,-2.733,-2.7472,-2.7595,-2.7756,-2.7856,-2.8154,-2.8221,-2.8221,-3.8574,-3.8574,-3.8574,-3.8574,-3.8574,-3.8574,-3.8574,-3.8574,-3.8574,-3.8574,-3.8574,-3.8574,-3.8574,-3.8574,-3.8574,-3.8574,-3.8574,-3.8574,-3.8574,-3.8574,-3.8574,-3.8574,-3.8574,-3.8574,-3.8574,-3.8574,-3.8789,-3.9199,-3.9199,-3.9434,-3.9902,-3.9902,-4.0117,-4.0508,-4.0078,-4.0137,-4.0488,-4.0078,-3.9902,-3.9844,-3.9394,-3.9199,-3.9141,-3.873,-3.8574,-3.8574,-3.8574,-3.8574,-3.8574,-3.8574,-3.8574,-3.8574,-3.8574,-3.8574,-3.8574,-3.8574,-3.8302,-3.8009,-3.8009,-3.7715,-3.7549,-3.8355,-3.8574,-3.8574,-3.8574,-3.8574,-3.8574,-3.8574,-3.8574,-3.8117,-3.646,-3.4804,-3.3146,-3.1561,-2.9586,-2.8289,-2.8289,-2.7883,-2.7398,-2.7032,-2.7032,-2.6874,-2.6465,-2.6386,-2.6386,-2.6386,-2.6386,-2.6386,-2.6386,-2.6386,-2.6386,-2.6386,-2.6386,-2.6386,-2.6386,-2.7254,-2.7647,-2.7555,-2.7555,-2.7412,-2.7032,-2.7398,-2.7175,-2.6386,-2.6795,-2.6795,-2.6386,-2.6386,-2.6734,-2.7268,-2.7268,-2.7712,-2.8221,-2.8221,-2.8221,-2.8221,-3.8574,-3.8574,-3.8574,-3.8574,-3.8574,-3.8574,-3.8574,-3.8574,-3.8574,-3.8574,-3.8574,-3.8574,-3.8574,-3.8574,-3.8574,-3.8574,-3.8574,-3.8574,-3.8574,-3.8574,-3.8574,-3.8574,-3.8574,-3.8574,-3.8574,-3.8574,-3.8789,-3.9199,-3.9199,-3.9434,-3.9902,-3.9902,-3.9961,-4.0078,-3.9961,-3.9961,-4.0078,-3.9941,-3.9707,-3.9394,-3.9258,-3.9023,-3.875,-3.8613,-3.8574,-3.8574,-3.8574,-3.8574,-3.8574,-3.8574,-3.8574,-3.8574,-3.8574,-3.8574,-3.8501,-3.8228,-3.8082,-3.7936,-3.7642,-3.7495,-3.7495,-3.7696,-3.8009,-3.8082,-3.7843,-3.8209,-3.8501,-3.8228,-3.753,-3.6682,-3.583,-3.3415,-3.1392,-3.0562,-2.873,-2.7425,-2.7425,-2.7018,-2.6702,-2.6623,-2.6544,-2.6544,-2.6386,-2.6386,-2.6386,-2.6386,-2.6386,-2.6386,-2.6386,-2.6386,-2.6386,-2.6386,-2.6386,-2.6386,-2.6386,-2.6623,-2.6781,-2.6781,-2.6781,-2.6702,-2.6544,-2.6702,-2.6623,-2.6386,-2.6544,-2.6544,-2.6386,-2.6386,-2.6734,-2.7268,-2.7268,-2.7712,-2.8221,-2.8221,-2.8221,-2.8221,-3.8574,-3.8574,-3.8574,-3.8574,-3.8574,-3.8574,-3.8574,-3.8574,-3.8574,-3.8574,-3.8574,-3.8574,-3.8574,-3.8574,-3.8574,-3.8574,-3.8574,-3.8574,-3.8574,-3.8574,-3.8574,-3.8574,-3.8574,-3.8574,-3.8574,-3.8574,-3.8691,-3.8945,-3.8945,-3.9101,-3.9375,-3.9375,-3.9473,-3.9609,-3.9453,-3.9473,-3.9609,-3.9434,-3.9219,-3.8945,-3.8945,-3.8809,-3.8574,-3.8574,-3.8574,-3.8574,-3.8574,-3.8574,-3.8574,-3.8574,-3.8574,-3.8574,-3.8428,-3.8375,-3.8302,-3.7862,-3.7642,-3.7476,-3.7255,-3.7034,-3.696,-3.696,-3.7347,-3.7715,-3.7495,-3.777,-3.7843,-3.6941,-3.6164,-3.5253,-3.3624,-3.1743,-3.016,-2.9245,-2.7947,-2.7032,-2.7032,-2.6623,-2.6386,-2.6386,-2.6386,-2.6386,-2.6386,-2.6386,-2.6386,-2.6386,-2.6386,-2.6386,-2.6386,-2.6386,-2.6386,-2.6386,-2.6386,-2.6386,-2.6386,-2.6386,-2.6386,-2.6386,-2.6386,-2.6386,-2.6386,-2.6386,-2.6386,-2.6386,-2.6386,-2.6386,-2.6386,-2.6386,-2.6734,-2.7268,-2.7268,-2.7712,-2.8221,-2.8221,-2.8221,-2.8221,-3.8574,-3.8574,-3.8574,-3.8574,-3.8574,-3.8574,-3.8574,-3.8574,-3.8574,-3.8574,-3.8574,-3.8574,-3.8574,-3.8574,-3.8574,-3.8574,-3.8574,-3.8574,-3.8574,-3.8574,-3.8574,-3.8574,-3.8574,-3.8574,-3.8574,-3.8574,-3.8574,-3.8574,-3.8574,-3.8574,-3.8574,-3.8574,-3.8789,-3.9121,-3.875,-3.8789,-3.9121,-3.875,-3.8574,-3.8574,-3.8574,-3.8574,-3.8574,-3.8574,-3.8574,-3.8574,-3.8574,-3.8501,-3.8501,-3.8501,-3.8501,-3.8501,-3.8082,-3.7936,-3.7862,-3.7495,-3.7107,-3.6812,-3.6738,-3.6516,-3.6201,-3.6201,-3.6645,-3.7107,-3.7107,-3.7107,-3.6719,-3.4954,-3.4561,-3.3583,-3.0623,-2.9944,-2.9323,-2.779,-2.7175,-2.6953,-2.6953,-2.6623,-2.6386,-2.6386,-2.6386,-2.6386,-2.6386,-2.6386,-2.6386,-2.6386,-2.6386,-2.6386,-2.6386,-2.6386,-2.6386,-2.6386,-2.6386,-2.6386,-2.6386,-2.6386,-2.6386,-2.6386,-2.6386,-2.6386,-2.6386,-2.6386,-2.6386,-2.6386,-2.6386,-2.6386,-2.6386,-2.6386,-2.6734,-2.7268,-2.7268,-2.7712,-2.8221,-2.8221,-2.8221,-2.8221,-3.8574,-3.8574,-3.8574,-3.8574,-3.8574,-3.8574,-3.8574,-3.8574,-3.8574,-3.8574,-3.8574,-3.8574,-3.8574,-3.8574,-3.8574,-3.8574,-3.8574,-3.8574,-3.8574,-3.8574,-3.8574,-3.8574,-3.8574,-3.8574,-3.8574,-3.8574,-3.8574,-3.8574,-3.8574,-3.8574,-3.8574,-3.8574,-3.8633,-3.8711,-3.8613,-3.8633,-3.8711,-3.8613,-3.8574,-3.8574,-3.8574,-3.8574,-3.8574,-3.8574,-3.8428,-3.8155,-3.8155,-3.7936,-3.7623,-3.7623,-3.7862,-3.8082,-3.7642,-3.7568,-3.7476,-3.7034,-3.6886,-3.6738,-3.6442,-3.6293,-3.6201,-3.6201,-3.5363,-3.4597,-3.4597,-3.5046,-3.4879,-3.2961,-3.1835,-3.0854,-2.9759,-2.8544,-2.749,-2.6781,-2.6623,-2.6544,-2.6544,-2.6465,-2.6386,-2.6386,-2.6386,-2.6386,-2.6386,-2.6386,-2.6386,-2.6386,-2.6386,-2.6386,-2.6386,-2.6386,-2.6386,-2.6386,-2.6386,-2.6386,-2.6386,-2.6386,-2.6386,-2.6386,-2.6386,-2.6386,-2.6386,-2.6386,-2.6386,-2.6386,-2.6386,-2.6386,-2.6386,-2.6386,-2.6734,-2.7268,-2.7268,-2.7712,-2.8221,-2.8221,-2.8221,-2.8221,-3.8574,-3.8574,-3.8574,-3.8574,-3.8574,-3.8574,-3.8574,-3.8574,-3.8574,-3.8574,-3.8574,-3.8574,-3.8574,-3.8574,-3.8574,-3.8574,-3.8574,-3.8574,-3.8574,-3.8574,-3.8574,-3.8574,-3.8574,-3.8574,-3.8574,-3.8574,-3.8574,-3.8574,-3.8574,-3.8574,-3.8574,-3.8574,-3.8574,-3.8574,-3.8574,-3.8574,-3.8574,-3.8574,-3.8574,-3.8574,-3.8574,-3.8574,-3.8574,-3.8355,-3.8155,-3.7936,-3.7789,-3.7568,-3.7421,-3.7421,-3.7568,-3.7642,-3.7255,-3.7107,-3.7034,-3.6664,-3.6497,-3.6442,-3.6275,-3.6201,-3.6201,-3.6201,-3.4989,-3.3844,-3.3844,-3.3507,-3.2657,-3.0839,-3.0006,-2.9245,-2.8154,-2.7319,-2.6623,-2.6465,-2.6386,-2.6386,-2.6386,-2.6386,-2.6386,-2.6386,-2.6386,-2.6386,-2.6386,-2.6386,-2.6386,-2.6386,-2.6386,-2.6386,-2.6386,-2.6386,-2.6386,-2.6386,-2.6386,-2.6386,-2.6386,-2.6386,-2.6386,-2.6386,-2.6386,-2.6386,-2.6386,-2.6386,-2.6386,-2.6386,-2.6386,-2.6386,-2.6386,-2.6386,-2.6734,-2.7268,-2.7268,-2.7712,-2.8221,-2.8221,-2.8221,-2.8221,-3.8574,-3.8574,-3.8574,-3.8574,-3.8574,-3.8574,-3.8574,-3.8574,-3.8574,-3.8574,-3.8574,-3.8574,-3.8574,-3.8574,-3.8574,-3.8574,-3.8574,-3.8574,-3.8574,-3.8574,-3.8574,-3.8574,-3.8574,-3.8574,-3.8574,-3.8574,-3.8574,-3.8574,-3.8574,-3.8574,-3.8574,-3.8574,-3.8574,-3.8574,-3.8574,-3.8574,-3.8574,-3.8574,-3.8574,-3.8574,-3.8501,-3.8501,-3.8428,-3.8082,-3.7862,-3.7789,-3.7421,-3.7329,-3.7274,-3.7181,-3.7255,-3.7255,-3.6812,-3.6738,-3.6664,-3.6275,-3.5978,-3.5829,-3.5829,-3.5587,-3.5363,-3.5363,-3.4145,-3.2994,-3.2994,-3.1912,-3.0454,-2.8778,-2.8466,-2.809,-2.6623,-2.6386,-2.6386,-2.6386,-2.6386,-2.6386,-2.6386,-2.6386,-2.6386,-2.6386,-2.6386,-2.6386,-2.6386,-2.6386,-2.6386,-2.6386,-2.6386,-2.6386,-2.6386,-2.6386,-2.6386,-2.6386,-2.6386,-2.6386,-2.6386,-2.6386,-2.6386,-2.6386,-2.6386,-2.6386,-2.6386,-2.6386,-2.6386,-2.6386,-2.6386,-2.6386,-2.6386,-2.6386,-2.6734,-2.7268,-2.7268,-2.7712,-2.8221,-2.8221,-2.8221,-2.8221,-3.8574,-3.8574,-3.8574,-3.8574,-3.8574,-3.8574,-3.8574,-3.8574,-3.8574,-3.8574,-3.8574,-3.8574,-3.8574,-3.8574,-3.8574,-3.8574,-3.8574,-3.8574,-3.8574,-3.8574,-3.8574,-3.8574,-3.8574,-3.8574,-3.8574,-3.8574,-3.8574,-3.8574,-3.8574,-3.8574,-3.8574,-3.8574,-3.8574,-3.8574,-3.8574,-3.8574,-3.8574,-3.8574,-3.8574,-3.8574,-3.8228,-3.8082,-3.8009,-3.7642,-3.7255,-3.696,-3.6886,-3.6886,-3.6812,-3.6516,-3.659,-3.6812,-3.6442,-3.6275,-3.6275,-3.6201,-3.5214,-3.4145,-3.4145,-3.307,-3.1988,-3.1988,-3.0762,-2.9541,-2.9541,-2.9386,-2.8778,-2.7083,-2.6781,-2.6702,-2.6465,-2.6386,-2.6386,-2.6386,-2.6386,-2.6386,-2.6386,-2.6386,-2.6386,-2.6386,-2.6386,-2.6386,-2.6386,-2.6386,-2.6386,-2.6386,-2.6386,-2.6386,-2.6386,-2.6386,-2.6386,-2.6386,-2.6386,-2.6386,-2.6386,-2.6386,-2.6386,-2.6386,-2.6386,-2.6386,-2.6386,-2.6386,-2.6386,-2.6386,-2.6386,-2.6386,-2.6386,-2.6386,-2.6734,-2.7268,-2.7268,-2.7712,-2.8221,-2.8221,-2.8221,-2.8221,-3.8574,-3.8574,-3.8574,-3.8574,-3.8574,-3.8574,-3.8574,-3.8574,-3.8574,-3.8574,-3.8574,-3.8574,-3.8574,-3.8574,-3.8574,-3.8574,-3.8574,-3.8574,-3.8574,-3.8574,-3.8574,-3.8574,-3.8574,-3.8574,-3.8574,-3.8574,-3.8574,-3.8574,-3.8574,-3.8574,-3.8574,-3.8574,-3.8501,-3.8302,-3.8302,-3.8155,-3.7916,-3.7916,-3.7916,-3.7916,-3.7715,-3.7642,-3.7642,-3.7181,-3.6423,-3.5438,-3.5196,-3.5121,-3.5139,-3.4896,-3.4989,-3.4896,-3.3827,-3.3449,-3.3449,-3.3449,-3.2994,-3.2369,-3.2369,-3.1835,-3.13,-3.13,-3.0083,-2.8934,-2.8934,-2.8168,-2.7319,-2.6544,-2.6386,-2.6386,-2.6386,-2.6386,-2.6386,-2.6386,-2.6386,-2.6386,-2.6386,-2.6386,-2.6386,-2.6386,-2.6386,-2.6386,-2.6386,-2.6386,-2.6386,-2.6386,-2.6386,-2.6386,-2.6386,-2.6386,-2.6386,-2.6386,-2.6386,-2.6386,-2.6386,-2.6386,-2.6386,-2.6386,-2.6386,-2.6386,-2.6386,-2.6386,-2.6386,-2.6386,-2.6386,-2.6386,-2.6386,-2.6386,-2.6734,-2.7268,-2.7268,-2.7712,-2.8221,-2.8221,-2.8221,-2.8221]},{"header":{"parameterUnit":"m.s-1","parameterCategory":1,"la1":30.6,"la2":28.766,"lo1":-90.7593,"lo2":-88.6598,"dy":0.0162,"dx":0.0183,"nx":116,"ny":114,"refTime":"2023-10-06T06:00:00:Z","depth":0,"parameterNumber":3,"parameterNumberName":"V-component_of_WINDS"},"data":[0.0,0.0,0.0,0.0,0.0,0.0,0.0,0.0,0.0,0.0,0.0,0.0,0.0,0.0,0.0,0.0,0.0,0.0,0.0,0.0,0.0,0.0,0.0,0.0,0.0,0.0,0.0,0.0,0.0,0.0,0.0,0.0,0.0,0.0,0.0,0.0,0.0,0.0,0.0,0.0,0.0,0.0,0.0,0.0,0.0,0.0,0.0,0.0,0.0,0.0,0.0,0.0,0.0,0.0,0.0,0.0,0.0,0.0,0.0,0.0,0.0,0.0,0.0,0.0,0.0,0.0,0.0,0.0,0.0,0.0,0.0,0.0,0.0,0.0,0.0,0.0,0.0,0.0,0.0,0.0,0.0,0.0,0.0,0.0,0.0,0.0,0.0,0.0,0.0,0.0,0.0,0.0,0.0,0.0,0.0,0.0,0.0,0.0,0.0,0.0,0.0,0.0,0.0,0.0,0.0,0.0,0.0,0.0,0.0,0.0,0.0,0.0,0.0,0.0,0.0,0.0,0.0,0.0,0.0,0.0,0.0,0.0,0.0,0.0,0.0,0.0,0.0,0.0,0.0,0.0,0.0,0.0,0.0,0.0,0.0,0.0,0.0,0.0,0.0,0.0,0.0,0.0,0.0,0.0,0.0,0.0,0.0,0.0,0.0,0.0,0.0,0.0,0.0,0.0,0.0,0.0,0.0,0.0,0.0,0.0,0.0,0.0,0.0,0.0,0.0,0.0,0.0,0.0,0.0,0.0,0.0,0.0,0.0,0.0,0.0,0.0,0.0,0.0,0.0,0.0,0.0,0.0,0.0,0.0,0.0,0.0,0.0,0.0,0.0,0.0,0.0,0.0,0.0,0.0,0.0,0.0,0.0,0.0,0.0,0.0,0.0,0.0,0.0,0.0,0.0,0.0,0.0,0.0,0.0,0.0,0.0,0.0,0.0,0.0,0.0,0.0,0.0,0.0,0.0,0.0,0.0,0.0,0.0,0.0,0.0,0.0,0.0,0.0,0.0,0.0,0.0,0.0,0.0,0.0,0.0,0.0,0.0,0.0,0.0,0.0,0.0,0.0,0.0,0.0,0.0,0.0,0.0,0.0,0.0,0.0,0.0,0.0,0.0,0.0,0.0,0.0,0.0,0.0,0.0,0.0,0.0,0.0,0.0,0.0,0.0,0.0,0.0,0.0,0.0,0.0,0.0,0.0,0.0,0.0,0.0,0.0,0.0,0.0,0.0,0.0,0.0,0.0,0.0,0.0,0.0,0.0,0.0,0.0,0.0,0.0,0.0,0.0,0.0,0.0,0.0,0.0,0.0,0.0,0.0,0.0,0.0,0.0,0.0,0.0,0.0,0.0,0.0,0.0,0.0,0.0,0.0,0.0,0.0,0.0,0.0,0.0,0.0,0.0,0.0,0.0,0.0,0.0,0.0,0.0,0.0,0.0,0.0,0.0,0.0,0.0,0.0,0.0,0.0,0.0,0.0,0.0,0.0,0.0,0.0,0.0,0.0,0.0,0.0,0.0,0.0,0.0,0.0,0.0,0.0,0.0,0.0,0.0,0.0,0.0,0.0,0.0,0.0,0.0,0.0,0.0,0.0,0.0,0.0,0.0,0.0,0.0,0.0,0.0,0.0,0.0,0.0,0.0,0.0,0.0,0.0,0.0,0.0,0.0,0.0,0.0,0.0,0.0,0.0,0.0,0.0,0.0,0.0,0.0,0.0,0.0,0.0,0.0,0.0,0.0,0.0,0.0,0.0,0.0,0.0,0.0,0.0,0.0,0.0,0.0,0.0,0.0,0.0,0.0,0.0,0.0,0.0,0.0,0.0,0.0,0.0,0.0,0.0,0.0,0.0,0.0,0.0,0.0,0.0,0.0,0.0,0.0,0.0,0.0,0.0,0.0,0.0,0.0,0.0,0.0,0.0,0.0,0.0,0.0,0.0,0.0,0.0,0.0,0.0,0.0,0.0,0.0,0.0,0.0,0.0,0.0,0.0,0.0,0.0,0.0,0.0,0.0,0.0,0.0,0.0,0.0,0.0,0.0,0.0,0.0,0.0,0.0,0.0,0.0,0.0,0.0,0.0,0.0,0.0,0.0,0.0,0.0,0.0,0.0,0.0,0.0,0.0,0.0,0.0,0.0,0.0,0.0,0.0,0.0,0.0,0.0,0.0,0.0,0.0,0.0,0.0,0.0,0.0,0.0,0.0,0.0,0.0,0.0,0.0,0.0,0.0,0.0,0.0,0.0,0.0,0.0,0.0,0.0,0.0,0.0,0.0,0.0,0.0,0.0,0.0,0.0,0.0,0.0,0.0,0.0,0.0,0.0,0.0,0.0,0.0,0.0,0.0,0.0,0.0,0.0,0.0,0.0,0.0,0.0,0.0,0.0,0.0,0.0,0.0,0.0,0.0,0.0,0.0,0.0,0.0,0.0,0.0,0.0,0.0,0.0,0.0,0.0,0.0,0.0,0.0,0.0,0.0,0.0,0.0,0.0,0.0,0.0,0.0,0.0,0.0,0.0,0.0,0.0,0.0,0.0,0.0,0.0,0.0,0.0,0.0,0.0,0.0,0.0,0.0,0.0,0.0,0.0,0.0,0.0,0.0,0.0,0.0,0.0,0.0,0.0,0.0,0.0,0.0,0.0,0.0,0.0,0.0,0.0,0.0,0.0,0.0,0.0,0.0,0.0,0.0,0.0,0.0,0.0,0.0,0.0,0.0,0.0,0.0,0.0,0.0,0.0,0.0,0.0,0.0,0.0,0.0,0.0,0.0,0.0,0.0,0.0,0.0,0.0,0.0,0.0,0.0,0.0,0.0,0.0,0.0,0.0,0.0,0.0,0.0,0.0,0.0,0.0,0.0,0.0,0.0,0.0,0.0,0.0,0.0,0.0,0.0,0.0,0.0,0.0,0.0,0.0,0.0,0.0,0.0,0.0,0.0,0.0,0.0,0.0,0.0,0.0,0.0,0.0,0.0,0.0,0.0,0.0,0.0,0.0,0.0,0.0,0.0,0.0,0.0,0.0,0.0,0.0,0.0,0.0,0.0,0.0,0.0,0.0,0.0,0.0,0.0,0.0,0.0,0.0,0.0,0.0,0.0,0.0,0.0,0.0,0.0,0.0,0.0,0.0,0.0,0.0,0.0,0.0,0.0,0.0,0.0,0.0,0.0,0.0,0.0,0.0,0.0,0.0,0.0,0.0,0.0,0.0,0.0,0.0,0.0,0.0,0.0,0.0,0.0,0.0,0.0,0.0,0.0,0.0,0.0,0.0,0.0,0.0,0.0,0.0,0.0,0.0,0.0,0.0,0.0,0.0,0.0,0.0,0.0,0.0,0.0,0.0,0.0,0.0,0.0,0.0,0.0,0.0,0.0,0.0,0.0,0.0,0.0,0.0,0.0,0.0,0.0,0.0,0.0,0.0,0.0,0.0,0.0,0.0,0.0,0.0,0.0,0.0,0.0,0.0,0.0,0.0,0.0,0.0,0.0,0.0,0.0,0.0,0.0,0.0,0.0,0.0,0.0,0.0,0.0,0.0,0.0,0.0,0.0,0.0,0.0,0.0,0.0,0.0,0.0,0.0,0.0,0.0,0.0,0.0,0.0,0.0,0.0,0.0,0.0,0.0,0.0,0.0,0.0,0.0,0.0,0.0,0.0,0.0,0.0,0.0,0.0,0.0,0.0,0.0,0.0,0.0,0.0,0.0,0.0,0.0,0.0,0.0,0.0,0.0,0.0,0.0,0.0,0.0,0.0,0.0,0.0,0.0,0.0,0.0,0.0,0.0,0.0,0.0,0.0,0.0,0.0,0.0,0.0,0.0,0.0,0.0,0.0,0.0,0.0,0.0,0.0,0.0,0.0,0.0,0.0,0.0,0.0,0.0,0.0,0.0,0.0,0.0,0.0,0.0,0.0,0.0,0.0,0.0,0.0,0.0,0.0,0.0,0.0,0.0,0.0,0.0,0.0,0.0,0.0,0.0,0.0,0.0,0.0,0.0,0.0,0.0,0.0,0.0,0.0,0.0,0.0,0.0,0.0,0.0,0.0,0.0,0.0,0.0,0.0,0.0,0.0,0.0,0.0,0.0,0.0,0.0,0.0,0.0,0.0,0.0,0.0,0.0,0.0,0.0,0.0,0.0,0.0,0.0,0.0,0.0,0.0,0.0,0.0,0.0,0.0,0.0,0.0,0.0,0.0,0.0,0.0,0.0,0.0,0.0,0.0,0.0,0.0,0.0,0.0,0.0,0.0,0.0,0.0,0.0,0.0,0.0,0.0,0.0,0.0,0.0,0.0,0.0,0.0,0.0,0.0,0.0,0.0,0.0,0.0,0.0,0.0,0.0,0.0,0.0,0.0,0.0,0.0,0.0,0.0,0.0,0.0,0.0,0.0,0.0,0.0,0.0,0.0,0.0,0.0,0.0,0.0,0.0,0.0,0.0,0.0,0.0,0.0,0.0,0.0,0.0,0.0,0.0,0.0,0.0,0.0,0.0,0.0,0.0,0.0,0.0,0.0,0.0,0.0,0.0,0.0,0.0,0.0,0.0,0.0,0.0,0.0,0.0,0.0,0.0,0.0,0.0,0.0,0.0,0.0,0.0,0.0,0.0,0.0,0.0,0.0,0.0,0.0,0.0,0.0,0.0,0.0,0.0,0.0,0.0,0.0,0.0,0.0,0.0,0.0,0.0,0.0,0.0,0.0,0.0,0.0,0.0,0.0,0.0,0.0,0.0,0.0,0.0,0.0,0.0,0.0,0.0,0.0,0.0,0.0,0.0,0.0,0.0,0.0,0.0,0.0,0.0,0.0,0.0,0.0,0.0,0.0,0.0,0.0,0.0,0.0,0.0,0.0,0.0,0.0,0.0,0.0,0.0,0.0,0.0,0.0,0.0,0.0,0.0,0.0,0.0,0.0,0.0,0.0,0.0,0.0,0.0,0.0,0.0,0.0,0.0,0.0,0.0,0.0,0.0,0.0,0.0,0.0,0.0,0.0,0.0,0.0,0.0,0.0,0.0,0.0,0.0,0.0,0.0,0.0,0.0,0.0,0.0,0.0,0.0,0.0,0.0,0.0,0.0,0.0,0.0,0.0,0.0,0.0,0.0,0.0,0.0,0.0,0.0,0.0,0.0,0.0,0.0,0.0,0.0,0.0,0.0,0.0,0.0,0.0,0.0,0.0,0.0,0.0,0.0,0.0,0.0,0.0,0.0,0.0,0.0,0.0,0.0,0.0,0.0,0.0,0.0,0.0,0.0,0.0,0.0,0.0,0.0,0.0,0.0,0.0,0.0,0.0,0.0,0.0,0.0,0.0,0.0,0.0,0.0,0.0,0.0,0.0,0.0,0.0,0.0,0.0,0.0,0.0,0.0,0.0,0.0,0.0,0.0,0.0,0.0,0.0,0.0,0.0,0.0,0.0,0.0,0.0,0.0,0.0,0.0,0.0,0.0,0.0,0.0,0.0,0.0,0.0,0.0,0.0,0.0,0.0,0.0,0.0,0.0,0.0,0.0,0.0,0.0,0.0,0.0,0.0,0.0,0.0,0.0,0.0,0.0,0.0,0.0,0.0,0.0,0.0,0.0,0.0,0.0,0.0,0.0,0.0,0.0,0.0,0.0,0.0,0.0,0.0,0.0,0.0,0.0,0.0,0.0,0.0,0.0,0.0,0.0,0.0,0.0,0.0,0.0,0.0,0.0,0.0,0.0,0.0,0.0,0.0,0.0,0.0,0.0,0.0,0.0,0.0,0.0,0.0,0.0,0.0,0.0,0.0,0.0,0.0,0.0,0.0,0.0,0.0,0.0,0.0,0.0,0.0,0.0,0.0,0.0,0.0,0.0,0.0,0.0,0.0,0.0,0.0,0.0,0.0,0.0,0.0,0.0,0.0,0.0,0.0,0.0,0.0,0.0,0.0,0.0,0.0,0.0,0.0,0.0,0.0,0.0,0.0,0.0,0.0,0.0,0.0,0.0,0.0,0.0,0.0,0.0,0.0,0.0,0.0,0.0,0.0,0.0,0.0,0.0,0.0,0.0,0.0,0.0,0.0,0.0,0.0,0.0,0.0,0.0,0.0,0.0,0.0,0.0,0.0,0.0,0.0,0.0,4.3828,0.0,0.0,0.0,0.0,0.0,0.0,0.0,0.0,0.0,0.0,0.0,0.0,0.0,0.0,0.0,0.0,0.0,0.0,0.0,0.0,0.0,0.0,0.0,0.0,0.0,0.0,0.0,0.0,0.0,0.0,0.0,0.0,0.0,0.0,0.0,0.0,0.0,0.0,3.6405,3.6405,3.6405,3.6405,3.6405,3.6405,3.6405,0.0,0.0,0.0,0.0,0.0,0.0,0.0,0.0,0.0,0.0,0.0,0.0,0.0,0.0,0.0,0.0,0.0,0.0,0.0,0.0,0.0,0.0,0.0,0.0,0.0,0.0,0.0,0.0,0.0,0.0,0.0,0.0,0.0,0.0,0.0,0.0,0.0,0.0,0.0,0.0,0.0,0.0,0.0,0.0,0.0,0.0,0.0,0.0,0.0,0.0,0.0,0.0,0.0,0.0,0.0,0.0,0.0,0.0,0.0,0.0,0.0,0.0,0.0,0.0,0.0,0.0,0.0,0.0,0.0,0.0,0.0,4.4579,0.0,0.0,0.0,0.0,0.0,0.0,0.0,0.0,0.0,0.0,0.0,0.0,0.0,0.0,0.0,0.0,0.0,0.0,0.0,0.0,0.0,0.0,0.0,0.0,3.6405,3.6405,3.6405,3.6405,0.0,0.0,0.0,0.0,0.0,0.0,3.6556,3.6556,3.6556,3.6556,3.6455,3.6405,3.6405,3.6405,3.6405,3.6405,3.6405,0.0,0.0,0.0,0.0,0.0,0.0,0.0,0.0,0.0,0.0,0.0,0.0,0.0,0.0,0.0,0.0,0.0,0.0,0.0,0.0,0.0,0.0,0.0,0.0,0.0,0.0,0.0,0.0,0.0,0.0,0.0,0.0,0.0,0.0,0.0,0.0,0.0,0.0,0.0,0.0,0.0,0.0,0.0,0.0,0.0,0.0,0.0,0.0,0.0,0.0,0.0,0.0,0.0,0.0,0.0,0.0,0.0,0.0,0.0,0.0,0.0,0.0,0.0,4.6668,4.6697,4.6624,4.6668,4.68,4.6828,4.5674,4.5145,4.5145,4.5102,0.0,0.0,0.0,0.0,0.0,0.0,0.0,0.0,0.0,0.0,0.0,0.0,0.0,0.0,0.0,0.0,0.0,0.0,0.0,0.0,0.0,3.6405,3.6405,3.6405,3.6405,3.6405,3.6405,0.0,0.0,0.0,0.0,0.0,3.7061,3.7086,3.7086,3.7086,3.6656,3.6405,3.6405,3.6405,3.6405,3.6405,3.6405,3.6405,3.6405,0.0,0.0,0.0,0.0,0.0,0.0,0.0,0.0,0.0,0.0,0.0,0.0,0.0,0.0,0.0,0.0,0.0,0.0,0.0,0.0,0.0,0.0,0.0,0.0,0.0,0.0,0.0,0.0,0.0,0.0,0.0,0.0,0.0,0.0,0.0,0.0,0.0,0.0,0.0,0.0,0.0,4.3908,4.4339,0.0,0.0,0.0,0.0,0.0,0.0,0.0,0.0,0.0,0.0,0.0,0.0,0.0,4.6477,4.6609,4.6756,4.6887,4.6887,4.7092,4.7092,4.6887,4.7106,4.7106,4.6901,4.6927,0.0,4.6954,4.6707,0.0,0.0,0.0,0.0,0.0,0.0,0.0,0.0,0.0,0.0,0.0,0.0,0.0,0.0,0.0,0.0,0.0,0.0,0.0,0.0,0.0,3.6849,3.6943,3.6452,3.6405,3.6405,3.6405,3.6405,0.0,0.0,0.0,3.7086,3.7638,3.7337,3.7036,3.6782,3.6531,3.6405,3.6405,3.6405,3.6405,3.6405,3.6405,3.6405,3.6405,3.6405,0.0,0.0,0.0,0.0,0.0,0.0,0.0,0.0,0.0,0.0,0.0,0.0,0.0,0.0,0.0,0.0,0.0,0.0,0.0,0.0,0.0,0.0,0.0,0.0,0.0,0.0,0.0,0.0,0.0,0.0,0.0,0.0,0.0,0.0,0.0,0.0,0.0,0.0,0.0,4.4803,4.4769,4.4887,4.4761,4.4824,0.0,0.0,0.0,0.0,0.0,0.0,0.0,0.0,0.0,4.6756,4.6756,4.6844,4.7005,4.7062,4.7106,4.7106,4.7266,4.7266,4.7106,4.7266,4.7266,4.7106,4.7266,4.7309,4.7309,4.7149,4.7222,4.7309,0.0,0.0,0.0,0.0,5.0422,5.1364,0.0,0.0,0.0,0.0,0.0,0.0,0.0,0.0,0.0,0.0,0.0,0.0,3.7335,3.7546,3.7546,3.6803,3.6546,3.6405,3.6405,3.6531,3.6807,3.7161,3.7312,3.7663,3.8216,3.7839,3.7412,3.7059,3.6908,3.6832,3.6832,3.6832,3.6832,3.6832,3.6832,3.6681,3.6405,3.6405,3.6405,3.6405,0.0,0.0,0.0,0.0,0.0,0.0,0.0,0.0,0.0,0.0,0.0,0.0,0.0,0.0,0.0,0.0,0.0,0.0,0.0,0.0,0.0,0.0,0.0,0.0,0.0,0.0,0.0,0.0,0.0,0.0,0.0,0.0,0.0,0.0,0.0,0.0,0.0,4.5663,4.555,4.5603,4.5518,4.5611,0.0,0.0,0.0,0.0,0.0,0.0,4.6668,4.6712,4.6844,4.7019,4.7019,4.7106,4.7309,4.7309,4.7309,4.7309,4.7309,4.7309,4.7309,4.7309,4.7309,4.7309,4.7309,4.7309,4.7309,4.7309,4.7309,4.7309,4.7309,4.8198,4.9487,4.9487,5.0576,5.2053,0.0,0.0,0.0,0.0,0.0,0.0,0.0,0.0,0.0,0.0,0.0,3.921,3.9077,3.8296,3.7776,3.7704,3.6896,3.6405,3.6405,3.6908,3.7161,3.7186,3.7688,3.8241,3.8818,3.8844,3.8818,3.8793,3.8191,3.7914,3.7914,3.7914,3.7914,3.7914,3.7914,3.7337,3.6405,3.6405,3.6405,3.6455,3.6935,0.0,0.0,0.0,0.0,0.0,0.0,0.0,0.0,0.0,0.0,0.0,0.0,0.0,0.0,0.0,0.0,0.0,0.0,0.0,0.0,0.0,0.0,0.0,0.0,0.0,0.0,0.0,0.0,0.0,0.0,0.0,0.0,0.0,0.0,0.0,0.0,0.0,0.0,4.713,4.6973,0.0,0.0,0.0,0.0,4.6887,4.6887,4.6887,4.6887,4.7135,4.7266,4.7266,4.7266,4.7309,4.7309,4.7309,4.7309,4.7309,4.7309,4.7309,4.7309,4.7309,4.7309,4.7309,4.7309,4.7309,4.7309,4.7309,4.7309,4.7309,4.7309,4.7849,4.8656,4.8656,4.9718,5.1172,0.0,0.0,0.0,0.0,0.0,0.0,0.0,0.0,4.1339,4.0689,4.0845,4.0617,3.9343,3.9431,3.9121,3.7887,3.75,3.7036,3.6452,3.6885,3.7337,3.7688,3.8266,3.8668,3.8919,3.8919,3.8693,3.8316,3.8115,3.8015,3.8015,3.8015,3.8015,3.8015,3.8015,3.7789,3.7412,3.7412,3.7412,3.7437,3.7638,3.7713,0.0,0.0,0.0,0.0,0.0,0.0,0.0,0.0,0.0,0.0,0.0,0.0,0.0,0.0,0.0,0.0,0.0,0.0,0.0,0.0,0.0,0.0,0.0,0.0,0.0,0.0,0.0,0.0,0.0,0.0,0.0,0.0,0.0,0.0,0.0,0.0,0.0,4.7279,4.7222,0.0,4.7309,4.7179,4.7092,4.7149,4.7149,4.7149,4.7149,4.7266,4.7309,4.7309,4.7309,4.7309,4.7309,4.7309,4.7309,4.7309,4.7309,4.7309,4.7309,4.7309,4.7309,4.7309,4.7309,4.7549,4.7938,4.7938,4.7698,4.7309,4.7309,4.7807,4.8615,4.8615,4.96,5.0897,0.0,0.0,0.0,0.0,0.0,0.0,0.0,0.0,4.1856,4.1212,4.1689,4.1606,4.0331,4.0432,4.013,3.8854,3.816,3.7624,3.7177,3.7329,3.7713,3.8266,3.8843,3.9145,3.9145,3.9145,3.8969,3.8567,3.8567,3.8567,3.8567,3.8567,3.8567,3.8567,3.8567,3.8567,3.8567,3.8567,3.8341,3.8015,3.8216,3.8291,3.8366,0.0,0.0,0.0,0.0,0.0,0.0,0.0,0.0,0.0,0.0,0.0,0.0,0.0,0.0,0.0,0.0,0.0,0.0,0.0,0.0,0.0,0.0,0.0,0.0,0.0,0.0,0.0,0.0,0.0,0.0,0.0,0.0,0.0,0.0,4.7309,4.7309,4.7309,4.7309,4.7309,4.7309,4.7309,4.7309,4.7309,4.7309,4.7309,4.7309,4.7309,4.7399,4.7638,4.7638,4.7758,4.7967,4.7967,4.7967,4.7967,4.7967,4.7967,4.7967,4.7967,4.7967,4.7967,4.7967,4.8207,4.8626,4.8626,4.8356,4.7967,4.7967,4.8473,4.9209,4.8943,4.9822,5.1114,0.0,0.0,0.0,0.0,0.0,0.0,0.0,4.2092,4.2092,4.2092,4.2092,4.2092,4.2092,4.1254,4.0646,4.0603,3.8899,3.8057,3.8585,3.8225,3.8266,3.8919,3.9396,3.9697,3.9697,3.9697,3.9697,3.9697,3.9697,3.9697,3.9697,3.9697,3.9697,3.9697,3.9697,3.9697,3.9697,3.9697,3.9069,3.8115,3.8668,3.8944,3.8994,0.0,0.0,0.0,0.0,0.0,0.0,0.0,0.0,0.0,0.0,0.0,0.0,0.0,0.0,0.0,0.0,0.0,0.0,0.0,0.0,0.0,0.0,0.0,0.0,0.0,0.0,0.0,0.0,0.0,0.0,0.0,0.0,0.0,4.7309,4.7309,4.7309,4.7309,4.7309,4.7309,4.7309,4.7309,4.7309,4.7309,4.7339,4.7339,4.7339,4.7369,4.7668,4.8297,4.8327,4.8626,4.9299,4.9299,4.9299,4.9299,4.9299,4.9299,4.9299,4.9299,4.9299,4.9299,4.9299,4.9329,4.9329,4.9329,4.9359,4.9359,4.9329,4.9761,5.0358,4.9583,5.0332,5.1747,0.0,0.0,0.0,0.0,0.0,0.0,0.0,4.2092,4.2092,4.2092,4.2092,4.2092,4.2092,4.1856,4.1381,4.0646,3.9519,3.8762,3.8632,3.8225,3.8442,3.9421,3.9622,3.9697,3.9697,3.9697,3.9697,3.9697,3.9697,3.9697,3.9697,3.9697,3.9697,3.9697,3.9697,3.9697,3.9697,3.9697,3.9521,3.9245,3.9396,3.9471,3.9496,0.0,0.0,0.0,0.0,0.0,0.0,0.0,0.0,0.0,0.0,0.0,0.0,0.0,0.0,0.0,0.0,0.0,0.0,0.0,0.0,0.0,0.0,0.0,0.0,0.0,0.0,0.0,0.0,0.0,0.0,0.0,4.7309,4.7309,4.7309,4.7309,4.7309,4.7309,4.7309,4.7309,4.7309,4.7309,4.7309,4.7309,4.7758,4.8027,4.8027,4.8476,4.8805,4.903,4.906,4.912,4.9299,4.9299,4.9299,4.9299,4.9299,4.9299,4.9299,4.9299,4.9299,4.9299,4.9299,4.9523,4.9972,4.9972,5.0242,5.0601,4.9689,4.9434,4.9583,4.9389,4.9869,5.0727,0.0,0.0,0.0,0.0,0.0,0.0,0.0,4.2092,4.2092,4.2092,4.2092,4.2092,4.2092,4.2092,4.1856,4.1296,4.0346,3.9697,3.9581,3.903,3.9019,3.9672,3.9697,3.9697,3.9697,3.9697,3.9697,3.9697,3.9697,3.9697,3.9697,3.9697,3.9697,3.9697,3.9697,3.9697,3.9697,3.9697,3.9697,3.9697,3.9697,3.9697,3.9697,3.9697,3.9697,3.9697,3.9697,3.9697,3.9749,4.016,0.0,0.0,0.0,0.0,0.0,0.0,0.0,0.0,0.0,0.0,0.0,0.0,0.0,0.0,0.0,0.0,0.0,0.0,0.0,0.0,0.0,0.0,0.0,0.0,4.7309,4.7309,4.7309,4.7309,4.7309,4.7309,4.7309,4.7309,4.7309,4.7549,4.7728,4.7728,4.8327,4.8686,4.8686,4.912,4.9449,4.9673,4.9673,4.9793,5.0092,5.0092,5.0092,5.0092,5.0092,5.0092,5.0092,5.0092,5.0092,5.0092,5.0092,5.0301,5.0614,5.0614,5.0823,0.0,0.0,0.0,0.0,0.0,5.0331,5.0704,0.0,0.0,0.0,0.0,0.0,0.0,0.0,4.2092,4.2092,4.2092,4.2092,4.2092,4.2092,4.2092,4.2092,4.2092,4.117,4.0658,4.0761,4.0122,3.9776,3.9697,3.9697,3.9697,3.9697,3.9697,3.9697,3.9697,3.9697,3.9697,3.9697,3.9697,3.9697,3.9697,3.9697,3.9697,3.9697,3.9697,3.9697,3.9697,3.9697,3.9697,3.9697,3.9697,3.9697,3.9697,3.9697,3.9749,3.9878,4.0794,0.0,0.0,0.0,0.0,0.0,0.0,0.0,0.0,0.0,0.0,0.0,0.0,0.0,0.0,0.0,0.0,0.0,0.0,0.0,0.0,0.0,0.0,0.0,0.0,4.7309,4.7339,4.7399,4.7429,4.7399,4.7309,4.7369,4.7429,4.7429,4.8027,4.8386,4.8386,4.906,4.9419,4.9419,0.0,0.0,0.0,0.0,5.0584,5.1199,5.1229,5.1229,5.1229,5.1229,5.1229,5.1229,5.1229,5.1229,5.1229,5.1229,5.1259,5.1319,5.1319,5.1379,5.1439,5.1349,5.1319,5.1349,5.1409,5.1439,5.1528,0.0,0.0,0.0,0.0,0.0,0.0,0.0,4.2092,4.2092,4.2092,4.2092,4.2092,4.2092,4.2092,4.2092,4.2092,4.117,4.0366,3.9723,4.0002,4.0029,3.9724,3.9697,3.9697,3.9697,3.9697,3.9697,3.9697,3.9697,3.9697,3.9697,3.9697,3.9697,3.9697,3.9697,3.9697,3.9697,3.9697,3.9697,3.9697,3.9697,3.9697,3.9697,3.9697,3.9697,3.9697,3.9697,3.9826,4.0032,4.0262,4.1541,4.3218,4.3598,4.4915,0.0,0.0,0.0,0.0,0.0,0.0,0.0,0.0,0.0,0.0,0.0,0.0,0.0,0.0,0.0,0.0,0.0,0.0,0.0,4.7309,4.7309,4.7489,4.8027,4.8087,4.7908,4.7369,4.7788,4.8087,4.8087,4.8686,4.912,4.912,4.9673,5.0016,5.0016,5.0541,5.09,5.102,5.0973,5.1079,5.1229,5.1229,5.1229,5.1229,0.0,0.0,5.1229,5.1229,5.1229,5.1229,5.1229,5.1528,5.2007,5.2007,5.2336,5.2755,5.2217,5.2007,5.2067,5.2606,5.2785,5.2815,0.0,0.0,0.0,0.0,0.0,0.0,0.0,4.2092,4.2092,4.2092,4.2092,4.2092,4.2092,4.2092,4.2092,4.2092,4.1454,4.0896,4.0485,4.0341,4.0218,4.003,3.9778,3.9697,3.9697,3.9697,3.9697,3.9697,3.9697,3.9697,3.9697,3.9697,3.9697,3.9697,3.9697,3.9697,3.9697,3.9697,3.9697,3.9697,3.9697,3.9697,3.9697,3.9697,3.9697,3.9697,3.9697,3.98,4.0083,4.1219,4.2447,4.3693,4.484,4.5943,4.6756,0.0,0.0,0.0,0.0,0.0,0.0,0.0,0.0,0.0,0.0,0.0,0.0,0.0,0.0,4.7309,4.7309,0.0,4.7429,4.7758,4.7788,4.8027,4.873,4.882,4.87,4.8327,4.8566,4.882,4.882,4.9374,4.9763,4.9763,5.0361,5.0674,5.0674,5.105,5.1229,5.1229,5.1528,5.1708,5.1708,5.2037,5.2187,5.2187,5.2187,5.2187,5.2187,5.2187,5.2187,5.2187,5.2187,5.2396,5.2695,5.2695,5.2875,5.3174,5.3204,5.2995,5.2725,5.3054,5.3174,5.3234,0.0,0.0,0.0,0.0,0.0,0.0,0.0,4.2092,4.2092,4.2092,4.2092,4.2092,4.2092,4.2092,4.2092,4.2092,4.1782,4.1577,4.1515,4.097,4.0689,4.0601,4.0208,3.9981,3.9981,3.98,3.9697,3.9697,3.9697,3.9697,3.9697,3.9697,3.9697,3.9697,3.9697,3.9697,3.9697,3.9697,3.9697,3.9697,3.9697,3.9697,3.9697,3.9697,3.9697,3.9749,3.9929,4.0032,4.0364,4.2425,4.3409,4.4116,4.6032,4.6726,4.6887,4.6756,4.6844,0.0,0.0,0.0,0.0,0.0,0.0,0.0,0.0,4.7309,4.7309,4.7309,4.7309,4.7339,4.7489,4.7489,4.7698,4.8386,4.8476,4.8716,4.9374,4.9464,4.9494,4.9643,4.9523,4.9464,4.9464,5.0032,5.0375,5.0375,5.0883,5.1229,5.1229,5.1349,5.1409,5.1409,5.2037,5.2396,5.2396,5.2905,5.3174,5.3174,5.3174,5.3174,5.3174,5.3174,5.3174,5.3204,5.3324,5.3384,5.3384,5.3503,5.3563,5.3623,5.4192,5.4072,5.3563,5.3563,5.3563,5.3653,0.0,0.0,0.0,0.0,0.0,0.0,0.0,0.0,4.2092,4.2092,4.2092,4.2092,4.2092,4.2092,4.2092,4.2092,4.2067,4.1879,4.1531,4.1937,4.2021,4.1653,4.1251,4.1019,4.1019,4.0185,3.9697,3.9697,3.9697,3.9697,3.9697,3.9697,3.9697,3.9697,3.9697,3.9697,3.9697,3.9697,3.9697,3.9697,3.9697,3.9697,3.9697,3.9697,3.9697,3.9826,4.0693,4.1169,4.1568,4.2765,4.3984,4.5007,4.5417,4.6166,4.6931,4.7179,4.7266,4.7266,4.7222,4.7266,4.7309,4.7309,4.7309,4.7309,0.0,4.7309,4.7309,4.7309,4.7309,4.7489,4.8057,4.8177,4.8386,4.909,4.9209,4.9374,4.9986,5.0076,5.0315,5.093,5.0435,5.0076,5.0076,5.0674,5.1109,5.1109,5.1169,5.1229,5.1229,5.1768,5.2097,5.2097,5.2725,5.3084,5.3084,5.3144,5.3174,5.3174,5.3174,5.3174,5.3174,5.3174,5.3174,5.3204,5.3832,5.4102,5.4132,5.473,5.497,5.497,5.5059,5.5029,5.497,5.497,5.497,5.497,0.0,0.0,0.0,0.0,0.0,0.0,0.0,0.0,0.0,4.2092,4.2092,4.2092,4.2092,4.2092,4.2092,4.2092,4.2092,4.2013,4.1894,4.1877,4.1937,4.2113,4.1781,4.1736,4.2133,4.1095,4.0541,4.0541,3.9981,3.9697,3.9697,3.9697,3.9697,3.9697,3.9697,3.9697,3.9697,3.9697,3.9697,3.9749,4.0364,4.0541,4.0642,4.1295,4.1568,4.164,4.1319,4.1667,0.0,4.3815,4.461,4.5235,4.6211,4.677,4.7106,4.7062,4.7149,4.7309,4.7309,4.7309,4.7309,4.7309,4.7309,4.7309,4.7309,4.7309,4.7429,4.7788,4.7878,4.8087,4.8745,4.8865,4.9075,4.9733,4.9823,5.0062,5.0674,5.0764,5.0853,5.1199,5.0913,5.0764,5.0764,5.105,5.1229,5.1229,5.1229,5.1379,5.1768,5.2067,5.2366,5.2755,5.3414,5.3773,5.3773,5.4162,5.4341,5.4341,5.4341,5.4341,5.4341,5.4341,5.4341,5.4371,5.467,5.479,5.479,5.5089,5.5179,5.5179,5.5179,5.5179,5.5179,5.5179,5.5179,5.5179,0.0,0.0,0.0,0.0,0.0,0.0,0.0,0.0,0.0,0.0,4.2216,4.2092,4.2092,4.2092,4.2092,4.2092,4.2092,4.2092,4.2092,4.1981,4.2106,4.2559,4.2343,4.2465,4.2951,4.2128,4.1667,4.1667,4.0618,4.0134,4.0134,3.9826,3.9697,3.9697,3.9697,3.9697,3.9749,3.9981,4.0134,4.0211,4.1219,4.1667,4.1716,4.2598,4.3102,4.3313,4.2474,4.2716,4.3579,4.4886,4.5372,4.5644,4.6756,4.7179,4.7149,4.7062,4.7149,4.7309,4.7309,4.7309,4.7309,4.7309,4.7309,4.7369,4.7549,4.7578,4.7758,4.8416,4.8566,4.8835,4.9764,4.9944,5.02,5.1106,5.1227,5.141,5.1896,5.1727,5.1618,5.1618,5.1339,5.1229,5.1229,5.1229,5.1229,5.1229,5.1379,5.1708,5.2187,5.2546,5.2965,5.3443,5.4132,5.4491,5.4491,5.497,5.5179,5.5179,5.5179,5.5179,5.5179,5.5179,5.5299,5.5478,5.5478,5.5568,5.5718,5.5718,5.5718,5.5718,5.5718,5.5718,5.5718,5.5718,5.5478,5.5179,0.0,0.0,0.0,0.0,0.0,0.0,0.0,0.0,0.0,0.0,0.0,0.0,0.0,4.2092,4.2092,4.2092,4.2092,4.2092,4.2092,4.2673,4.295,4.2979,4.3215,4.3339,4.3367,4.2971,4.2744,4.2744,4.1667,4.1169,4.1119,4.0185,3.9697,3.9697,3.9697,3.9697,3.9749,4.0743,4.1169,4.1269,4.2306,4.2744,4.2792,4.2978,4.3579,4.4312,4.4499,4.473,4.507,4.5882,4.6358,4.6535,4.6609,4.6756,4.6975,4.7222,4.7309,4.7309,4.7309,4.7309,4.7309,4.7309,4.7309,4.7489,4.8117,4.8267,4.8446,4.9149,4.9269,4.9719,5.1216,5.1515,5.2038,5.3636,5.3859,5.3859,5.3891,5.3108,5.2561,5.2561,5.1727,5.1229,0.0,5.1229,5.1229,5.1229,5.1798,5.2187,5.2187,5.3443,5.4162,5.4192,5.482,5.5149,5.5149,5.5179,5.5179,5.5179,5.5179,5.5179,5.5179,5.5179,5.5538,5.6188,5.6188,5.6466,5.7034,5.7034,5.7034,5.7034,5.7034,5.7034,5.7034,5.7034,5.6256,5.5179,0.0,0.0,0.0,0.0,0.0,0.0,0.0,0.0,0.0,0.0,0.0,0.0,0.0,0.0,0.0,0.0,4.2092,4.2092,4.2092,4.2295,4.2586,4.2963,4.3099,4.3328,4.3788,4.3413,4.3185,4.3185,4.2602,4.2257,4.2257,4.1914,4.1766,4.1766,4.1766,4.1766,4.1766,4.211,4.2257,4.2355,4.3416,4.3796,4.389,4.4666,4.531,4.5837,0.0,4.5882,4.5808,4.6106,4.6491,4.68,4.68,4.6975,4.7149,4.7266,4.7309,4.7309,4.7309,4.7309,4.7309,4.7309,4.7638,4.8027,4.8237,4.8626,4.9134,4.9793,4.9912,5.0366,5.1966,5.2267,5.2639,5.3816,5.3976,5.3976,5.3976,5.3196,5.2606,5.2606,5.1773,0.0,0.0,0.0,0.0,5.1858,5.2486,5.3054,5.3503,5.3952,5.4401,5.485,5.5089,5.5179,5.5179,5.5179,5.5418,5.5837,5.6256,5.6466,5.6466,5.6466,5.6585,5.6795,5.6795,5.6885,5.7094,5.7094,5.7094,5.7094,5.7094,5.7094,5.7094,5.7094,5.6825,5.6466,0.0,0.0,0.0,0.0,0.0,0.0,0.0,0.0,0.0,0.0,0.0,0.0,0.0,0.0,0.0,0.0,0.0,4.2092,4.2092,4.2092,4.2266,4.2644,4.2876,4.3195,4.3631,4.3598,4.36,4.36,4.3231,4.2991,4.2991,4.2876,4.2792,4.2792,4.2792,4.2792,4.284,4.3177,4.3368,4.3416,4.448,4.4851,4.4943,4.573,4.618,0.0,4.6535,4.6535,4.6417,4.6417,4.6712,4.7019,4.6931,4.7062,4.7309,4.7309,4.7309,4.7309,4.7309,4.7309,4.7369,4.7608,4.7967,4.8416,4.8865,4.9314,4.9884,5.088,5.1046,5.1576,5.3234,5.3558,5.3891,5.4819,5.4943,5.4943,5.4943,5.419,5.3652,5.3903,5.2809,5.2315,0.0,5.2996,0.0,5.2576,5.3174,5.3743,5.4192,5.4431,5.476,5.5179,5.5179,5.5299,5.5538,5.5538,5.5867,5.6496,5.6915,5.7094,5.7094,5.7094,5.7244,5.7453,5.7453,5.7603,5.7812,5.7812,5.7812,5.7812,5.7812,5.7812,5.7812,5.7812,5.7812,5.7752,0.0,0.0,0.0,0.0,0.0,0.0,0.0,0.0,0.0,0.0,0.0,0.0,0.0,0.0,0.0,0.0,0.0,0.0,4.2133,4.2133,4.2133,4.2092,4.2644,4.2934,4.2934,4.3602,4.395,4.395,4.3617,4.3448,4.3403,4.3086,4.2882,4.2882,4.2909,4.2937,4.3033,4.3984,4.4359,4.4452,4.5475,4.594,4.594,4.6135,4.6195,4.6269,4.6535,4.6756,4.6931,4.6887,4.7062,4.7266,4.7019,4.7106,4.7309,4.7309,4.7309,4.7309,4.7309,4.7339,4.7489,4.8117,4.8327,4.8716,4.9897,5.0272,5.0773,5.2303,5.2651,5.3196,5.4952,5.5312,5.5595,5.6564,5.668,5.6713,5.6746,5.5974,5.5636,5.6349,5.4832,5.3975,5.4653,5.4504,5.41,5.3421,0.0,5.4251,5.4251,5.485,5.5179,5.5179,5.5209,5.5538,5.6166,5.6226,5.6555,5.7154,5.7184,5.7184,5.7184,5.7184,5.7543,5.8171,5.8171,5.853,5.9099,5.9099,5.9099,5.9099,5.9099,5.9099,5.9099,5.9099,5.9099,5.8919,0.0,0.0,0.0,0.0,0.0,0.0,0.0,0.0,0.0,0.0,0.0,0.0,0.0,0.0,0.0,0.0,0.0,0.0,4.2769,4.2769,4.2566,4.2133,4.2237,4.2324,4.2324,4.2934,4.3253,4.3253,4.3676,4.3862,4.3862,4.4199,4.4367,4.4395,4.4881,4.511,4.511,4.5384,4.5475,4.5549,4.5776,4.6001,4.6135,4.618,4.6447,4.6756,4.68,4.6975,4.7149,4.68,4.68,4.7019,4.7149,4.7266,4.7309,4.7309,4.7309,4.7309,4.7309,4.7668,4.8087,4.8237,4.9015,4.9777,5.0106,5.1122,5.2076,5.253,5.3183,5.3976,5.5108,5.5312,5.5595,5.6564,5.668,5.6879,5.7442,5.6726,5.6381,5.7135,5.6248,5.551,5.5456,5.5969,5.617,5.5778,5.5239,5.494,5.494,5.5089,5.5179,5.5179,5.5658,5.6068,5.6218,5.7124,5.7693,5.7872,5.8351,5.859,5.859,5.859,5.868,5.886,5.886,5.8949,5.9099,5.9099,5.9099,5.9099,5.9099,5.9099,5.9099,5.9099,5.9099,5.9069,0.0,0.0,0.0,0.0,0.0,0.0,0.0,0.0,0.0,0.0,0.0,0.0,0.0,0.0,0.0,0.0,0.0,0.0,0.0,4.314,4.285,4.2514,4.2514,4.2351,4.2092,4.2411,4.2615,4.2615,4.3224,4.3544,4.3573,4.4182,4.4647,4.4908,4.5285,4.5605,4.5895,4.5895,4.5895,0.0,0.0,4.6001,4.6225,4.6225,4.6491,4.6931,4.6931,4.7062,4.7266,4.7005,4.6975,4.7106,4.7266,4.7309,4.7309,4.7309,4.7309,4.7369,4.7668,4.7997,4.8416,4.8985,4.9657,5.0393,5.1076,5.1955,5.2829,5.3601,5.42,5.4861,5.5749,5.5908,5.6067,5.6603,5.6945,5.7309,5.774,5.7639,5.7781,5.8534,5.7764,5.7236,5.7393,5.747,5.7445,5.7292,5.6378,5.5819,5.5819,5.5401,5.5329,5.5598,5.5987,5.6436,5.7034,5.8052,5.856,5.856,5.8919,5.9099,5.9099,5.9099,5.9369,5.9789,5.9315,5.9339,5.9736,5.9285,5.9099,5.9153,5.9606,5.9499,5.9153,5.966,5.9499,5.9153,0.0,0.0,0.0,0.0,0.0,0.0,0.0,0.0,0.0,0.0,0.0,0.0,0.0,0.0,0.0,0.0,0.0,0.0,0.0,0.0,4.322,4.3101,4.3101,4.285,4.2257,4.2216,4.2175,4.2092,4.2615,4.2876,4.2905,4.3544,4.4124,4.4647,4.4821,4.5198,4.575,4.5837,4.5895,4.5895,4.594,4.6046,4.6269,0.0,4.6726,4.7119,4.7249,4.7422,4.7624,4.7495,4.7396,4.7309,4.7309,4.7309,4.7309,4.7309,4.7369,4.7549,4.8117,4.8505,4.8984,5.0125,5.0547,5.1077,5.2483,5.2874,5.3415,5.4952,5.5458,5.5879,5.6696,5.6912,5.6978,5.6978,5.7508,5.7972,5.8071,5.8634,5.933,6.0059,5.9353,5.9037,5.9522,5.8934,5.8405,5.8314,5.7512,5.6879,5.659,5.5761,5.5658,5.6406,5.6436,5.7004,5.8231,5.883,5.9099,5.9099,5.9099,5.9153,5.9315,5.9315,5.9895,6.0825,5.9948,6.0,6.065,5.9842,5.9446,5.9392,6.0494,6.0233,5.9446,6.0337,6.0106,5.9446,0.0,0.0,0.0,0.0,0.0,0.0,0.0,0.0,0.0,0.0,4.5646,4.5358,0.0,0.0,0.0,0.0,0.0,0.0,0.0,0.0,0.0,4.3771,4.3732,4.3457,4.285,4.285,4.2607,4.2092,4.2208,4.2266,4.2266,4.2876,4.3224,4.3369,4.4414,4.4937,4.5082,4.5663,4.5895,4.594,4.609,4.6314,4.6624,4.749,0.0,0.0,4.9044,4.9327,4.9247,4.8615,4.7892,4.7309,4.7309,4.7309,4.7309,4.7309,4.7698,4.8147,4.8267,4.9623,5.1094,5.1264,5.2343,5.3389,5.3687,5.4285,5.4911,5.5271,5.6399,5.7417,5.7608,5.8104,5.8502,5.8502,5.8634,5.8933,5.9529,5.9728,6.0092,6.0821,6.0762,6.0341,5.9674,6.0216,6.0216,5.9411,5.9189,5.8346,5.6686,5.6264,5.6555,5.7752,5.7782,5.8141,5.8919,5.9039,5.9099,5.9099,5.9099,5.9553,6.0442,6.0442,6.0979,6.2009,6.1841,0.0,6.0722,6.1489,6.1235,6.0546,6.1589,6.1387,6.0442,6.065,6.0598,6.0442,0.0,0.0,0.0,0.0,0.0,0.0,0.0,4.5823,4.5823,4.5823,4.5823,4.5682,4.5358,4.5321,4.5321,0.0,0.0,0.0,0.0,0.0,0.0,0.0,4.4358,4.412,4.3497,4.3457,4.3299,4.305,0.0,4.305,4.305,4.3307,4.3471,4.3524,4.4464,4.5081,4.5433,4.5783,4.6417,4.7233,4.7003,4.7362,4.8168,0.0,0.0,0.0,4.9647,4.9805,4.9726,4.9327,4.8953,4.8532,4.8103,4.7666,4.7396,4.7849,4.8432,4.9053,4.9417,5.0864,5.2391,5.2766,5.3424,5.4105,5.4569,5.5026,5.5434,5.5948,5.6968,5.7806,5.7806,5.8403,5.8899,5.8899,5.9231,5.9595,5.996,6.0324,6.0721,6.1053,6.1119,6.0919,6.0463,6.0835,6.0919,6.042,6.0239,5.9511,5.798,5.7456,5.7483,5.8112,5.8995,5.9613,5.9948,5.9948,5.9948,5.9948,5.9948,6.018,6.0753,6.1286,6.2139,6.31,6.2534,6.2337,6.2337,6.2337,6.199,6.164,6.2729,6.2485,6.1589,6.2139,6.199,6.164,0.0,0.0,0.0,0.0,0.0,0.0,0.0,4.5823,4.5823,4.5823,4.5823,4.5823,4.5823,4.5823,4.5823,0.0,0.0,0.0,0.0,0.0,0.0,0.0,0.0,0.0,4.412,0.0,0.0,4.3888,4.3888,0.0,0.0,0.0,0.0,0.0,4.4721,4.5418,4.5913,4.6284,4.7233,0.0,0.0,4.8553,0.0,0.0,0.0,0.0,0.0,5.0384,5.0345,5.0119,5.0112,4.9962,4.9318,4.8532,4.8007,4.8852,4.9553,5.0235,5.0917,5.2282,5.3617,5.4147,5.4443,5.4778,5.5434,5.5595,5.5861,5.6762,5.7508,5.8071,5.8237,5.8866,5.9363,5.9363,5.986,6.0258,6.0258,6.0755,6.1119,6.1119,6.1119,6.1119,6.1119,6.1119,6.1119,6.1119,6.099,6.0495,5.9602,5.905,5.888,5.9031,6.0321,6.1031,6.1031,6.1031,6.1031,6.1031,6.1031,6.1184,6.1387,6.2288,6.3212,6.4175,6.3308,6.3308,6.3847,6.3212,6.2875,6.2729,6.3815,6.3578,6.2729,6.3578,6.3388,6.2778,0.0,0.0,0.0,0.0,0.0,0.0,0.0,4.5823,4.5823,4.5823,4.5823,4.5823,4.5823,4.5823,4.5823,0.0,0.0,0.0,0.0,0.0,0.0,0.0,0.0,0.0,0.0,0.0,0.0,4.3888,4.3888,0.0,0.0,0.0,0.0,0.0,0.0,4.5839,4.6001,4.7618,0.0,0.0,0.0,0.0,0.0,0.0,0.0,0.0,0.0,5.2161,5.2053,5.1247,5.0989,5.0951,5.0876,5.0267,4.9733,5.0474,5.1177,5.183,5.2566,5.393,5.5093,5.5158,5.5829,5.6486,5.6564,5.6564,5.6801,5.7541,5.827,5.8999,5.9661,6.039,6.092,6.092,6.0953,6.102,6.102,6.1053,6.1119,6.1119,6.1119,6.1119,6.1119,6.1119,6.1119,6.1119,6.1403,6.1427,6.112,6.1004,6.1285,6.1914,6.2076,6.2157,6.2157,6.2157,6.2157,6.2157,6.2157,6.268,6.3611,6.3705,6.4314,6.5291,6.5168,6.4636,0.0,6.4806,6.4591,6.3847,6.4852,6.4636,6.3753,6.3847,6.3847,6.3753,0.0,0.0,0.0,0.0,0.0,0.0,4.5823,4.5823,4.5823,4.5823,4.5823,4.5823,4.5823,4.5823,4.5823,4.5823,0.0,0.0,0.0,0.0,0.0,0.0,0.0,0.0,0.0,0.0,4.5284,4.5024,4.5024,0.0,0.0,0.0,0.0,0.0,0.0,4.6462,4.6594,4.7958,0.0,0.0,0.0,0.0,0.0,0.0,0.0,0.0,0.0,0.0,5.2338,5.198,5.1871,5.1871,5.1871,5.1913,5.1934,5.1733,5.2187,5.2893,5.364,5.4955,5.6139,5.6139,5.6414,5.668,5.668,5.668,5.6912,5.7641,5.8369,5.9131,5.986,6.0622,6.1119,6.1119,6.1119,6.1119,6.1119,6.1119,6.1119,6.1119,6.1119,6.1119,6.1119,6.1119,6.1483,6.2345,6.2562,6.2998,6.3747,6.2604,6.2021,6.2306,6.2923,6.3244,6.3244,6.3244,6.3244,6.3244,6.3244,6.3483,6.3894,6.4531,6.5033,6.5425,6.5425,6.5168,0.0,6.5213,6.5168,6.4852,6.5213,6.5168,6.4806,6.4806,6.4806,6.4806,0.0,0.0,0.0,0.0,0.0,4.5823,4.5823,4.5823,4.5823,4.5823,4.5823,4.5823,4.5823,4.5823,4.5823,4.5823,4.5823,0.0,0.0,0.0,0.0,0.0,0.0,0.0,0.0,0.0,4.5823,4.5823,4.5823,4.5823,0.0,0.0,4.5573,4.5167,0.0,0.0,0.0,0.0,0.0,0.0,0.0,0.0,0.0,0.0,0.0,0.0,0.0,0.0,0.0,0.0,0.0,5.2409,5.2409,5.287,5.3324,5.2964,5.3367,5.4156,5.4875,5.5895,5.668,5.668,5.668,5.668,5.668,5.6846,5.721,5.7972,5.8701,5.9463,6.0191,6.0755,6.1119,6.1119,6.1119,6.1119,6.1119,6.1119,6.1119,6.1119,6.1119,6.1119,6.1119,6.1318,6.1947,6.3216,6.3514,6.4133,6.5359,6.4002,6.3212,6.3212,6.3955,6.4314,6.4314,6.4314,6.4314,6.4314,6.4314,6.4314,6.436,6.5078,6.5425,6.5425,6.5425,6.5425,0.0,6.5425,6.5425,6.5425,6.5425,6.5425,6.5425,6.5425,6.5425,6.5425,0.0,0.0,0.0,0.0,0.0,0.0,4.5823,4.5823,4.5823,4.5823,4.5823,4.5823,4.5823,4.5823,4.5823,4.5823,4.5823,0.0,0.0,0.0,0.0,0.0,0.0,0.0,0.0,0.0,4.5823,4.5823,4.5823,4.5823,4.5823,4.5823,4.5823,4.585,0.0,0.0,0.0,0.0,0.0,0.0,0.0,0.0,0.0,0.0,0.0,0.0,0.0,0.0,0.0,0.0,0.0,0.0,0.0,5.287,5.3566,5.4258,5.4986,5.5747,5.6481,5.668,5.668,5.668,5.668,5.668,5.668,5.7243,5.8005,5.8734,5.9496,6.0225,6.0953,6.1086,6.1119,6.1119,6.1119,6.1119,6.1119,6.1119,6.1119,6.1119,6.1119,6.1119,6.1119,6.1748,6.252,6.3249,6.4011,0.0,6.5359,6.5381,6.5381,6.5381,6.5381,6.5381,6.5381,6.5381,6.5381,6.5381,6.5381,6.5381,6.5381,6.5425,6.5425,6.5425,6.5425,6.5425,0.0,6.5425,6.5425,6.5425,6.5425,6.5425,6.5425,6.5425,6.5425,6.5425,0.0,0.0,0.0,0.0,0.0,0.0,0.0,4.6108,4.5823,4.5823,4.5823,4.5823,4.5823,4.5823,4.5823,4.5823,4.5823,0.0,0.0,0.0,0.0,0.0,0.0,0.0,0.0,0.0,4.5823,4.5823,4.6012,4.6124,4.6124,4.6124,4.6124,4.6219,4.7654,4.8366,0.0,0.0,0.0,0.0,0.0,0.0,0.0,0.0,0.0,0.0,0.0,0.0,0.0,0.0,0.0,0.0,0.0,0.0,0.0,5.5019,5.5416,5.5747,5.6481,5.668,5.668,5.668,5.668,5.668,5.668,5.7243,5.8005,5.8734,5.9496,6.0225,6.0953,6.1119,6.1119,6.1119,6.1119,6.1119,6.1119,6.1119,6.1119,6.1119,6.1119,6.1119,6.1119,6.1748,6.252,6.3249,6.4011,6.4664,6.5359,6.5425,6.5425,6.5425,6.5425,6.5425,6.5425,6.5425,6.5425,6.5425,6.5425,6.5425,6.5425,6.5425,6.5425,6.5425,6.5425,6.5425,6.5425,6.5425,6.5425,6.5425,6.5425,6.5425,6.5425,6.5425,6.5425,6.5425,0.0,0.0,0.0,0.0,0.0,0.0,0.0,4.6613,4.6171,4.6171,4.5981,4.5823,4.5823,4.6044,4.6191,4.6191,4.6477,0.0,0.0,0.0,0.0,0.0,0.0,0.0,4.6582,4.6582,4.6617,4.6687,4.6896,4.683,4.662,4.662,4.6641,4.6785,4.797,4.879,0.0,0.0,0.0,0.0,0.0,0.0,5.2409,0.0,0.0,0.0,0.0,0.0,0.0,0.0,0.0,0.0,0.0,0.0,0.0,0.0,5.5819,5.6117,5.6581,5.668,5.668,5.668,5.668,5.668,5.668,5.7475,5.8336,5.88,5.9694,6.0556,6.102,6.1119,6.1119,6.1119,6.1119,6.1119,6.1119,6.1119,6.1119,6.1119,6.1119,6.1119,6.1119,6.2013,6.2818,6.3282,6.42,6.4962,6.5392,6.5425,6.5425,6.5425,6.5425,6.5425,6.5425,6.5425,6.5425,6.5425,6.5425,6.5425,6.5425,6.5425,6.5425,6.5425,6.5425,6.5425,0.0,6.5425,6.5425,6.5425,6.5425,6.5425,6.5425,6.5425,6.5425,6.5425,0.0,0.0,0.0,0.0,0.0,0.0,0.0,4.734,4.6866,4.6866,4.6334,4.5959,4.5959,4.6509,4.6896,4.6896,0.0,0.0,0.0,0.0,0.0,0.0,0.0,0.0,4.7901,4.7901,4.7998,4.8094,4.8126,4.7868,4.7238,4.7271,4.7422,4.7641,4.8413,4.9519,5.0955,0.0,0.0,0.0,5.2409,5.2409,0.0,0.0,0.0,0.0,0.0,0.0,0.0,0.0,0.0,0.0,0.0,0.0,0.0,0.0,0.0,0.0,0.0,5.668,5.668,5.668,5.668,5.6713,5.6746,5.7873,0.0,5.8966,6.0125,6.1119,6.1119,6.1119,6.1119,6.1119,6.1119,6.1119,6.1119,6.1119,6.1119,6.1185,6.1152,6.1152,6.1251,6.2477,6.3348,6.3338,6.463,6.5425,6.5425,6.5425,6.5425,6.5425,6.5425,6.5425,6.5425,6.5425,6.5425,6.5425,6.5425,6.5425,6.5425,6.5425,6.5425,0.0,6.5425,6.5425,6.5425,6.5425,6.5425,6.5425,6.5425,6.5425,6.5425,6.5425,6.547,6.5514,0.0,0.0,0.0,0.0,0.0,0.0,0.0,0.0,0.0,0.0,4.7508,4.7423,4.7423,4.7564,4.7638,0.0,0.0,0.0,0.0,0.0,0.0,0.0,0.0,0.0,4.8063,4.8125,4.8221,4.8253,4.857,4.8635,4.8478,4.9046,4.9351,4.9456,5.0794,5.1831,5.2533,5.2451,0.0,0.0,5.2409,5.2409,0.0,0.0,0.0,0.0,5.2409,5.2409,0.0,0.0,0.0,0.0,0.0,0.0,0.0,0.0,5.6547,5.668,5.668,0.0,5.668,5.668,5.668,5.6846,0.0,5.8237,5.9065,5.9628,6.049,6.1119,6.1119,6.1119,6.1119,6.1119,6.1119,6.1119,6.1119,6.1119,6.1318,6.1848,6.145,6.155,6.2643,6.3116,6.3504,6.4067,6.4929,6.5425,6.5425,6.5425,6.5425,6.5425,6.5425,6.5425,6.5425,6.5425,6.5425,6.5425,6.5425,6.5425,6.5425,6.5425,6.5425,6.5425,6.5425,6.5425,6.5425,6.5425,6.5425,6.5425,6.5425,6.5514,6.5692,6.5692,6.5824,6.5922,0.0,0.0,0.0,0.0,0.0,0.0,0.0,0.0,0.0,0.0,0.0,0.0,0.0,0.0,0.0,0.0,0.0,0.0,0.0,0.0,0.0,0.0,0.0,4.9067,4.9158,4.9248,4.9304,4.9364,4.9576,4.9688,4.9759,5.0134,5.0589,5.1112,5.2461,5.3175,5.3449,5.3213,5.2939,5.2731,5.2973,0.0,0.0,0.0,0.0,0.0,5.2409,5.2409,0.0,5.2738,5.3102,5.3599,0.0,0.0,0.0,0.0,5.668,5.668,5.668,5.668,5.668,5.668,5.668,5.6879,5.7608,5.8369,5.9098,5.986,6.0589,6.1119,6.1119,6.1119,6.1119,6.1119,6.1119,6.1119,6.1119,6.1384,6.1616,6.1682,6.1947,6.2278,6.2752,6.3415,6.3935,6.4365,6.5028,6.5425,6.5425,6.5425,6.5425,6.5425,6.5425,6.5425,6.5425,6.5425,6.5425,6.5425,6.5425,6.5425,6.5425,6.5425,6.5425,6.5425,6.5425,6.5425,6.5425,6.5425,6.5425,6.5425,6.5425,6.5559,6.578,6.578,6.5955,6.6095,0.0,0.0,0.0,0.0,0.0,0.0,0.0,0.0,0.0,0.0,0.0,0.0,0.0,0.0,0.0,0.0,0.0,0.0,0.0,0.0,0.0,0.0,5.0341,5.0313,5.0425,5.0453,5.0537,5.0675,5.078,5.085,5.0883,5.1154,5.1802,5.2827,5.3637,5.4009,5.4009,5.3945,5.3649,5.3281,5.3715,0.0,0.0,0.0,0.0,0.0,0.0,0.0,0.0,5.3313,5.3573,5.3831,5.5302,0.0,0.0,0.0,0.0,0.0,5.668,5.668,5.668,5.668,5.6779,5.7044,5.7806,5.8535,5.9264,6.0026,6.0688,6.1119,6.1119,6.1119,6.1119,6.1119,6.1119,6.1119,6.1119,6.1616,6.1848,6.1483,6.2444,6.305,6.2752,6.3703,6.4432,6.4531,6.5094,6.5425,6.5425,6.5425,6.5425,6.5425,6.5425,6.5425,6.5425,6.5425,6.5425,6.5425,6.5425,6.5425,6.5425,6.5425,6.5425,6.5425,6.5425,0.0,6.5425,6.5425,6.5425,6.5425,6.5425,6.5603,6.5824,6.5824,6.5999,6.6225,0.0,0.0,0.0,0.0,0.0,0.0,0.0,0.0,0.0,0.0,0.0,0.0,0.0,0.0,0.0,0.0,0.0,0.0,0.0,0.0,0.0,5.0792,5.0647,5.053,5.0557,5.0764,5.0819,5.0846,5.1478,5.1808,5.1801,5.3159,5.4215,5.4999,5.4738,5.4586,5.4554,5.4074,5.3847,5.3781,5.3879,0.0,0.0,0.0,0.0,0.0,0.0,0.0,0.0,5.3916,5.4231,5.4568,5.5953,0.0,0.0,0.0,0.0,0.0,5.668,5.668,5.668,5.668,5.7144,5.7806,5.8568,5.9297,6.0059,6.0788,6.102,6.1119,6.1119,6.1119,6.1119,6.1119,6.1119,6.1119,6.1119,6.1218,6.1682,6.2808,6.2619,6.3007,6.4763,6.4597,6.463,6.5194,6.5359,6.5425,6.5425,6.5425,6.5425,6.5425,6.5425,6.5425,6.5425,6.5425,6.5425,6.5425,6.5425,6.5425,6.5425,6.5425,6.5425,6.5425,0.0,6.5425,6.5425,6.5425,6.5425,6.5425,6.5425,6.5658,6.6052,6.6052,6.6311,6.6686,0.0,0.0,0.0,0.0,0.0,0.0,0.0,0.0,0.0,0.0,0.0,0.0,0.0,0.0,0.0,0.0,0.0,0.0,0.0,0.0,5.1962,5.2137,5.2046,5.1598,5.0792,5.1232,5.1505,5.1505,5.2277,5.2839,5.3296,5.4419,5.5156,5.5478,5.5234,5.4992,5.471,5.4741,5.4425,5.3945,0.0,0.0,0.0,0.0,0.0,0.0,0.0,0.0,0.0,0.0,5.5439,5.5783,5.7103,0.0,0.0,0.0,0.0,0.0,5.668,5.668,5.668,5.668,5.7243,5.7972,5.8734,5.9463,6.0225,6.0953,6.1119,6.1119,6.1119,6.1119,6.1119,6.1119,6.1119,6.1119,6.1119,6.145,6.1947,6.2652,6.3116,6.3769,6.4763,6.4895,6.5061,6.5392,6.5425,6.5425,6.5425,6.5425,6.5425,6.5425,6.5425,6.5425,6.5425,6.5425,6.5425,6.5425,6.5425,6.5425,6.5425,6.5425,6.5425,6.5425,0.0,6.5425,6.5425,6.5425,6.5514,6.5603,6.5603,6.5911,6.6345,6.643,6.6643,6.6812,0.0,0.0,0.0,0.0,0.0,0.0,0.0,0.0,0.0,0.0,0.0,0.0,0.0,0.0,0.0,0.0,0.0,0.0,0.0,5.3048,5.3218,5.3218,5.3218,5.2656,5.1435,5.1997,5.2277,5.2277,5.305,5.3822,5.4595,5.5227,5.5507,5.5507,5.5507,5.5264,5.4896,5.5329,5.5022,5.433,0.0,0.0,0.0,0.0,0.0,0.0,0.0,0.0,0.0,0.0,0.0,0.0,0.0,0.0,0.0,5.7514,5.7289,5.6872,5.6719,5.668,5.6713,5.6912,5.7508,5.8204,5.8767,5.9595,6.0423,6.0986,6.1119,6.1119,6.1119,6.1119,6.1119,6.1119,6.1119,6.1119,6.1119,6.1715,6.2288,6.2453,6.3603,6.4432,6.4597,6.5094,6.5425,6.5425,6.5425,6.5425,6.5425,6.5425,6.5425,6.5425,6.5425,6.5425,6.5425,6.5425,6.5425,6.5425,6.5425,6.5425,6.5425,6.5425,6.5425,6.5425,6.5425,6.5425,6.5514,6.5514,6.5603,6.578,6.5867,6.6129,6.6507,6.6728,6.6812,6.6812,0.0,0.0,0.0,0.0,0.0,0.0,0.0,0.0,0.0,0.0,0.0,0.0,0.0,0.0,0.0,0.0,0.0,0.0,0.0,5.307,5.3218,5.3218,5.3218,5.3148,5.3043,5.3113,5.3113,5.3113,5.3857,5.463,5.5437,5.5472,5.5507,5.5507,5.5507,5.5478,5.5448,5.5478,5.5448,5.5389,5.5478,0.0,0.0,0.0,0.0,0.0,0.0,0.0,0.0,0.0,0.0,0.0,0.0,0.0,5.8209,5.7735,5.7588,5.7402,5.6834,5.668,5.6846,5.7541,5.827,5.8833,5.8899,5.9993,6.1053,6.1086,6.1119,6.1119,6.1119,6.1119,6.1119,6.1119,6.1119,6.1119,6.1119,6.1715,6.2453,6.315,6.3945,6.463,6.5293,6.5392,6.5425,6.5425,6.5425,6.5425,6.5425,6.5425,6.5425,6.5425,6.5425,6.5425,6.5425,6.5425,6.5425,6.5425,6.5425,6.5425,6.5425,6.5425,6.5425,6.5425,6.5425,6.5559,6.578,6.578,6.578,6.5824,6.6009,6.6259,6.6507,6.6728,6.6812,6.6812,0.0,0.0,0.0,0.0,0.0,0.0,0.0,0.0,0.0,0.0,0.0,0.0,0.0,0.0,0.0,0.0,0.0,0.0,0.0,5.4507,5.463,5.463,5.463,5.463,5.463,5.4138,5.3892,5.3892,5.4665,5.5227,5.5507,5.5507,5.5507,5.5507,5.5507,5.5294,5.5022,5.5359,5.5329,5.5053,5.5389,5.5507,0.0,0.0,0.0,0.0,0.0,0.0,0.0,0.0,5.8652,5.87,5.9513,5.9148,5.8386,5.8173,5.7848,5.7476,5.6872,5.668,5.6879,5.7608,5.8336,5.9032,5.9496,6.039,6.1119,6.1119,6.1119,6.1119,6.1119,6.1119,6.1119,6.1119,6.1119,6.1119,6.1119,6.1715,6.2487,6.3216,6.3978,6.4664,6.5326,6.5425,6.5425,6.5425,6.5425,6.5425,6.5425,6.5425,6.5425,6.5425,6.5425,6.5425,6.5425,6.5425,6.5425,6.5425,6.5425,6.5425,6.5425,6.5425,6.5514,6.5647,6.547,6.5559,6.578,6.578,6.578,6.5824,6.6215,6.6473,6.672,6.677,6.6812,6.6812,0.0,0.0,0.0,0.0,0.0,0.0,0.0,0.0,0.0,0.0,0.0,0.0,0.0,0.0,0.0,0.0,0.0,0.0,5.5259,5.5413,5.5507,5.5507,5.5507,5.5507,5.5507,5.4981,5.47,5.47,5.5227,5.5507,5.5507,5.5507,5.5507,5.5507,5.5507,5.5299,5.4992,5.5359,5.5264,5.4992,5.5359,5.5507,0.0,0.0,0.0,0.0,0.0,0.0,0.0,0.0,5.9461,5.9617,5.9975,5.9549,5.8875,5.8527,5.828,5.7957,5.7214,5.7153,5.752,5.8214,5.886,5.9429,6.0191,6.0755,6.1119,6.1119,6.1119,6.1119,6.1119,6.1119,6.1119,6.1119,6.1119,6.1185,6.1417,6.2047,6.2851,6.3537,6.4266,6.4895,6.5359,6.5425,6.5425,6.5425,6.5425,6.5425,6.5425,6.5425,6.5425,6.5425,6.5425,6.5425,6.5425,6.5425,6.5425,6.5425,6.5425,6.5425,6.5425,6.5514,6.5603,6.5647,6.5647,6.5736,6.5911,6.5955,6.6042,6.6129,6.6421,6.6635,6.6812,6.6812,6.6812,6.6812,0.0,0.0,0.0,0.0,0.0,0.0,0.0,0.0,0.0,0.0,0.0,0.0,0.0,0.0,0.0,0.0,0.0,0.0,5.5478,5.5507,5.5507,5.5507,5.5507,5.5507,5.5507,5.5507,5.5507,5.5507,5.5507,5.5507,5.5507,5.5507,5.5507,5.5507,5.5507,5.5507,5.5507,5.5507,5.5507,5.5507,5.5507,5.5507,5.5613,0.0,0.0,0.0,0.0,0.0,0.0,0.0,6.0107,6.0107,6.0107,6.0107,5.9879,5.8737,5.8806,5.9012,5.7918,5.8126,5.8829,5.9497,5.9871,6.0191,6.0953,6.1119,6.1119,6.1119,6.1119,6.1119,6.1119,6.1119,6.1119,6.1119,6.1119,6.1351,6.2122,6.2851,6.358,6.4299,6.4995,6.5425,6.5425,6.5425,6.5425,6.5425,6.5425,6.5425,6.5425,6.5425,6.5425,6.5425,6.5425,6.5425,6.5425,6.5425,6.5425,6.5425,6.5425,6.5425,6.5425,6.5692,6.5647,6.547,6.5878,6.6095,6.6139,6.6421,6.6635,6.677,6.6592,6.6635,6.6812,6.6812,6.6812,6.6812,0.0,0.0,0.0,0.0,0.0,0.0,0.0,0.0,0.0,0.0,0.0,0.0,0.0,0.0,0.0,0.0,0.0,0.0,5.5478,5.5507,5.5507,5.5507,5.5507,5.5507,5.5507,5.5507,5.5507,5.5507,5.5507,5.5507,5.5507,5.5507,5.5507,5.5507,5.5507,5.5507,5.5507,5.5507,5.5507,5.5507,5.5507,5.5823,5.6315,0.0,0.0,0.0,0.0,0.0,0.0,0.0,0.0,0.0,6.0107,5.9846,5.9485,5.9114,5.8597,5.8029,5.7698,5.7825,5.8247,5.8979,5.9551,6.0191,6.0953,6.1119,6.1119,6.1119,6.1119,6.1119,6.1119,6.1119,6.1119,6.1119,6.1119,6.1351,6.2122,6.2851,6.358,6.4299,6.4995,6.5425,6.5425,6.5425,6.5425,6.5425,6.5425,6.5425,6.5425,6.5425,6.5425,6.5425,6.5425,6.5425,6.5425,6.5425,6.5425,6.5425,6.5425,6.5514,6.5692,6.5559,6.5736,6.6129,6.5955,6.6086,6.6345,6.6259,6.6473,6.677,6.6592,6.6635,6.6812,6.6812,6.6812,6.6812,0.0,0.0,0.0,0.0,0.0,0.0,0.0,0.0,0.0,0.0,5.4271,5.4592,0.0,0.0,0.0,0.0,0.0,0.0,0.0,5.5174,5.5264,5.5478,5.5507,5.5507,5.5507,5.5507,5.5507,5.5507,5.5507,5.5507,5.5507,5.5507,5.5507,5.5507,5.5507,5.5507,5.5507,5.5507,5.5683,5.5929,5.5929,5.6385,5.7122,0.0,0.0,0.0,0.0,0.0,0.0,0.0,0.0,0.0,6.0107,5.9879,5.9551,5.908,5.8632,5.8241,5.8106,5.8299,5.8725,5.9458,6.0056,6.0556,6.102,6.1119,6.1119,6.1119,6.1119,6.1119,6.1119,6.1119,6.1119,6.1119,6.1351,6.1781,6.2553,6.3282,6.3968,6.4697,6.516,6.5425,6.5425,6.5425,6.5425,6.5425,6.5425,6.5425,6.5425,6.5425,6.5425,6.5425,6.5425,6.5425,6.5425,6.5425,6.5425,6.5425,6.5425,6.5559,6.578,6.5736,6.5955,6.6302,6.6129,6.6259,6.6635,6.6473,6.6525,6.677,6.6677,6.6686,6.6812,6.6812,6.6812,6.6812,0.0,0.0,0.0,0.0,0.0,0.0,0.0,0.0,0.0,0.0,5.4239,5.4271,0.0,0.0,0.0,0.0,0.0,0.0,0.0,0.0,5.4992,5.5478,5.5507,5.5507,5.5507,5.5507,5.5507,5.5507,5.5507,5.5507,5.5507,5.5507,5.5507,5.5507,5.5507,5.5507,5.5507,5.5578,5.5999,5.6596,5.6666,5.7193,5.8,5.8737,0.0,0.0,0.0,0.0,0.0,0.0,0.0,0.0,6.0107,6.0075,5.9814,5.8841,5.8909,5.9254,5.8869,5.9271,5.9934,6.0561,6.0932,6.1119,6.1119,6.1119,6.1119,6.1119,6.1119,6.1119,6.1119,6.1119,6.1119,6.1119,6.1715,6.2487,6.3216,6.3902,6.463,6.5326,6.5425,6.5425,6.5425,6.5425,6.5425,6.5425,6.5425,6.5425,6.5425,6.5425,6.5425,6.5425,6.5425,6.5425,6.5425,6.5425,6.5425,6.5425,6.5425,6.5559,6.578,6.5965,6.6052,6.6095,6.6388,6.6635,6.6812,6.6812,6.6812,6.6812,6.6812,6.6812,6.6812,6.6812,6.6812,6.6812,0.0,0.0,0.0,0.0,0.0,0.0,0.0,0.0,0.0,0.0,0.0,0.0,0.0,0.0,0.0,0.0,0.0,0.0,0.0,0.0,5.5389,5.5478,5.5507,5.5507,5.5507,5.5507,5.5507,5.5507,5.5507,5.5507,5.5507,5.5507,5.5507,5.5507,5.5507,5.5507,5.5543,5.6139,5.6455,5.6666,5.7298,5.8035,5.8773,5.8948,5.9369,0.0,0.0,0.0,0.0,0.0,0.0,0.0,6.0107,5.9814,5.9518,5.9683,5.9631,5.9523,5.937,5.9983,6.0567,6.0251,6.0638,6.1119,6.1119,6.1119,6.1119,6.1119,6.1119,6.1119,6.1119,6.1119,6.1119,6.1119,6.1715,6.2487,6.3216,6.3902,6.463,6.5326,6.5425,6.5425,6.5425,6.5425,6.5425,6.5425,6.5425,6.5425,6.5425,6.5425,6.5425,6.5425,6.5425,6.5425,6.5425,6.5425,6.5425,6.5425,6.5425,6.5559,6.578,6.5647,6.5746,6.6139,6.6558,6.677,6.6812,6.6812,6.6812,6.6812,6.6812,6.6812,6.6812,6.6812,6.6812,6.6812,0.0,0.0,0.0,0.0,0.0,0.0,0.0,0.0,0.0,0.0,0.0,0.0,0.0,0.0,0.0,0.0,0.0,0.0,0.0,0.0,5.4834,5.5113,5.5359,5.5507,5.5507,5.5507,5.5507,5.5507,5.5507,5.5507,5.5507,5.5507,5.5507,5.5543,5.5894,5.6034,5.6069,5.6842,5.7403,5.779,5.8211,5.8843,5.9513,5.9254,5.9402,5.9683,5.9383,0.0,0.0,0.0,0.0,0.0,0.0,0.0,5.9683,5.9716,5.9391,5.9138,5.9488,5.9775,6.0038,6.0439,6.0821,6.1119,6.1119,6.1119,6.1119,6.1119,6.1119,6.1119,6.1119,6.1119,6.1119,6.1119,6.2013,6.2884,6.3282,6.42,6.5028,6.5359,6.5425,6.5425,6.5425,6.5425,6.5425,6.5425,6.5425,6.5425,6.5425,6.5425,6.5425,6.5425,6.5425,6.5425,6.5425,6.5425,6.5425,6.5425,6.5425,6.547,6.5603,6.5692,6.5955,6.6302,6.6558,6.6686,6.6812,6.6812,6.6812,6.6812,6.6812,6.6812,6.6812,6.6812,6.6812,6.6812,0.0,0.0,0.0,0.0,0.0,0.0,0.0,0.0,0.0,0.0,0.0,0.0,0.0,0.0,0.0,0.0,0.0,0.0,0.0,0.0,0.0,5.4554,5.5144,5.5448,5.5359,5.5448,5.5507,5.5507,5.5507,5.5507,5.5507,5.5507,5.5578,5.5718,5.6315,5.6666,5.6842,5.7684,5.8324,5.8857,5.8997,5.9354,5.9748,5.9283,5.9182,5.9216,5.8737,5.8875,5.9318,5.9318,0.0,0.0,0.0,0.0,5.9975,5.9485,5.9151,5.9035,5.9557,5.947,5.9562,6.0821,6.1119,6.1119,6.1119,6.1119,6.1119,6.1119,6.1119,6.1119,6.1119,6.1119,6.1152,6.1285,6.2411,6.3348,6.3481,6.4597,6.5425,6.5425,6.5425,6.5425,6.5425,6.5425,6.5425,6.5425,6.5425,6.5425,6.5425,6.5425,6.5425,6.5425,6.5425,6.5425,6.5425,6.5481,6.557,6.557,6.5702,6.5746,6.5746,6.6192,6.644,6.6464,6.6507,6.6677,6.6812,6.6812,6.6812,6.6812,6.6812,6.6812,6.6812,6.6812,6.6812,6.6812,0.0,0.0,0.0,0.0,0.0,0.0,0.0,0.0,0.0,0.0,5.3111,5.2973,0.0,0.0,0.0,0.0,0.0,0.0,5.4009,0.0,0.0,5.4009,5.4992,5.5264,5.4803,5.5234,5.5507,5.5507,5.5507,5.5507,5.5507,5.5507,5.5859,5.6455,5.6561,5.6982,5.7684,5.8492,5.8625,5.8309,5.8968,5.9011,5.8632,5.8562,5.8841,5.9318,5.9182,5.9216,5.9318,5.9318,5.9351,0.0,0.0,0.0,5.9975,5.9485,6.0151,6.0872,5.9975,6.0238,6.0854,6.1053,6.1119,6.1119,6.1119,6.1119,6.1119,6.1119,6.1119,6.1119,6.1119,6.1119,6.1318,6.1956,6.2785,6.3547,6.4133,6.4929,6.5425,6.5425,6.5425,6.5425,6.5425,6.5425,6.5425,6.5425,6.5425,6.5425,6.5425,6.5425,6.5425,6.5425,6.5425,6.5425,6.5425,6.5975,6.6278,6.6278,6.687,6.712,6.7161,6.7507,6.7134,6.6182,6.6601,6.677,6.6812,6.6812,6.6812,6.6812,6.6812,6.6812,6.6812,6.6812,6.6812,6.6812,0.0,0.0,0.0,0.0,0.0,0.0,0.0,0.0,0.0,0.0,0.0,5.3483,0.0,0.0,0.0,5.3516,5.3483,5.3449,5.3449,5.3945,5.4139,5.3912,5.4648,5.4961,5.471,5.5204,5.5359,5.5053,5.5359,5.5718,5.6139,5.6139,5.628,5.6631,5.7199,5.7824,5.8496,5.8619,5.8697,5.8766,5.8772,5.8841,5.8841,5.8173,5.8315,5.8702,5.8067,5.8065,5.8386,5.8702,5.9012,5.9318,5.9318,0.0,0.0,0.0,6.0462,6.0928,6.0511,6.0991,6.1506,6.1169,6.1375,6.1506,6.1169,6.1119,6.1119,6.1119,6.1119,6.1119,6.1119,6.1119,6.1351,6.2089,6.2818,6.3504,6.4233,6.4962,6.5425,6.5425,6.5425,6.5425,6.5425,6.5425,6.5425,6.5425,6.5425,6.5425,6.5425,6.5425,6.5425,6.5425,6.579,6.5932,6.5932,6.6618,6.6954,6.6954,6.7243,6.7407,6.7407,6.7901,6.7822,6.7373,6.7782,6.8019,6.8137,6.8137,6.8137,6.8137,6.8137,6.8137,6.8137,6.8137,6.8137,6.8137,0.0,0.0,0.0,0.0,0.0,0.0,0.0,0.0,0.0,0.0,0.0,0.0,0.0,0.0,0.0,0.0,5.3349,5.3043,5.2939,5.355,5.3781,5.3516,5.4301,5.4648,5.4523,5.4865,5.5122,5.5174,5.5301,5.5868,5.6912,5.6811,5.6947,5.7232,5.8012,5.8542,5.8851,5.8668,5.8737,5.8806,5.8386,5.8386,5.8562,5.7665,5.7836,5.8337,5.752,5.7615,5.8201,5.8606,5.9004,5.946,5.9599,6.0151,0.0,0.0,0.0,6.0901,6.1109,6.1678,6.2043,6.1465,6.1588,6.1756,6.1417,6.121,6.1127,6.1293,6.121,6.1119,6.1119,6.1119,6.1417,6.2354,6.2951,6.357,6.4465,6.5061,6.5425,6.5514,6.5514,6.5514,6.5514,6.5559,6.5559,6.5514,6.5559,6.5559,6.5514,6.5658,6.5702,6.5658,6.632,6.666,6.666,6.7373,6.789,6.8049,6.8049,6.8009,6.793,6.8559,6.8863,6.8863,6.8905,6.9019,6.9202,6.9202,6.9202,6.9202,6.9202,6.9202,6.9202,6.9202,6.9202,6.9202,0.0,0.0,0.0,0.0,0.0,0.0,0.0,0.0,0.0,0.0,0.0,0.0,5.248,5.2835,5.3111,5.3145,5.3111,5.2904,5.248,5.3382,5.3449,5.2516,5.3913,0.0,5.3945,5.3977,5.4802,5.6495,5.5495,5.5941,5.7724,5.7391,5.7838,5.8878,5.8952,5.8755,5.8459,5.9012,5.8632,5.7698,5.7662,5.7327,5.6834,5.6757,5.7535,5.8702,5.8627,5.9031,5.9602,5.9602,5.9641,5.9793,6.0427,6.0973,6.1327,0.0,0.0,0.0,6.1812,6.2329,6.2638,6.2082,6.1676,6.1506,6.1877,6.1506,6.1252,6.1837,6.1506,6.1119,6.1119,6.1119,6.1583,6.2974,6.3282,6.3769,6.516,6.5392,6.5514,6.5736,6.578,6.578,6.578,6.5922,6.5965,6.578,6.5955,6.5965,6.578,6.6354,6.6576,6.6363,6.6995,6.7325,6.7325,6.8327,6.9124,6.9778,6.9778,6.9597,6.9339,7.0026,7.0375,7.0341,6.9527,6.9165,6.9202,6.9202,6.9202,6.9202,6.9202,6.9202,6.9202,6.9202,6.9202,6.9202,0.0,0.0,0.0,0.0,0.0,0.0,0.0,0.0,0.0,0.0,0.0,0.0,0.0,5.3213,5.3111,5.3111,5.2835,5.2753,5.3003,5.3361,5.3774,5.424,5.4802,5.5009,5.4802,5.548,5.6012,5.632,5.6646,5.7381,5.8597,5.8462,5.8451,5.8599,5.8255,5.8427,5.8944,5.8538,5.8332,5.8324,5.8413,5.8503,5.8619,5.8229,5.863,5.9295,5.8942,5.8985,5.9264,5.9582,5.9814,5.9967,6.0042,6.0612,6.1459,6.2204,6.2989,6.3624,6.376,6.3576,6.3356,6.3245,6.2867,6.2629,6.2829,6.2557,6.2234,6.2195,6.1997,6.187,6.187,6.1824,6.2113,6.315,6.3713,6.4332,6.5293,6.5559,6.5692,6.578,6.5911,6.5965,6.5965,6.6052,6.6052,6.6009,6.6052,6.6278,6.6719,6.6787,6.6962,6.7345,6.8019,6.8711,6.938,6.949,6.9813,7.0272,7.0272,7.0202,7.0132,7.0615,7.0817,7.0817,7.0745,7.0676,7.0676,7.0676,7.0676,7.0676,7.0676,7.0676,7.0676,7.0676,7.0676,7.0676,0.0,0.0,0.0,0.0,0.0,0.0,0.0,0.0,0.0,5.3649,0.0,0.0,0.0,0.0,5.327,5.3538,5.3285,5.3301,5.3765,5.3911,5.4362,5.4974,5.5223,5.5295,5.5295,5.5996,5.6439,5.6543,5.7116,5.7957,5.9114,5.859,5.8565,5.9045,5.818,5.8146,5.876,5.8274,5.8369,5.8791,5.886,5.9106,5.9388,5.9059,5.9272,5.975,5.9425,5.9429,5.9669,6.0038,6.0275,6.0511,6.0829,6.1473,6.2248,6.3181,6.4042,6.4599,6.4462,6.4393,6.4323,6.4218,6.3864,6.361,6.3829,6.3539,6.324,6.3131,6.298,6.2931,6.3171,6.3425,6.3579,6.3693,6.4128,6.4773,6.5514,6.578,6.5911,6.5999,6.6172,6.6259,6.6259,6.6268,6.644,6.6618,6.6703,6.7052,6.7753,6.7822,6.8098,6.8755,6.92,6.9814,7.0649,7.0374,7.0374,7.0649,7.0649,7.0581,7.0514,7.085,7.0979,7.1012,7.1336,7.1494,7.1494,7.1494,7.1494,7.1494,7.1494,7.1494,7.1494,7.1494,7.1494,7.1494,0.0,0.0,0.0,0.0,0.0,0.0,0.0,0.0,5.3144,5.3144,0.0,0.0,0.0,0.0,0.0,5.4423,5.449,5.449,5.4523,5.5004,5.5077,5.4593,5.5074,5.5362,5.5362,5.5435,5.609,5.7328,5.6835,5.7494,5.925,5.7808,5.8287,6.0324,5.8811,5.8075,5.7918,5.85,5.8819,5.8933,5.8966,5.9006,5.9006,5.8966,5.9437,6.0067,6.0026,6.049,6.1119,6.1119,6.1119,6.1342,6.2867,6.3503,6.3683,6.3683,6.4006,6.4253,0.0,0.0,0.0,6.5004,6.4599,6.4428,6.4769,6.4392,6.4113,6.4701,6.4357,6.4181,6.5018,6.5713,6.5862,6.4794,6.4732,6.512,6.6038,6.6182,6.6268,6.655,6.6592,6.6592,6.6592,6.677,6.7112,6.7702,6.7935,6.8293,6.8798,6.9492,7.0026,7.0514,7.0514,7.0649,7.1012,7.1012,7.1012,7.1012,7.1012,7.085,7.0548,7.0883,7.1012,7.1012,7.1336,7.1494,7.1494,7.1494,7.1494,7.1494,7.1494,7.1494,7.1494,7.1494,7.1494,7.1494,0.0,0.0,0.0,0.0,0.0,5.3745,5.3745,5.3966,5.4117,0.0,0.0,0.0,5.4195,5.4192,5.4258,5.4456,5.449,5.4759,5.5251,5.5435,5.5705,5.6051,5.6236,5.6312,5.6312,5.6908,5.7338,5.7541,5.8044,5.8771,5.9666,5.935,5.9652,6.0403,5.996,5.9809,5.9844,5.9844,5.9864,5.9978,6.0631,6.1026,6.1113,6.0824,6.1039,6.1374,6.0953,6.0953,6.1119,6.1119,6.121,6.1424,6.1997,6.2711,6.3314,6.3314,6.4288,6.5305,6.5207,0.0,0.0,0.0,0.0,0.0,6.5728,6.5568,6.5242,6.5143,6.4941,6.5086,6.5896,6.625,6.6664,6.7438,6.7465,6.7551,6.7798,6.799,6.8107,6.8146,6.8335,6.8447,6.8447,6.8524,6.8638,0.0,6.8865,6.92,6.992,7.0406,7.0747,7.0883,7.0615,7.0783,7.1336,7.111,7.111,7.1368,7.1368,7.1304,7.1207,7.1304,7.1368,7.1368,7.1463,7.1494,7.1494,7.1494,7.1494,7.1494,7.1494,7.1494,7.1494,7.1494,7.1494,7.1494,0.0,0.0,0.0,0.0,0.0,5.4869,5.4869,5.485,5.4825,0.0,0.0,0.0,5.492,5.5256,5.5421,5.5421,5.5421,5.562,5.6051,5.6084,5.6249,5.668,5.6757,5.6962,5.7144,5.8022,5.8413,5.8265,5.9162,5.9761,6.0064,6.0027,6.0291,6.0853,6.0668,6.084,6.1159,6.104,6.0959,6.0946,6.1629,6.1837,6.1716,6.1709,6.1669,6.1588,6.121,6.1119,6.1119,6.1119,6.1506,6.2003,6.2122,6.2706,6.3385,6.3681,6.4497,6.5305,6.5597,6.5918,6.6264,6.6697,0.0,0.0,6.6427,6.6366,6.6253,6.632,6.636,6.6717,6.7858,6.8095,6.8494,6.9687,6.9809,6.9529,6.887,6.8908,6.8982,6.8982,6.9128,6.9202,6.9202,6.9202,6.9347,6.9672,6.9707,7.0025,7.0845,7.111,7.1207,7.1207,7.1048,7.1078,7.1494,7.1304,7.1304,7.1494,7.1494,7.1494,7.1494,7.1494,7.1494,7.1494,7.1494,7.1494,7.1494,7.1494,7.1494,7.1494,7.1494,7.1494,7.1494,7.1494,7.1494,7.1494,0.0,0.0,5.7635,5.7697,5.7225,5.6871,5.6871,5.6063,5.5494,0.0,5.5055,5.5057,5.5747,5.6415,5.6846,5.6912,5.6945,5.6945,5.6945,5.6945,5.6945,5.6945,5.7143,5.7476,5.7945,5.8871,5.9321,5.9225,6.0,6.0411,6.0476,6.0102,6.0545,6.1596,6.125,6.143,6.2037,6.2037,6.1997,6.1951,6.2195,6.1997,6.1588,6.1837,6.1669,6.121,6.1161,6.1119,6.1119,6.1119,6.1763,6.2642,6.2642,6.2977,6.3496,6.4253,6.4532,6.4772,6.5501,6.6233,6.6786,6.6786,6.6786,0.0,6.6786,6.6786,6.7003,6.7728,6.7945,6.8452,6.9973,7.0366,7.0625,7.1386,7.1494,7.1042,6.9636,6.9492,6.9492,6.9492,6.9492,6.9492,6.9492,6.9492,6.9778,7.0474,7.0507,7.0811,7.1463,7.1494,7.1494,7.1494,7.1494,7.1494,7.1494,7.1494,7.1494,7.1494,7.1494,7.1494,7.1494,7.1494,7.1494,7.1494,7.1494,7.1494,7.1494,7.1494,7.1494,7.1494,7.1494,7.1494,7.1494,7.1494,7.1494,7.1494,0.0,5.7283,5.6636,5.7094,5.685,5.6599,5.6599,5.6637,5.6592,5.644,5.6326,5.6547,5.7276,5.7508,5.7806,5.8403,5.8469,5.8469,5.8469,5.8469,5.8469,5.8469,5.8667,5.8813,5.8906,5.9453,5.9602,5.946,5.989,6.0381,6.0868,6.0946,6.1467,6.2217,6.2144,6.2206,6.2341,6.2341,6.2659,6.3087,6.2581,6.2386,6.2318,6.1917,6.1911,6.1957,6.1334,6.1119,6.1119,6.1119,6.1342,6.1716,6.1877,6.2116,6.2474,6.3422,6.4112,6.4772,6.5501,6.6233,6.6786,6.6786,6.6786,0.0,6.6786,6.6786,6.6858,6.7003,6.7547,6.8307,6.9249,6.9968,7.0625,7.1386,7.1494,7.1399,7.1107,7.1042,7.1042,7.1042,7.1042,7.1042,7.1042,7.1042,7.1107,7.1272,7.1304,7.1368,7.1494,7.1494,7.1494,7.1494,7.1494,7.1494,7.1494,7.1494,7.1494,7.1494,7.1494,7.1494,7.1494,7.1494,7.1494,7.1494,7.1494,7.1494,7.1494,7.1494,7.1494,7.1494,7.1494,7.1494,7.1494,7.1494,7.1494,7.1494,5.9025,5.8303,5.7671,5.7975,5.7636,5.7306,5.7198,5.7092,5.7044,5.7216,5.7574,5.7939,5.8303,5.8336,5.8502,5.8866,5.8899,5.8899,5.8899,5.898,5.9059,5.9059,5.9343,5.9628,5.9877,6.0342,6.0627,6.0729,6.1076,6.1395,6.1683,6.2206,6.2584,6.2956,6.3328,6.3497,6.3497,6.3497,6.3702,6.3952,6.3042,6.2774,6.2859,6.2318,6.2076,6.1917,6.1458,6.1169,6.1119,6.1119,6.1293,6.1547,6.1669,6.1911,6.2386,6.3237,6.4005,6.4772,6.5501,6.6233,6.6786,6.6786,6.6786,0.0,0.0,6.6786,6.6931,6.7329,6.8054,6.8814,6.9678,7.0408,7.106,7.1458,7.1494,7.1494,7.1494,7.1494,7.1494,7.1494,7.1494,7.1494,7.1494,7.1494,7.1494,7.1494,7.1494,7.1494,7.1494,7.1494,7.1494,7.1494,7.1494,7.1494,7.1494,7.1494,7.1494,7.1494,7.1494,7.1494,7.1494,7.1494,7.1494,7.1494,7.1494,7.1494,7.1494,7.1494,7.1494,7.1494,7.1494,7.1494,7.1494,7.1494,7.1494,7.1494,6.0027,5.9417,5.8909,5.9151,5.8696,5.8334,5.8324,5.7838,5.7658,5.8102,5.8654,5.9013,5.9179,5.9179,5.9205,5.9297,5.933,5.933,5.9411,5.9538,5.9618,5.9658,6.0019,6.0505,6.1086,6.1509,6.1998,6.2514,6.2707,6.2821,6.2821,6.3429,6.3734,6.3768,6.4343,6.4613,6.4613,6.4613,6.4661,6.472,6.3694,6.3376,6.3418,6.3072,6.2634,6.2185,6.1899,6.1692,6.1516,6.1558,6.1808,6.2063,6.2185,6.2468,6.291,6.3698,6.4356,6.4982,6.5732,6.6361,6.6786,6.6786,6.6786,6.6786,0.0,0.0,0.0,6.7655,6.8525,6.9424,7.0077,7.0879,7.1494,7.1494,0.0,0.0,0.0,7.1494,0.0,7.1494,7.1494,7.1494,7.1494,7.1494,7.1494,7.1494,7.1494,7.1494,7.1494,7.1494,7.1494,7.1494,7.1494,7.1494,7.1494,7.1494,7.1494,7.1494,7.1494,7.1494,7.1494,7.1494,7.1494,7.1494,7.1494,7.1494,7.1494,7.1494,7.1494,7.1494,7.1494,7.1494,7.1494,7.1494,7.1494,7.1494,6.0609,5.9282,5.859,5.9524,5.9266,5.9099,5.9742,5.9497,5.9298,5.9525,5.9349,5.9412,6.0084,6.0151,6.0296,6.0788,6.0854,6.0937,6.1109,6.115,6.1232,6.1434,6.1642,6.2098,6.2865,6.314,6.3592,6.4302,6.4343,6.4343,6.4343,6.4444,6.4478,6.4478,6.4546,6.4613,6.4613,6.4613,6.4988,6.5508,6.4738,6.4424,6.4424,6.4221,6.4057,6.3934,6.3517,6.3221,6.3083,6.3254,6.3348,6.3433,6.3892,6.4057,6.4254,6.5188,6.5514,6.5719,6.648,6.6727,6.6786,6.6786,6.6786,6.6786,6.6786,0.0,6.6822,6.6931,0.0,6.9243,6.9316,0.0,0.0,0.0,0.0,0.0,7.1494,7.1494,7.1494,7.1494,7.1494,7.1494,7.1494,7.1494,7.1494,7.1494,7.1494,7.1494,7.1494,7.1494,7.1494,7.1494,7.1494,7.1494,7.1494,7.1494,7.1494,7.1494,7.1494,7.1494,7.1494,7.1494,7.1494,7.1494,7.1494,7.1494,7.1494,7.1494,7.1494,7.1494,7.1494,7.1494,7.1494,7.1494,7.1494,7.1494,6.1568,6.0702,5.9967,5.9981,5.979,5.9704,5.9895,6.0063,6.0136,6.0096,6.0424,6.0705,6.0924,6.0917,6.1009,6.126,6.1169,6.1368,6.2016,6.214,6.2505,6.3187,6.3391,6.3681,6.4018,6.4099,6.4309,6.4613,6.4613,6.4613,6.4613,6.5019,6.5222,6.5297,6.6159,6.6323,6.594,6.6364,6.6485,6.6323,6.5989,6.5899,6.5797,6.4836,6.4375,6.4252,6.4078,6.3869,6.37,6.3784,6.3911,6.4044,6.4244,6.4409,6.4553,6.4932,6.5368,0.0,0.0,0.0,0.0,0.0,0.0,0.0,6.8072,0.0,6.8162,0.0,0.0,0.0,0.0,0.0,0.0,0.0,7.1132,0.0,0.0,0.0,7.048,7.1386,0.0,0.0,7.1494,7.1494,7.1494,7.1494,7.1494,7.1494,7.1494,7.1494,7.1494,7.1494,7.1494,7.1494,7.1494,7.1494,7.1494,7.1494,7.1494,7.1494,7.1494,7.1494,7.1494,7.1494,7.1494,7.1494,7.1494,7.1494,7.1494,7.1494,7.1494,7.1494,7.1494,7.1494,7.1494,7.1494,6.2508,6.1708,6.0784,6.0389,6.0342,6.0333,6.0381,6.0936,6.1287,6.1167,6.1803,6.2271,6.2189,6.2066,6.1983,6.1983,6.1808,6.1998,6.2782,6.2991,6.3433,6.4169,6.445,6.464,6.4836,6.4843,6.4986,6.5222,6.5222,6.5222,6.5222,6.5764,6.6,6.6076,6.7168,6.736,6.6854,6.7407,6.7325,6.6812,6.6812,6.6812,6.6677,6.5628,6.5099,6.4933,6.4933,6.4766,6.4598,6.464,6.4766,6.4933,6.4941,6.5099,6.5196,0.0,0.0,0.0,6.6738,0.0,0.0,0.0,0.0,0.0,0.0,0.0,0.0,0.0,0.0,0.0,0.0,0.0,0.0,0.0,0.0,7.0372,0.0,6.9714,0.0,0.0,0.0,0.0,0.0,7.1494,7.1494,7.1494,7.1494,7.1494,7.1494,7.1494,7.1494,7.1494,7.1494,7.1494,7.1494,7.1494,7.1494,7.1494,7.1494,7.1494,7.1494,7.1494,7.1494,7.1494,7.1494,7.1494,7.1494,7.1494,7.1494,7.1494,7.1494,7.1494,7.1494,7.1494,7.1494,7.1494,6.3435,6.1667,6.0279,6.079,6.0886,6.1122,6.1822,6.2636,6.3188,6.3349,6.3631,6.3936,6.4184,6.3768,6.3548,6.3548,6.3335,6.3335,6.3539,6.376,6.3886,6.3911,6.4368,6.487,6.5371,6.5579,6.6,6.6745,6.6745,6.6745,6.6745,6.6779,6.6779,6.6779,6.6812,6.6812,6.6812,6.6812,6.6812,6.6812,6.6812,6.6812,6.6812,6.6779,6.6576,6.644,6.644,6.6278,6.6072,6.632,6.644,6.6482,6.666,6.6703,0.0,0.0,0.0,0.0,0.0,0.0,0.0,6.6847,0.0,0.0,0.0,0.0,6.9207,0.0,0.0,0.0,0.0,0.0,0.0,0.0,0.0,0.0,0.0,0.0,0.0,0.0,0.0,0.0,0.0,7.1494,7.1494,0.0,7.1494,7.1494,7.1494,7.1494,7.1494,7.1494,7.1494,7.1494,7.1494,7.1494,7.1494,7.1494,7.1494,7.1494,7.1494,7.1494,7.1494,7.1494,7.1494,7.1494,7.1494,7.1494,7.1494,7.1494,7.1494,7.1494,7.1494,7.1494,7.1494,7.1494,6.3528,6.3289,6.2854,6.2032,6.2296,6.287,6.3613,6.3951,6.4038,6.3799,6.4084,6.421,6.3869,6.3793,6.3751,6.3615,6.3401,6.36,6.4281,6.4528,6.4857,6.5325,6.5817,6.6078,6.6137,6.6314,6.6542,6.6812,6.6812,6.6812,6.6812,6.6812,6.6812,6.6812,6.736,6.7319,6.6854,6.7366,6.7319,6.6812,6.6812,6.6812,6.6812,6.6812,6.677,6.6686,6.6686,6.6643,6.6601,6.6643,6.6686,6.6686,6.677,6.6812,6.6787,6.6806,6.6821,6.6916,0.0,0.0,6.7182,6.8788,0.0,0.0,0.0,0.0,0.0,0.0,0.0,0.0,0.0,0.0,0.0,0.0,0.0,0.0,0.0,0.0,0.0,0.0,0.0,0.0,0.0,0.0,0.0,0.0,7.1494,7.1494,7.1494,7.1494,7.1494,7.1494,7.1494,7.1494,7.1494,7.1494,7.1494,7.1494,7.1494,7.1494,7.1494,7.1494,7.1494,7.1494,7.1494,7.1494,7.1494,7.1494,7.1494,7.1494,7.1494,7.1494,7.1494,7.1494,7.1494,7.1494,6.3903,6.4275,6.4309,6.3328,6.3565,6.4072,6.4546,6.4816,6.4904,6.458,6.4858,6.5018,6.468,6.4476,6.4391,6.4381,6.4165,6.4364,6.5047,6.521,6.5541,6.6062,6.6473,6.6635,6.6507,6.672,6.6812,6.6812,6.6812,6.6812,6.6812,6.6812,6.6812,6.6812,6.7325,6.7319,6.6854,6.7325,6.7243,6.6812,6.6812,6.6812,6.6812,6.6812,6.6812,6.6812,6.6812,6.6812,6.6812,6.6812,6.6812,6.6812,6.6812,6.6812,6.6812,6.6812,6.6812,6.6938,6.7407,6.7195,0.0,6.8752,6.9163,0.0,7.0438,0.0,7.1494,0.0,0.0,0.0,0.0,0.0,0.0,0.0,0.0,0.0,0.0,6.7619,0.0,0.0,0.0,0.0,0.0,0.0,7.1494,7.1494,7.1494,7.1494,0.0,7.1494,7.1494,7.1494,7.1494,7.1494,7.1494,7.1494,7.1494,7.1494,7.1494,7.1494,7.1494,7.1494,7.1494,7.1494,7.1494,7.1494,7.1494,7.1494,7.1494,7.1494,7.1494,7.1494,7.1494,7.1494,7.1494,7.1494,6.4647,6.4681,6.4715,6.4715,6.4681,6.4681,6.4715,6.529,6.573,6.573,6.596,6.6225,6.6464,6.5867,6.5559,6.578,6.5559,6.5514,6.5736,6.578,6.5911,6.6095,6.6345,6.6507,6.6507,6.672,6.6812,6.6812,6.6812,6.6812,6.6812,6.6812,6.6812,6.6812,6.6812,6.6812,6.6812,6.6812,6.6812,6.6812,6.6812,6.6812,6.6812,6.6812,6.6812,6.6812,6.6812,6.6812,6.6812,6.6812,6.6812,6.6812,6.6812,6.6812,6.6812,6.6812,6.6812,6.6812,6.6812,6.6812,6.6812,6.6854,6.798,0.0,0.0,0.0,7.1431,0.0,0.0,0.0,0.0,0.0,0.0,0.0,0.0,0.0,0.0,0.0,6.7438,0.0,0.0,0.0,0.0,0.0,7.1494,7.1494,7.1494,7.1494,0.0,7.1494,7.1494,7.1494,7.1494,7.1494,7.1494,7.1494,7.1494,7.1494,7.1494,7.1494,7.1494,7.1494,7.1494,7.1494,7.1494,7.1494,7.1494,7.1494,7.1494,7.1494,7.1494,7.1494,7.1494,7.1494,7.1494,7.1494,6.5425,6.5865,6.6237,6.6237,6.5797,6.5595,6.617,6.6406,6.6458,6.6289,6.65,6.6516,6.6225,6.6215,6.6086,6.5824,6.5736,6.5647,6.5514,6.5834,6.5965,6.5867,6.643,6.6643,6.6507,6.672,6.6812,6.6812,6.6812,6.6812,6.6812,6.6812,6.6812,6.6812,6.6812,6.6812,6.6812,6.6812,6.6812,6.6812,6.6812,6.6812,6.6812,6.6812,6.6812,6.6812,6.6812,6.6812,6.6812,6.6812,6.6812,6.6812,6.6812,6.6812,6.6812,6.6812,6.6812,6.6812,6.6812,6.6812,6.6904,6.7529,6.8014,6.8447,0.0,0.0,0.0,0.0,0.0,0.0,0.0,0.0,0.0,0.0,0.0,0.0,0.0,0.0,0.0,6.8271,0.0,0.0,7.1096,7.1386,7.1494,7.1494,7.1494,7.1494,7.1494,0.0,7.1494,7.1494,7.1494,7.1494,7.1494,7.1494,7.1494,7.1494,7.1494,7.1494,7.1494,7.1494,7.1494,7.1494,7.1494,7.1494,7.1494,7.1494,7.1494,7.1494,7.1494,7.1494,7.1494,7.1494,7.1494,7.1494,6.617,6.6542,6.6812,6.6812,6.6474,6.6339,6.6745,6.6812,6.677,6.6677,6.6643,6.6558,6.6302,6.6302,6.6215,6.5955,6.5955,6.5911,6.5867,6.6009,6.6139,6.6215,6.6516,6.6677,6.6635,6.6728,0.0,6.6812,6.6812,6.6812,6.6812,6.6812,6.6812,6.6812,6.6812,6.6812,6.6812,6.6812,6.6812,6.6812,6.6812,6.6812,0.0,6.6812,6.6812,6.6812,6.6812,6.6812,6.6812,6.6812,6.6812,6.6812,6.6812,6.6812,6.6812,6.6812,6.6812,6.6812,6.6812,6.6812,6.6938,6.7366,6.7771,6.8132,6.8562,6.931,6.999,0.0,7.0745,7.1107,0.0,0.0,0.0,0.0,0.0,0.0,0.0,0.0,0.0,0.0,6.943,0.0,7.1386,7.1494,7.1494,7.1494,7.1494,7.1494,0.0,0.0,7.1494,7.1494,7.1494,7.1494,7.1494,7.1494,7.1494,7.1494,7.1494,7.1494,7.1494,7.1494,7.1494,7.1494,7.1494,7.1494,7.1494,7.1494,7.1494,7.1494,7.1494,7.1494,7.1494,7.1494,7.1494,7.1494,6.6812,6.6812,6.6812,6.6812,6.6812,6.6812,6.6812,6.6812,6.6812,6.6812,6.6677,6.655,6.655,6.6345,6.6182,6.6139,6.6139,6.6259,6.6421,6.6259,6.6311,6.6728,6.6635,6.6635,6.6812,6.6812,6.6812,6.6812,6.6812,6.6812,6.6812,6.6812,6.6812,6.6812,6.6812,6.6812,6.6812,6.6812,6.6812,6.6812,6.6812,6.6812,6.6812,6.6812,6.6812,6.6812,6.6812,6.6812,6.6812,6.6812,6.6812,6.6812,6.6812,6.6812,6.6812,6.6812,6.6812,6.6812,6.6812,6.6812,6.6812,6.6812,6.736,6.7816,6.7816,6.8447,6.9273,7.0095,7.0337,7.0644,7.1368,0.0,0.0,0.0,0.0,0.0,0.0,0.0,0.0,0.0,0.0,0.0,0.0,7.1494,7.1494,7.1494,7.1494,7.1494,0.0,0.0,7.1494,7.1494,7.1494,7.1494,7.1494,7.1494,7.1494,7.1494,7.1494,7.1494,7.1494,7.1494,7.1494,7.1494,7.1494,7.1494,7.1494,7.1494,7.1494,7.1494,7.1494,7.1494,7.1494,7.1494,7.1494,7.1494,6.6812,6.6812,6.6812,6.6812,6.6812,6.6812,6.6812,6.6812,6.6812,6.6812,6.677,6.6728,6.6728,6.6686,6.6601,6.6464,6.6421,6.6345,6.6182,6.6345,6.6464,6.655,6.6643,6.677,6.6812,6.6812,6.6812,0.0,6.6812,6.6812,6.6812,6.6812,6.6812,6.6812,6.6812,6.6812,6.6812,6.6812,6.6812,6.6812,6.6812,6.6812,6.6812,6.6812,6.6812,6.6812,6.6812,6.6812,6.6812,6.6812,6.6812,6.6812,6.6812,6.6812,6.6812,6.6812,6.6812,6.6812,6.6812,6.6812,6.6812,6.6812,6.6896,6.6988,6.6988,6.765,6.8447,6.9238,6.992,7.0644,7.1368,0.0,0.0,0.0,0.0,0.0,0.0,0.0,0.0,0.0,0.0,7.0661,0.0,0.0,7.1494,7.1494,7.1494,0.0,0.0,0.0,7.1494,0.0,7.1494,7.1494,0.0,0.0,7.1494,7.1494,7.1494,7.1494,7.1494,7.1494,7.1494,7.1494,7.1494,7.1494,7.1494,7.1494,7.1494,7.1494,7.1494,7.1494,7.1494,7.1494,7.1494,7.1494,6.6812,6.6812,6.6812,6.6812,6.6812,6.6812,6.6812,6.6812,6.6812,6.6812,6.6812,6.6812,6.6812,6.6812,6.677,6.6643,6.6677,6.6601,6.644,6.6558,6.6677,6.6677,6.6728,6.6812,6.6812,6.6812,6.6812,6.6812,0.0,6.6812,6.6812,6.6812,6.6812,6.6812,6.6812,6.6812,6.6812,6.6812,6.6812,6.6812,6.6812,6.6812,6.6812,6.6812,6.6812,6.6812,6.6812,6.6812,6.6812,6.6812,6.6812,6.6812,6.6812,6.6812,6.6812,6.6812,6.6812,6.6812,6.6812,6.6812,6.6812,6.6812,6.6812,6.6812,6.6812,6.7112,6.7696,6.8978,6.9528,7.0129,7.1304,7.1494,0.0,0.0,0.0,0.0,0.0,0.0,7.0951,0.0,0.0,0.0,0.0,0.0,0.0,0.0,0.0,0.0,0.0,0.0,7.1494,0.0,0.0,0.0,7.1494,0.0,7.1494,7.1494,7.1494,7.1494,7.1494,7.1494,7.1494,7.1494,7.1494,7.1494,7.1494,7.1494,7.1494,7.1494,7.1494,7.1494,7.1494,7.1494,7.1748,7.211,6.6812,6.6812,6.6812,6.6812,6.6812,6.6812,6.6812,6.6812,6.6812,6.6812,6.6812,6.6812,6.6812,6.6812,6.6812,6.6812,6.6812,6.6812,6.6812,6.6812,6.6812,6.6812,6.6812,6.6812,6.6812,6.6812,6.6812,0.0,0.0,6.6812,6.6812,6.6812,6.6812,6.6812,6.6812,6.6812,6.6812,6.6812,6.6812,6.6812,6.6812,6.6812,6.6812,6.6812,6.6812,6.6812,6.6812,6.6812,6.6812,6.6812,6.6812,6.6812,6.6812,6.6812,6.6812,6.6812,6.6812,6.6812,6.6812,6.6812,6.6812,6.6812,6.6812,6.6812,6.6812,6.6812,6.7236,6.8638,6.9237,6.9885,7.1236,7.1494,0.0,0.0,0.0,0.0,0.0,0.0,0.0,0.0,0.0,0.0,7.1494,0.0,0.0,0.0,0.0,0.0,7.1494,0.0,0.0,0.0,0.0,7.1494,7.1494,0.0,7.1494,7.1494,7.1494,7.1494,7.1494,7.1494,7.1494,7.1494,7.1494,7.1494,7.1494,7.1494,7.1494,7.1494,7.1494,7.1494,7.1494,7.1494,7.2001,7.2726,6.6812,6.6812,6.6812,6.6812,6.6812,6.6812,6.6812,6.6812,6.6812,6.6812,6.6812,6.6812,6.6812,6.6812,6.6812,6.6812,6.6812,6.6812,6.6812,6.6812,6.6812,6.6812,6.6812,6.6812,6.6812,6.6812,6.6812,0.0,0.0,6.6812,6.6812,6.6812,6.6812,6.6812,6.6812,6.6812,0.0,6.6812,6.6812,6.6812,6.6812,6.6812,6.6812,6.6812,6.6812,6.6812,6.6812,6.6812,6.6812,6.6812,6.6812,6.6812,6.6812,6.6812,6.6812,6.6812,6.6812,6.6812,6.6812,6.6812,6.6812,6.6812,6.6812,6.6812,6.6812,6.6812,6.7029,6.7935,6.9273,7.0541,7.1368,7.1494,7.1494,0.0,0.0,0.0,0.0,0.0,7.1494,7.1494,0.0,0.0,7.1494,7.1494,0.0,0.0,7.1494,0.0,0.0,0.0,0.0,7.1494,7.1494,7.1494,7.1494,7.1494,7.1494,7.1494,7.1494,7.1494,7.1494,7.1494,7.1494,7.1494,7.1494,7.1494,7.1494,7.1494,7.1494,7.1494,7.1494,7.1494,7.1494,7.1494,7.2001,7.2798,6.6812,6.6812,6.6812,6.6812,6.6812,6.6812,6.6812,6.6812,6.6812,6.6812,6.6812,6.6812,6.6812,6.6812,6.6812,6.6812,6.6812,6.6812,6.6812,6.6812,6.6812,6.6812,6.6812,6.6812,6.6812,6.6812,6.6812,0.0,0.0,0.0,0.0,6.6812,6.6812,6.6812,0.0,6.6812,6.6812,6.6812,6.6812,6.6812,6.6812,6.6812,6.6812,6.6812,6.6812,6.6812,6.6812,6.6812,6.6812,6.6812,6.6812,6.6812,6.6812,6.6812,6.6812,6.6812,6.6812,6.6812,6.6812,6.6812,6.6812,6.6812,6.6812,6.6812,6.6812,6.6812,6.7029,6.7816,6.9273,7.0644,7.1368,7.1494,7.1494,7.1494,0.0,0.0,0.0,0.0,0.0,7.1494,0.0,7.1494,0.0,7.1494,0.0,0.0,0.0,0.0,0.0,0.0,0.0,7.1494,0.0,7.1494,7.1494,7.1494,7.1494,7.1494,7.1494,7.1494,7.1494,7.1494,7.1494,7.1494,7.1494,7.1494,7.1494,7.1494,7.1494,7.1494,7.1494,7.1494,7.1567,7.2038,7.2726,7.3559,6.6812,6.6812,6.6812,6.6812,6.6812,6.6812,6.6812,6.6812,6.6812,6.6812,6.6812,6.6812,6.6812,6.6812,6.6812,6.6812,6.6812,6.6812,6.6812,6.6812,6.6812,6.6812,6.6812,0.0,6.6812,6.6812,6.6812,6.6812,6.6812,0.0,0.0,0.0,0.0,0.0,6.6812,6.6812,6.6812,6.6812,6.6812,6.6812,6.6812,6.6812,6.6812,6.6812,6.6812,6.6812,6.6812,6.6812,6.6812,6.6812,6.6812,6.6812,6.6812,6.6812,6.6812,6.6812,6.6812,6.6812,6.6812,6.6812,6.6812,6.6812,6.6812,6.6812,6.6812,6.6812,6.7029,6.7816,6.9089,7.0303,7.1042,7.1368,7.1494,7.1494,0.0,0.0,0.0,7.1494,0.0,7.1494,7.1494,7.1494,7.1494,7.1494,0.0,0.0,0.0,0.0,0.0,0.0,0.0,0.0,0.0,0.0,7.1494,7.1494,7.1494,7.1494,7.1494,7.1494,7.1494,7.1494,7.1494,7.1494,7.1494,7.1494,7.1494,7.1494,7.1494,7.1494,7.1494,7.1639,7.1929,7.2509,7.3378,7.4323,6.6812,6.6812,6.6812,6.6812,6.6812,6.6812,6.6812,6.6812,6.6812,6.6812,6.6812,6.6812,6.6812,6.6812,6.6812,6.6812,6.6812,6.6812,6.6812,6.6812,6.6812,0.0,0.0,6.6812,6.6812,6.6812,6.6812,6.6812,0.0,0.0,6.6812,0.0,6.6812,6.6812,6.6812,6.6812,6.6812,6.6812,6.6812,6.6812,6.6812,6.6812,6.6812,6.6812,6.6812,6.6812,6.6812,6.6812,6.6812,6.6812,6.6812,6.6812,6.6812,6.6812,6.6812,6.6812,6.6812,6.6812,6.6812,6.6812,6.6812,6.6812,6.6812,6.6812,6.6812,6.6812,6.7029,6.7816,6.8638,6.9456,7.0268,7.1009,7.1494,7.1494,0.0,0.0,0.0,7.1494,0.0,7.1494,7.1494,7.1494,7.1494,7.1494,0.0,7.1494,7.1494,0.0,0.0,0.0,0.0,7.1494,7.1494,0.0,7.1494,7.1494,7.1494,7.1494,7.1494,7.1494,7.1494,7.1494,7.1494,7.1494,7.1494,7.1494,7.1494,7.1494,7.1494,7.1494,7.1494,7.2001,7.269,7.2726,7.374,7.5083,6.6812,6.6812,6.6812,6.6812,6.6812,6.6812,6.6812,6.6812,6.6812,6.6812,6.6812,6.6812,6.6812,6.6812,6.6812,6.6812,6.6812,6.6812,0.0,6.6812,6.6812,6.6812,6.6812,6.6812,6.6812,6.6812,6.6812,6.6812,0.0,0.0,0.0,6.6812,6.6812,6.6812,6.6812,6.6812,6.6812,6.6812,6.6812,6.6812,6.6812,6.6812,6.6812,6.6812,6.6812,6.6812,6.6812,6.6812,6.6812,6.6812,6.6812,6.6812,6.6812,6.6812,6.6812,6.6812,6.6812,6.6812,6.6812,6.6812,6.6812,6.6812,6.6812,6.6812,6.6812,6.6812,6.7029,6.7816,6.8638,6.9456,7.0234,7.1009,7.1494,7.1494,7.1494,0.0,7.1494,0.0,7.1494,7.1494,7.1494,7.1494,7.1494,7.1494,0.0,0.0,0.0,0.0,0.0,0.0,0.0,0.0,7.1494,0.0,7.1494,7.1494,7.1494,7.1494,7.1494,7.1494,7.1494,7.1494,7.1494,7.1494,7.1494,7.1494,7.1494,7.1494,7.1494,7.1494,7.1494,7.2001,7.2762,7.3342,7.4211,7.5155,6.6812,6.6812,6.6812,6.6812,6.6812,6.6812,6.6812,6.6812,6.6812,6.6812,6.6812,6.6812,6.6812,6.6812,6.6812,6.6812,6.6812,6.6812,6.6812,6.6812,6.6812,6.6812,6.6812,6.6812,6.6812,6.6812,0.0,6.6812,6.6812,6.6812,6.6812,6.6812,6.6812,6.6812,6.6812,6.6812,6.6812,6.6812,6.6812,6.6812,6.6812,6.6812,6.6812,6.6812,6.6812,6.6812,6.6812,6.6812,6.6812,6.6812,6.6812,6.6812,6.6812,6.6812,6.6812,6.6812,6.6812,6.6812,6.6812,6.6812,6.6812,6.6812,6.6812,6.6812,6.6812,6.6812,6.6904,6.7448,6.8176,6.9015,6.9814,7.0575,7.1171,7.1463,7.1494,7.1494,7.1494,0.0,7.1494,0.0,0.0,7.1494,7.1494,7.1494,7.1526,0.0,0.0,0.0,0.0,0.0,7.1593,7.1494,7.1494,7.1494,7.1494,7.1494,7.1494,7.1494,7.1494,7.1494,7.1494,7.1494,7.1494,7.1494,7.1494,7.1494,7.1494,7.1494,7.1494,7.1531,7.182,7.2436,7.3269,7.4066,7.4863,7.5623,6.6812,6.6812,6.6812,6.6812,6.6812,6.6812,6.6812,6.6812,6.6812,6.6812,6.6812,6.6812,6.6812,6.6812,6.6812,6.6812,0.0,0.0,6.6812,6.6812,6.6812,6.6812,6.6812,6.6812,6.6812,6.6812,6.6812,6.6812,6.6812,6.6812,6.6812,6.6812,6.6812,6.6812,6.6812,6.6812,6.6812,6.6812,6.6812,6.6812,6.6812,6.6812,6.6812,6.6812,6.6812,6.6812,6.6812,6.6812,6.6812,6.6812,6.6812,6.6812,6.6812,6.6812,6.6812,6.6812,6.6812,6.6812,6.6812,6.6812,6.6812,6.6812,6.6812,6.6812,6.6812,6.6812,6.6812,6.6812,6.7448,6.825,6.9017,6.9849,7.0609,7.1368,7.1494,7.1494,7.1494,7.1494,7.1494,0.0,0.0,7.1494,7.1494,7.1494,7.1494,0.0,0.0,0.0,0.0,0.0,7.1687,7.1494,7.1494,7.1494,7.1494,7.1494,7.1494,7.1494,7.1494,7.1494,7.1494,7.1494,7.1494,7.1494,7.1494,7.1494,7.1494,7.1494,7.1494,7.1567,7.24,7.3197,7.403,7.4793,7.5623,7.6275,6.6812,6.6812,6.6812,6.6812,6.6812,6.6812,6.6812,6.6812,6.6812,6.6812,6.6812,6.6812,6.6812,6.6812,6.6812,6.6812,6.6812,6.6812,6.6812,6.6812,6.6812,6.6812,6.6812,6.6812,6.6812,6.6812,6.6812,6.6812,6.6812,6.6812,6.6812,6.6812,6.6812,6.6812,6.6812,6.6812,6.6812,6.6812,6.6812,6.6812,6.6812,6.6812,6.6812,6.6812,6.6812,6.6812,6.6812,6.6812,6.6812,6.6812,6.6812,6.6812,6.6812,6.6812,6.6812,6.6812,6.6812,6.6812,6.6812,6.6812,6.6812,6.6812,6.6812,6.6812,6.6812,6.6812,6.6812,6.6812,6.7448,6.825,6.9017,6.9849,7.0609,7.1368,7.1494,7.1494,7.1494,7.1494,7.1494,0.0,7.1494,7.1494,7.1494,7.1494,7.1557,0.0,0.0,7.1718,7.1718,7.1749,7.1687,7.1494,7.1494,7.1494,7.1494,7.1494,7.1494,7.1494,7.1494,7.1494,7.1494,7.1494,7.1494,7.1494,7.1494,7.1494,7.1494,7.1494,7.1494,7.1567,7.24,7.3197,7.403,7.4793,7.5623,7.6275,6.6812,6.6812,6.6812,6.6812,6.6812,6.6812,6.6812,6.6812,6.6812,6.6812,6.6812,6.6812,6.6812,6.6812,6.6812,6.6812,6.6812,6.6812,6.6812,6.6812,6.6812,6.6812,6.6812,6.6812,6.6812,6.6812,6.6812,6.6812,6.6812,6.6812,6.6812,6.6812,6.6812,6.6812,6.6812,6.6812,6.6812,6.6812,6.6812,6.6812,6.6812,6.6812,6.6812,6.6812,6.6812,6.6812,6.6812,6.6812,6.6812,6.6812,6.6812,6.6812,6.6812,6.6812,6.6812,6.6812,6.6812,6.6812,6.6812,6.6812,6.6812,6.6812,6.6812,6.6812,6.6812,6.6812,6.6812,6.6812,6.7154,6.7696,6.8486,6.931,7.0095,7.0878,7.1304,7.1494,7.1494,7.1494,7.1494,7.1494,7.1494,7.1494,7.1494,7.1593,7.1687,7.1816,7.1842,0.0,7.1903,7.1811,7.1687,7.1494,7.1494,7.1494,7.1494,7.1494,7.1494,7.1494,7.1494,7.1494,7.1494,7.1494,7.1494,7.1494,7.1494,7.1494,7.1494,7.1494,7.1494,7.1639,7.2798,7.3523,7.4066,7.5225,7.5913,7.6309,6.6812,6.6812,6.6812,6.6812,6.6812,6.6812,6.6812,6.6812,6.6812,6.6812,6.6812,6.6812,6.6812,6.6812,6.6812,6.6812,6.6812,6.6812,6.6812,6.6812,6.6812,6.6812,6.6812,6.6812,6.6812,6.6812,6.6812,6.6812,6.6812,6.6812,6.6812,6.6812,6.6812,6.6812,6.6812,6.6812,6.6812,6.6812,6.6812,6.6812,6.6812,6.6812,6.6812,6.6812,6.6812,6.6812,6.6812,6.6812,6.6812,6.6812,6.6812,6.6812,6.6812,6.6812,6.6812,6.6812,6.6812,6.6812,6.6812,6.6812,6.6812,6.6812,6.6812,6.6812,6.6812,6.6812,6.6812,6.6812,6.6812,6.7029,6.7856,6.8676,6.9492,7.0268,7.1009,7.1494,7.1494,0.0,7.1494,7.1494,7.1494,7.1494,7.1526,7.1687,7.1816,7.1811,7.1964,7.1988,7.1988,7.1872,7.1718,7.1526,7.1494,7.1494,7.1494,7.1494,7.1494,7.1494,7.1494,7.1494,7.1494,7.1494,7.1494,7.1494,7.1494,7.1494,7.1494,7.1494,7.1494,7.1675,7.3269,7.3921,7.4102,7.5729,7.6345,7.6378,6.6812,6.6812,6.6812,6.6812,6.6812,6.6812,6.6812,6.6812,6.6812,6.6812,6.6812,6.6812,6.6812,6.6812,6.6812,6.6812,6.6812,6.6812,6.6812,6.6812,6.6812,6.6812,6.6812,6.6812,6.6812,6.6812,6.6812,6.6812,6.6812,6.6812,6.6812,6.6812,6.6812,6.6812,6.6812,6.6812,6.6812,6.6812,6.6812,6.6812,6.6812,6.6812,6.6812,6.6812,6.6812,6.6812,6.6812,6.6812,6.6812,6.6812,6.6812,6.6812,6.6812,6.6812,6.6812,6.6812,6.6812,6.6812,6.6812,6.6812,6.6812,6.6812,6.6812,6.6812,6.6812,6.6812,6.6812,6.6812,6.6812,6.7029,6.7856,6.8676,6.9492,7.0268,7.1009,7.1494,7.1494,0.0,7.1494,7.1494,7.1494,7.1593,7.1718,7.1786,7.1842,7.1957,7.1988,7.1988,7.1988,7.1872,7.1786,7.1749,7.1593,7.1494,7.1494,7.1494,7.1494,7.1494,7.1494,7.1494,7.1494,7.1494,7.1494,7.1494,7.1494,7.1494,7.1494,7.1494,7.1494,7.1675,7.3269,7.3921,7.4102,7.5898,7.6581,7.6545,6.6812,6.6812,6.6812,6.6812,6.6812,6.6812,6.6812,6.6812,6.6812,6.6812,6.6812,6.6812,6.6812,6.6812,6.6812,6.6812,6.6812,6.6812,6.6812,6.6812,6.6812,6.6812,6.6812,6.6812,6.6812,6.6812,6.6812,6.6812,6.6812,6.6812,6.6812,6.6812,6.6812,6.6812,6.6812,6.6812,6.6812,6.6812,6.6812,6.6812,6.6812,6.6812,6.6812,6.6812,6.6812,6.6812,6.6812,6.6812,6.6812,6.6812,6.6812,6.6812,6.6812,6.6812,6.6812,6.6812,6.6812,6.6812,6.6812,6.6812,6.6812,6.6812,6.6812,6.6812,6.6812,6.6812,6.6812,6.6812,6.6812,6.6938,6.7319,6.837,6.9347,6.9707,7.0742,7.1494,7.1494,7.1494,7.1494,7.1494,7.1593,7.1687,7.1816,7.197,7.2084,7.2174,7.2233,7.2292,7.2292,7.2144,7.2091,7.2091,7.1718,7.1494,7.1494,7.1494,7.1494,7.1494,7.1494,7.1494,7.1494,7.1494,7.1494,7.1494,7.1494,7.1494,7.1494,7.1494,7.1557,7.1801,7.3434,7.4115,7.4392,7.6094,7.6708,7.6741,6.6812,6.6812,6.6812,6.6812,6.6812,6.6812,6.6812,6.6812,6.6812,6.6812,6.6812,6.6812,6.6812,6.6812,6.6812,6.6812,6.6812,6.6812,6.6812,6.6812,6.6812,6.6812,6.6812,6.6812,6.6812,6.6812,6.688,6.7083,6.7083,6.7151,6.7354,6.7354,6.7354,6.7354,6.7354,6.7354,6.7354,6.7354,6.7354,6.732,6.7151,6.7083,6.7049,6.688,6.6812,6.6812,6.6812,6.6812,6.6812,6.6812,6.6812,6.6812,6.6812,6.6812,6.6812,6.6812,6.6812,6.6812,6.6812,6.6812,6.6812,6.6812,6.6812,6.6812,6.6812,6.6812,6.6812,6.6812,6.6812,6.6812,6.6812,6.8098,6.9202,6.9202,0.0,7.1494,7.1494,7.1494,7.1494,7.1557,7.1687,7.1847,7.1909,7.2151,7.2329,7.2358,7.2438,7.2496,7.2496,7.2351,7.2299,7.2233,7.1811,7.1562,7.1494,7.1494,7.1494,7.1494,7.1494,7.1526,7.1593,7.1494,7.1526,7.162,7.1557,7.1557,7.162,7.162,7.1827,7.2278,7.3697,7.4415,7.4869,7.6323,7.6866,7.6897,6.6812,6.6812,6.6812,6.6812,6.6812,6.6812,6.6812,6.6812,6.6812,6.6812,6.6812,6.6812,6.6812,6.6812,6.6812,6.6812,6.6812,6.6812,6.6812,6.6812,6.6812,6.6812,6.6812,6.6812,6.6812,6.6812,6.7151,6.7827,6.7827,6.8199,6.8944,6.8944,6.8944,6.8944,6.8944,6.8944,6.8944,6.8944,6.8944,6.8876,6.8132,6.7827,6.776,6.7083,6.6812,6.6812,6.6812,6.6812,6.6812,6.6812,6.6812,6.6812,6.6812,6.6812,6.6812,6.6812,6.6812,6.6812,6.6812,6.6812,6.6812,6.6812,6.6812,6.6812,6.6812,6.6812,6.6812,6.6812,6.6812,6.6812,6.6812,6.8098,6.9202,6.9202,0.0,0.0,7.1494,7.1494,7.1593,7.1786,7.1816,7.1939,7.224,7.2299,7.2358,7.2467,7.2496,7.2496,7.2496,7.2351,7.2204,7.2018,7.1872,7.1687,7.1494,7.1494,7.1494,7.1494,7.1494,7.1625,7.1786,7.1593,7.1651,7.1957,7.1811,7.1842,7.1957,7.1957,7.2395,7.316,7.4035,7.4837,7.563,7.67,7.7092,7.7092,6.6812,6.6812,6.6812,6.6812,6.6812,6.6812,6.6812,6.6812,6.6812,6.6812,6.6812,6.6812,6.6812,6.6812,6.6812,6.6812,6.6812,6.6812,6.6812,6.6812,6.6812,6.6812,6.6812,6.6812,6.6812,6.6812,6.7184,6.7895,6.7895,6.8301,6.9113,6.9113,6.9113,6.9113,6.9113,6.9113,6.9113,6.9113,6.8808,6.8335,6.803,6.7624,6.7184,6.6914,6.6812,6.6812,6.6812,6.6812,6.6812,6.6812,6.6812,6.6812,6.6812,6.6812,6.6812,6.6812,6.6812,6.6812,6.6812,6.6812,6.6812,6.6812,6.6812,6.6812,6.6812,6.6812,6.6812,6.6812,6.6812,6.6812,6.6812,6.8098,6.9202,6.9202,0.0,7.1687,7.1687,7.178,7.1836,7.1897,7.2024,7.2181,7.2299,7.2387,7.2438,7.2496,7.2496,7.2496,7.2496,7.2438,7.2351,7.2174,7.2151,7.1994,7.1805,7.1805,7.1805,7.1805,7.1805,7.1836,7.1933,7.1836,7.1866,7.1988,7.1964,7.1927,7.1988,7.1988,7.2559,7.3489,7.4257,7.5122,7.602,7.6888,7.7248,7.7248,6.6812,6.6812,6.6812,6.6812,6.6812,6.6812,6.6812,6.6812,6.6812,6.6812,6.6812,6.6812,6.6812,6.6812,6.6812,6.6812,6.6812,6.6812,6.6812,6.6812,6.6812,6.6812,6.6812,6.6812,6.6812,6.6812,6.7184,6.7895,6.7895,6.8301,6.9113,6.9113,6.9214,6.9451,6.9214,6.9214,6.9417,6.9214,6.8774,6.8267,6.7996,6.759,6.7117,6.6914,6.6812,6.6812,6.6812,6.6812,6.6812,6.6812,6.6812,6.6812,6.6812,6.6812,6.6812,6.6812,6.6854,6.693,6.693,6.698,6.698,6.6854,6.6812,6.6812,6.6812,6.6812,6.6812,6.6812,6.6812,6.6896,6.7112,6.8293,6.9275,6.9528,7.0809,7.1816,7.1816,7.1933,7.2018,7.2114,7.2204,7.2329,7.2387,7.2438,7.2496,7.2496,7.2496,7.2496,7.2496,7.2496,7.2438,7.2387,7.2351,7.2292,7.2137,7.2048,7.1988,7.1988,7.1988,7.2018,7.2078,7.2018,7.2048,7.2137,7.2108,7.2108,7.2137,7.2174,7.2855,7.3969,7.4549,7.5489,7.6533,7.709,7.7273,7.7273,6.6812,6.6812,6.6812,6.6812,6.6812,6.6812,6.6812,6.6812,6.6812,6.6812,6.6812,6.6812,6.6812,6.6812,6.6812,6.6812,6.6812,6.6812,6.6812,6.6812,6.6812,6.6812,6.6812,6.6812,6.6812,6.6812,6.7184,6.7895,6.7895,6.8301,6.9113,6.9113,6.9485,7.0161,6.9417,6.9519,7.0128,6.9417,6.9113,6.9011,6.8233,6.7895,6.7793,6.7083,6.6812,6.6812,6.6812,6.6812,6.6812,6.6812,6.6812,6.6812,6.6812,6.6812,6.6812,6.6812,6.7014,6.718,6.718,6.7346,6.7394,6.6938,6.6812,6.6812,6.6812,6.6812,6.6812,6.6812,6.6812,6.7029,6.7856,6.8676,6.9492,7.0268,7.1207,7.1816,7.1816,7.1933,7.2078,7.2299,7.2299,7.2358,7.2467,7.2496,7.2496,7.2496,7.2496,7.2496,7.2496,7.2496,7.2496,7.2496,7.2496,7.2496,7.2496,7.2174,7.2024,7.2018,7.2018,7.2114,7.2299,7.2078,7.2204,7.2496,7.2387,7.2387,7.2496,7.2496,7.345,7.4918,7.4918,7.5879,7.7273,7.7273,7.7273,7.7273,6.6812,6.6812,6.6812,6.6812,6.6812,6.6812,6.6812,6.6812,6.6812,6.6812,6.6812,6.6812,6.6812,6.6812,6.6812,6.6812,6.6812,6.6812,6.6812,6.6812,6.6812,6.6812,6.6812,6.6812,6.6812,6.6812,6.7184,6.7895,6.7895,6.8301,6.9113,6.9113,6.9214,6.9417,6.9214,6.9214,6.9417,6.918,6.8774,6.8233,6.7996,6.759,6.7117,6.688,6.6812,6.6812,6.6812,6.6812,6.6812,6.6812,6.6812,6.6812,6.6812,6.6812,6.6854,6.7056,6.7139,6.7222,6.7387,6.7469,6.7469,6.7312,6.718,6.7139,6.7229,6.7022,6.6854,6.7056,6.736,6.7736,6.8102,6.9276,7.0302,7.0709,7.1557,7.2151,7.2151,7.2263,7.238,7.2409,7.2438,7.2438,7.2496,7.2496,7.2496,7.2496,7.2496,7.2496,7.2496,7.2496,7.2496,7.2496,7.2496,7.2496,7.2496,7.2409,7.2351,7.2351,7.2351,7.238,7.2438,7.238,7.2409,7.2496,7.2438,7.2438,7.2496,7.2496,7.345,7.4918,7.4918,7.5879,7.7273,7.7273,7.7273,7.7273,6.6812,6.6812,6.6812,6.6812,6.6812,6.6812,6.6812,6.6812,6.6812,6.6812,6.6812,6.6812,6.6812,6.6812,6.6812,6.6812,6.6812,6.6812,6.6812,6.6812,6.6812,6.6812,6.6812,6.6812,6.6812,6.6812,6.7015,6.7455,6.7455,6.7726,6.8199,6.8199,6.8368,6.8605,6.8335,6.8368,6.8605,6.8301,6.7929,6.7455,6.7455,6.7218,6.6812,6.6812,6.6812,6.6812,6.6812,6.6812,6.6812,6.6812,6.6812,6.6812,6.6896,6.6972,6.7014,6.7263,6.7387,6.7435,6.7557,6.7678,6.7719,6.7719,6.755,6.7346,6.7469,6.727,6.7229,6.7684,6.8014,6.8447,6.9131,7.0058,7.0839,7.1264,7.1866,7.2299,7.2299,7.2409,7.2496,7.2496,7.2496,7.2496,7.2496,7.2496,7.2496,7.2496,7.2496,7.2496,7.2496,7.2496,7.2496,7.2496,7.2496,7.2496,7.2496,7.2496,7.2496,7.2496,7.2496,7.2496,7.2496,7.2496,7.2496,7.2496,7.2496,7.2496,7.2496,7.2496,7.345,7.4918,7.4918,7.5879,7.7273,7.7273,7.7273,7.7273,6.6812,6.6812,6.6812,6.6812,6.6812,6.6812,6.6812,6.6812,6.6812,6.6812,6.6812,6.6812,6.6812,6.6812,6.6812,6.6812,6.6812,6.6812,6.6812,6.6812,6.6812,6.6812,6.6812,6.6812,6.6812,6.6812,6.6812,6.6812,6.6812,6.6812,6.6812,6.6812,6.7184,6.776,6.7117,6.7184,6.776,6.7117,6.6812,6.6812,6.6812,6.6812,6.6812,6.6812,6.6812,6.6812,6.6812,6.6854,6.6854,6.6854,6.6854,6.6854,6.7139,6.7222,6.7263,6.7469,6.7638,6.7799,6.7839,6.7959,6.8083,6.8083,6.7845,6.7638,6.7638,6.7638,6.7805,6.86,6.8755,6.9238,7.064,7.0973,7.1232,7.1927,7.2204,7.2329,7.2329,7.2409,7.2496,7.2496,7.2496,7.2496,7.2496,7.2496,7.2496,7.2496,7.2496,7.2496,7.2496,7.2496,7.2496,7.2496,7.2496,7.2496,7.2496,7.2496,7.2496,7.2496,7.2496,7.2496,7.2496,7.2496,7.2496,7.2496,7.2496,7.2496,7.2496,7.2496,7.345,7.4918,7.4918,7.5879,7.7273,7.7273,7.7273,7.7273,6.6812,6.6812,6.6812,6.6812,6.6812,6.6812,6.6812,6.6812,6.6812,6.6812,6.6812,6.6812,6.6812,6.6812,6.6812,6.6812,6.6812,6.6812,6.6812,6.6812,6.6812,6.6812,6.6812,6.6812,6.6812,6.6812,6.6812,6.6812,6.6812,6.6812,6.6812,6.6812,6.6914,6.7049,6.688,6.6914,6.7049,6.688,6.6812,6.6812,6.6812,6.6812,6.6812,6.6812,6.6896,6.7097,6.7097,6.7222,6.7353,6.7353,6.7263,6.7139,6.7387,6.7428,6.7435,6.7678,6.7759,6.7839,6.7999,6.8078,6.8083,6.8083,6.8478,6.8825,6.8825,6.8597,6.8638,6.9493,7.0059,7.0539,7.0966,7.1547,7.2084,7.2351,7.2409,7.2438,7.2438,7.2467,7.2496,7.2496,7.2496,7.2496,7.2496,7.2496,7.2496,7.2496,7.2496,7.2496,7.2496,7.2496,7.2496,7.2496,7.2496,7.2496,7.2496,7.2496,7.2496,7.2496,7.2496,7.2496,7.2496,7.2496,7.2496,7.2496,7.2496,7.2496,7.2496,7.2496,7.345,7.4918,7.4918,7.5879,7.7273,7.7273,7.7273,7.7273,6.6812,6.6812,6.6812,6.6812,6.6812,6.6812,6.6812,6.6812,6.6812,6.6812,6.6812,6.6812,6.6812,6.6812,6.6812,6.6812,6.6812,6.6812,6.6812,6.6812,6.6812,6.6812,6.6812,6.6812,6.6812,6.6812,6.6812,6.6812,6.6812,6.6812,6.6812,6.6812,6.6812,6.6812,6.6812,6.6812,6.6812,6.6812,6.6812,6.6812,6.6812,6.6812,6.6812,6.6938,6.7097,6.7222,6.7304,6.7428,6.751,6.751,6.7428,6.7387,6.7557,6.7638,6.7678,6.7879,6.7925,6.7999,6.8044,6.8083,6.8083,6.8083,6.867,6.9198,6.9198,6.9275,6.9637,7.0503,7.0904,7.1264,7.1702,7.2108,7.2409,7.2467,7.2496,7.2496,7.2496,7.2496,7.2496,7.2496,7.2496,7.2496,7.2496,7.2496,7.2496,7.2496,7.2496,7.2496,7.2496,7.2496,7.2496,7.2496,7.2496,7.2496,7.2496,7.2496,7.2496,7.2496,7.2496,7.2496,7.2496,7.2496,7.2496,7.2496,7.2496,7.2496,7.2496,7.2496,7.345,7.4918,7.4918,7.5879,7.7273,7.7273,7.7273,7.7273,6.6812,6.6812,6.6812,6.6812,6.6812,6.6812,6.6812,6.6812,6.6812,6.6812,6.6812,6.6812,6.6812,6.6812,6.6812,6.6812,6.6812,6.6812,6.6812,6.6812,6.6812,6.6812,6.6812,6.6812,6.6812,6.6812,6.6812,6.6812,6.6812,6.6812,6.6812,6.6812,6.6812,6.6812,6.6812,6.6812,6.6812,6.6812,6.6812,6.6812,6.6854,6.6854,6.6896,6.7139,6.7263,6.7304,6.751,6.7516,6.7591,6.7597,6.7557,6.7557,6.7799,6.7839,6.7879,6.8044,6.8201,6.828,6.828,6.8362,6.8478,6.8478,6.905,6.9564,6.9564,7.0024,7.0671,7.1453,7.1578,7.1769,7.2409,7.2496,7.2496,7.2496,7.2496,7.2496,7.2496,7.2496,7.2496,7.2496,7.2496,7.2496,7.2496,7.2496,7.2496,7.2496,7.2496,7.2496,7.2496,7.2496,7.2496,7.2496,7.2496,7.2496,7.2496,7.2496,7.2496,7.2496,7.2496,7.2496,7.2496,7.2496,7.2496,7.2496,7.2496,7.2496,7.2496,7.2496,7.345,7.4918,7.4918,7.5879,7.7273,7.7273,7.7273,7.7273,6.6812,6.6812,6.6812,6.6812,6.6812,6.6812,6.6812,6.6812,6.6812,6.6812,6.6812,6.6812,6.6812,6.6812,6.6812,6.6812,6.6812,6.6812,6.6812,6.6812,6.6812,6.6812,6.6812,6.6812,6.6812,6.6812,6.6812,6.6812,6.6812,6.6812,6.6812,6.6812,6.6812,6.6812,6.6812,6.6812,6.6812,6.6812,6.6812,6.6812,6.7056,6.7139,6.718,6.7387,6.7557,6.7719,6.7759,6.7759,6.7799,6.7959,6.7919,6.7799,6.7999,6.8044,6.8044,6.8083,6.8555,6.905,6.905,6.9528,6.9989,6.9989,7.0537,7.1099,7.1099,7.1163,7.1453,7.2197,7.2351,7.238,7.2467,7.2496,7.2496,7.2496,7.2496,7.2496,7.2496,7.2496,7.2496,7.2496,7.2496,7.2496,7.2496,7.2496,7.2496,7.2496,7.2496,7.2496,7.2496,7.2496,7.2496,7.2496,7.2496,7.2496,7.2496,7.2496,7.2496,7.2496,7.2496,7.2496,7.2496,7.2496,7.2496,7.2496,7.2496,7.2496,7.2496,7.2496,7.345,7.4918,7.4918,7.5879,7.7273,7.7273,7.7273,7.7273,6.6812,6.6812,6.6812,6.6812,6.6812,6.6812,6.6812,6.6812,6.6812,6.6812,6.6812,6.6812,6.6812,6.6812,6.6812,6.6812,6.6812,6.6812,6.6812,6.6812,6.6812,6.6812,6.6812,6.6812,6.6812,6.6812,6.6812,6.6812,6.6812,6.6812,6.6812,6.6812,6.6854,6.7014,6.7014,6.7097,6.7188,6.7188,6.7188,6.7188,6.7346,6.7387,6.7387,6.7597,6.7965,6.844,6.852,6.8559,6.8593,6.8673,6.867,6.8673,6.9163,6.9347,6.9347,6.9347,6.9564,6.9814,6.9814,7.0059,7.03,7.03,7.0872,7.139,7.139,7.1738,7.2108,7.2438,7.2496,7.2496,7.2496,7.2496,7.2496,7.2496,7.2496,7.2496,7.2496,7.2496,7.2496,7.2496,7.2496,7.2496,7.2496,7.2496,7.2496,7.2496,7.2496,7.2496,7.2496,7.2496,7.2496,7.2496,7.2496,7.2496,7.2496,7.2496,7.2496,7.2496,7.2496,7.2496,7.2496,7.2496,7.2496,7.2496,7.2496,7.2496,7.2496,7.2496,7.345,7.4918,7.4918,7.5879,7.7273,7.7273,7.7273,7.7273]}]]